<?xml version="1.0" encoding="UTF-8" standalone="no" ?>
<gpx xmlns="http://www.topografix.com/GPX/1/1" xmlns:xsi="http://www.w3.org/2001/XMLSchema-instance" xsi:schemaLocation="http://www.topografix.com/GPX/1/1 http://www.topografix.com/GPX/1/1/gpx.xsd" version="1.1" creator="VisuGPX - https://www.visugpx.com">
  <metadata>
    <name>GR6 étp 48 (16)-13/07/2020 Lacapelle Marival Gramat</name>
  </metadata>
  <trk>
    <name><![CDATA[16-13/07/2020 Lacapelle Marival Gramat]]></name>
    <trkseg>
      <trkpt lat="44.72835" lon="1.92604">
        <ele>349.1</ele>
        <time>2020-07-13T07:00:04Z</time>
      </trkpt>
      <trkpt lat="44.72827" lon="1.92595">
        <ele>349.1</ele>
        <time>2020-07-13T07:00:29Z</time>
      </trkpt>
      <trkpt lat="44.72824" lon="1.92594">
        <ele>348.62</ele>
        <time>2020-07-13T07:00:38Z</time>
      </trkpt>
      <trkpt lat="44.72815" lon="1.92593">
        <ele>347.65</ele>
        <time>2020-07-13T07:00:50Z</time>
      </trkpt>
      <trkpt lat="44.72809" lon="1.92594">
        <ele>347.65</ele>
        <time>2020-07-13T07:00:55Z</time>
      </trkpt>
      <trkpt lat="44.72804" lon="1.92588">
        <ele>347.17</ele>
        <time>2020-07-13T07:01:06Z</time>
      </trkpt>
      <trkpt lat="44.72808" lon="1.92565">
        <ele>345.73</ele>
        <time>2020-07-13T07:01:25Z</time>
      </trkpt>
      <trkpt lat="44.72807" lon="1.92559">
        <ele>347.17</ele>
        <time>2020-07-13T07:01:30Z</time>
      </trkpt>
      <trkpt lat="44.72802" lon="1.92515">
        <ele>347.17</ele>
        <time>2020-07-13T07:01:53Z</time>
      </trkpt>
      <trkpt lat="44.72806" lon="1.92492">
        <ele>347.17</ele>
        <time>2020-07-13T07:02:03Z</time>
      </trkpt>
      <trkpt lat="44.72821" lon="1.92453">
        <ele>347.65</ele>
        <time>2020-07-13T07:02:21Z</time>
      </trkpt>
      <trkpt lat="44.72824" lon="1.92448">
        <ele>346.21</ele>
        <time>2020-07-13T07:02:23Z</time>
      </trkpt>
      <trkpt lat="44.7282" lon="1.92426">
        <ele>347.65</ele>
        <time>2020-07-13T07:02:37Z</time>
      </trkpt>
      <trkpt lat="44.72832" lon="1.92396">
        <ele>346.69</ele>
        <time>2020-07-13T07:02:54Z</time>
      </trkpt>
      <trkpt lat="44.72833" lon="1.92386">
        <ele>347.17</ele>
        <time>2020-07-13T07:03:00Z</time>
      </trkpt>
      <trkpt lat="44.72834" lon="1.92369">
        <ele>347.17</ele>
        <time>2020-07-13T07:03:10Z</time>
      </trkpt>
      <trkpt lat="44.72835" lon="1.92368">
        <ele>347.17</ele>
        <time>2020-07-13T07:03:11Z</time>
      </trkpt>
      <trkpt lat="44.72835" lon="1.92366">
        <ele>347.17</ele>
        <time>2020-07-13T07:03:12Z</time>
      </trkpt>
      <trkpt lat="44.72836" lon="1.92362">
        <ele>348.62</ele>
        <time>2020-07-13T07:03:14Z</time>
      </trkpt>
      <trkpt lat="44.72839" lon="1.92321">
        <ele>348.62</ele>
        <time>2020-07-13T07:03:34Z</time>
      </trkpt>
      <trkpt lat="44.72845" lon="1.9229">
        <ele>348.13</ele>
        <time>2020-07-13T07:03:52Z</time>
      </trkpt>
      <trkpt lat="44.72847" lon="1.92284">
        <ele>349.58</ele>
        <time>2020-07-13T07:03:56Z</time>
      </trkpt>
      <trkpt lat="44.72855" lon="1.92259">
        <ele>348.62</ele>
        <time>2020-07-13T07:04:13Z</time>
      </trkpt>
      <trkpt lat="44.72856" lon="1.92255">
        <ele>350.06</ele>
        <time>2020-07-13T07:04:15Z</time>
      </trkpt>
      <trkpt lat="44.72855" lon="1.92248">
        <ele>348.62</ele>
        <time>2020-07-13T07:04:19Z</time>
      </trkpt>
      <trkpt lat="44.72843" lon="1.92224">
        <ele>348.62</ele>
        <time>2020-07-13T07:04:37Z</time>
      </trkpt>
      <trkpt lat="44.7284" lon="1.92218">
        <ele>349.1</ele>
        <time>2020-07-13T07:04:41Z</time>
      </trkpt>
      <trkpt lat="44.72835" lon="1.92209">
        <ele>350.06</ele>
        <time>2020-07-13T07:04:47Z</time>
      </trkpt>
      <trkpt lat="44.72824" lon="1.92177">
        <ele>348.62</ele>
        <time>2020-07-13T07:05:08Z</time>
      </trkpt>
      <trkpt lat="44.72823" lon="1.92173">
        <ele>350.06</ele>
        <time>2020-07-13T07:05:10Z</time>
      </trkpt>
      <trkpt lat="44.72807" lon="1.92142">
        <ele>350.06</ele>
        <time>2020-07-13T07:05:29Z</time>
      </trkpt>
      <trkpt lat="44.72807" lon="1.9214">
        <ele>350.06</ele>
        <time>2020-07-13T07:05:30Z</time>
      </trkpt>
      <trkpt lat="44.72806" lon="1.92137">
        <ele>348.62</ele>
        <time>2020-07-13T07:05:32Z</time>
      </trkpt>
      <trkpt lat="44.72805" lon="1.92135">
        <ele>348.62</ele>
        <time>2020-07-13T07:05:33Z</time>
      </trkpt>
      <trkpt lat="44.728" lon="1.9211">
        <ele>348.62</ele>
        <time>2020-07-13T07:05:49Z</time>
      </trkpt>
      <trkpt lat="44.72792" lon="1.92088">
        <ele>348.13</ele>
        <time>2020-07-13T07:06:03Z</time>
      </trkpt>
      <trkpt lat="44.72791" lon="1.92084">
        <ele>349.58</ele>
        <time>2020-07-13T07:06:05Z</time>
      </trkpt>
      <trkpt lat="44.72777" lon="1.9205">
        <ele>348.62</ele>
        <time>2020-07-13T07:06:24Z</time>
      </trkpt>
      <trkpt lat="44.72768" lon="1.92048">
        <ele>350.06</ele>
        <time>2020-07-13T07:06:26Z</time>
      </trkpt>
      <trkpt lat="44.7276" lon="1.9204">
        <ele>350.06</ele>
        <time>2020-07-13T07:06:32Z</time>
      </trkpt>
      <trkpt lat="44.72758" lon="1.92038">
        <ele>350.06</ele>
        <time>2020-07-13T07:06:33Z</time>
      </trkpt>
      <trkpt lat="44.72757" lon="1.92037">
        <ele>350.06</ele>
        <time>2020-07-13T07:06:34Z</time>
      </trkpt>
      <trkpt lat="44.72756" lon="1.92036">
        <ele>350.06</ele>
        <time>2020-07-13T07:06:35Z</time>
      </trkpt>
      <trkpt lat="44.72756" lon="1.92035">
        <ele>350.06</ele>
        <time>2020-07-13T07:06:36Z</time>
      </trkpt>
      <trkpt lat="44.72755" lon="1.92033">
        <ele>350.06</ele>
        <time>2020-07-13T07:06:37Z</time>
      </trkpt>
      <trkpt lat="44.72753" lon="1.92031">
        <ele>350.54</ele>
        <time>2020-07-13T07:06:38Z</time>
      </trkpt>
      <trkpt lat="44.72751" lon="1.92029">
        <ele>350.54</ele>
        <time>2020-07-13T07:06:39Z</time>
      </trkpt>
      <trkpt lat="44.7275" lon="1.92028">
        <ele>350.54</ele>
        <time>2020-07-13T07:06:40Z</time>
      </trkpt>
      <trkpt lat="44.7274" lon="1.92004">
        <ele>350.54</ele>
        <time>2020-07-13T07:06:55Z</time>
      </trkpt>
      <trkpt lat="44.72727" lon="1.91973">
        <ele>351.02</ele>
        <time>2020-07-13T07:07:14Z</time>
      </trkpt>
      <trkpt lat="44.72713" lon="1.91946">
        <ele>351.02</ele>
        <time>2020-07-13T07:07:32Z</time>
      </trkpt>
      <trkpt lat="44.72708" lon="1.91934">
        <ele>349.58</ele>
        <time>2020-07-13T07:07:39Z</time>
      </trkpt>
      <trkpt lat="44.72695" lon="1.91903">
        <ele>349.58</ele>
        <time>2020-07-13T07:08:01Z</time>
      </trkpt>
      <trkpt lat="44.72686" lon="1.91893">
        <ele>349.58</ele>
        <time>2020-07-13T07:08:15Z</time>
      </trkpt>
      <trkpt lat="44.72679" lon="1.91874">
        <ele>350.06</ele>
        <time>2020-07-13T07:08:29Z</time>
      </trkpt>
      <trkpt lat="44.72659" lon="1.91851">
        <ele>349.58</ele>
        <time>2020-07-13T07:08:49Z</time>
      </trkpt>
      <trkpt lat="44.72654" lon="1.91845">
        <ele>351.02</ele>
        <time>2020-07-13T07:08:55Z</time>
      </trkpt>
      <trkpt lat="44.72653" lon="1.91844">
        <ele>351.02</ele>
        <time>2020-07-13T07:08:56Z</time>
      </trkpt>
      <trkpt lat="44.72652" lon="1.91842">
        <ele>351.02</ele>
        <time>2020-07-13T07:08:57Z</time>
      </trkpt>
      <trkpt lat="44.72647" lon="1.91836">
        <ele>349.58</ele>
        <time>2020-07-13T07:09:02Z</time>
      </trkpt>
      <trkpt lat="44.72638" lon="1.91824">
        <ele>351.02</ele>
        <time>2020-07-13T07:09:15Z</time>
      </trkpt>
      <trkpt lat="44.72631" lon="1.91817">
        <ele>350.06</ele>
        <time>2020-07-13T07:09:22Z</time>
      </trkpt>
      <trkpt lat="44.72613" lon="1.91789">
        <ele>349.1</ele>
        <time>2020-07-13T07:09:43Z</time>
      </trkpt>
      <trkpt lat="44.72593" lon="1.91756">
        <ele>348.62</ele>
        <time>2020-07-13T07:10:07Z</time>
      </trkpt>
      <trkpt lat="44.72573" lon="1.91724">
        <ele>347.17</ele>
        <time>2020-07-13T07:10:32Z</time>
      </trkpt>
      <trkpt lat="44.72554" lon="1.91692">
        <ele>345.73</ele>
        <time>2020-07-13T07:10:54Z</time>
      </trkpt>
      <trkpt lat="44.72538" lon="1.91666">
        <ele>345.25</ele>
        <time>2020-07-13T07:11:13Z</time>
      </trkpt>
      <trkpt lat="44.72522" lon="1.91649">
        <ele>345.73</ele>
        <time>2020-07-13T07:11:31Z</time>
      </trkpt>
      <trkpt lat="44.72507" lon="1.91627">
        <ele>345.73</ele>
        <time>2020-07-13T07:11:51Z</time>
      </trkpt>
      <trkpt lat="44.72486" lon="1.91599">
        <ele>345.73</ele>
        <time>2020-07-13T07:12:13Z</time>
      </trkpt>
      <trkpt lat="44.7247" lon="1.91583">
        <ele>347.17</ele>
        <time>2020-07-13T07:12:28Z</time>
      </trkpt>
      <trkpt lat="44.72452" lon="1.91566">
        <ele>347.65</ele>
        <time>2020-07-13T07:12:44Z</time>
      </trkpt>
      <trkpt lat="44.72435" lon="1.91548">
        <ele>348.13</ele>
        <time>2020-07-13T07:13:00Z</time>
      </trkpt>
      <trkpt lat="44.7241" lon="1.91522">
        <ele>348.62</ele>
        <time>2020-07-13T07:13:25Z</time>
      </trkpt>
      <trkpt lat="44.72388" lon="1.91496">
        <ele>349.1</ele>
        <time>2020-07-13T07:13:48Z</time>
      </trkpt>
      <trkpt lat="44.72367" lon="1.91472">
        <ele>350.06</ele>
        <time>2020-07-13T07:14:10Z</time>
      </trkpt>
      <trkpt lat="44.72343" lon="1.91448">
        <ele>351.02</ele>
        <time>2020-07-13T07:14:35Z</time>
      </trkpt>
      <trkpt lat="44.72325" lon="1.91433">
        <ele>350.06</ele>
        <time>2020-07-13T07:14:53Z</time>
      </trkpt>
      <trkpt lat="44.72324" lon="1.91432">
        <ele>350.06</ele>
        <time>2020-07-13T07:14:54Z</time>
      </trkpt>
      <trkpt lat="44.72302" lon="1.91412">
        <ele>348.62</ele>
        <time>2020-07-13T07:15:16Z</time>
      </trkpt>
      <trkpt lat="44.72297" lon="1.9141">
        <ele>347.65</ele>
        <time>2020-07-13T07:15:21Z</time>
      </trkpt>
      <trkpt lat="44.72276" lon="1.91395">
        <ele>347.17</ele>
        <time>2020-07-13T07:15:39Z</time>
      </trkpt>
      <trkpt lat="44.72266" lon="1.91384">
        <ele>345.73</ele>
        <time>2020-07-13T07:15:50Z</time>
      </trkpt>
      <trkpt lat="44.72246" lon="1.91362">
        <ele>344.77</ele>
        <time>2020-07-13T07:16:12Z</time>
      </trkpt>
      <trkpt lat="44.72229" lon="1.91333">
        <ele>345.25</ele>
        <time>2020-07-13T07:16:32Z</time>
      </trkpt>
      <trkpt lat="44.72226" lon="1.9133">
        <ele>343.81</ele>
        <time>2020-07-13T07:16:36Z</time>
      </trkpt>
      <trkpt lat="44.72214" lon="1.9131">
        <ele>344.29</ele>
        <time>2020-07-13T07:16:51Z</time>
      </trkpt>
      <trkpt lat="44.72196" lon="1.91287">
        <ele>344.77</ele>
        <time>2020-07-13T07:17:12Z</time>
      </trkpt>
      <trkpt lat="44.72179" lon="1.91261">
        <ele>344.77</ele>
        <time>2020-07-13T07:17:32Z</time>
      </trkpt>
      <trkpt lat="44.72172" lon="1.91245">
        <ele>345.25</ele>
        <time>2020-07-13T07:17:43Z</time>
      </trkpt>
      <trkpt lat="44.72163" lon="1.91223">
        <ele>345.73</ele>
        <time>2020-07-13T07:17:59Z</time>
      </trkpt>
      <trkpt lat="44.72157" lon="1.91196">
        <ele>346.21</ele>
        <time>2020-07-13T07:18:18Z</time>
      </trkpt>
      <trkpt lat="44.72156" lon="1.91191">
        <ele>347.65</ele>
        <time>2020-07-13T07:18:22Z</time>
      </trkpt>
      <trkpt lat="44.72149" lon="1.91161">
        <ele>349.1</ele>
        <time>2020-07-13T07:18:43Z</time>
      </trkpt>
      <trkpt lat="44.72141" lon="1.91135">
        <ele>350.54</ele>
        <time>2020-07-13T07:19:02Z</time>
      </trkpt>
      <trkpt lat="44.72134" lon="1.91108">
        <ele>351.98</ele>
        <time>2020-07-13T07:19:21Z</time>
      </trkpt>
      <trkpt lat="44.72129" lon="1.91081">
        <ele>354.38</ele>
        <time>2020-07-13T07:19:41Z</time>
      </trkpt>
      <trkpt lat="44.72122" lon="1.91055">
        <ele>355.83</ele>
        <time>2020-07-13T07:20:01Z</time>
      </trkpt>
      <trkpt lat="44.72115" lon="1.91018">
        <ele>358.23</ele>
        <time>2020-07-13T07:20:23Z</time>
      </trkpt>
      <trkpt lat="44.7211" lon="1.9099">
        <ele>360.63</ele>
        <time>2020-07-13T07:20:42Z</time>
      </trkpt>
      <trkpt lat="44.72107" lon="1.90964">
        <ele>362.07</ele>
        <time>2020-07-13T07:21:04Z</time>
      </trkpt>
      <trkpt lat="44.721" lon="1.90941">
        <ele>364.96</ele>
        <time>2020-07-13T07:21:26Z</time>
      </trkpt>
      <trkpt lat="44.72099" lon="1.90922">
        <ele>366.4</ele>
        <time>2020-07-13T07:21:46Z</time>
      </trkpt>
      <trkpt lat="44.7209" lon="1.90888">
        <ele>368.8</ele>
        <time>2020-07-13T07:22:08Z</time>
      </trkpt>
      <trkpt lat="44.72086" lon="1.90877">
        <ele>369.76</ele>
        <time>2020-07-13T07:22:15Z</time>
      </trkpt>
      <trkpt lat="44.72084" lon="1.90871">
        <ele>370.24</ele>
        <time>2020-07-13T07:22:19Z</time>
      </trkpt>
      <trkpt lat="44.72073" lon="1.90843">
        <ele>372.17</ele>
        <time>2020-07-13T07:22:40Z</time>
      </trkpt>
      <trkpt lat="44.72058" lon="1.9082">
        <ele>373.61</ele>
        <time>2020-07-13T07:23:02Z</time>
      </trkpt>
      <trkpt lat="44.72057" lon="1.90823">
        <ele>373.61</ele>
        <time>2020-07-13T07:23:31Z</time>
      </trkpt>
      <trkpt lat="44.72051" lon="1.90812">
        <ele>373.61</ele>
        <time>2020-07-13T07:23:53Z</time>
      </trkpt>
      <trkpt lat="44.72043" lon="1.90776">
        <ele>375.05</ele>
        <time>2020-07-13T07:24:14Z</time>
      </trkpt>
      <trkpt lat="44.72034" lon="1.90744">
        <ele>376.49</ele>
        <time>2020-07-13T07:24:37Z</time>
      </trkpt>
      <trkpt lat="44.72025" lon="1.90723">
        <ele>378.42</ele>
        <time>2020-07-13T07:24:52Z</time>
      </trkpt>
      <trkpt lat="44.72025" lon="1.90719">
        <ele>378.42</ele>
        <time>2020-07-13T07:24:53Z</time>
      </trkpt>
      <trkpt lat="44.72024" lon="1.90715">
        <ele>378.42</ele>
        <time>2020-07-13T07:24:54Z</time>
      </trkpt>
      <trkpt lat="44.72025" lon="1.90693">
        <ele>379.38</ele>
        <time>2020-07-13T07:25:10Z</time>
      </trkpt>
      <trkpt lat="44.72025" lon="1.90667">
        <ele>381.78</ele>
        <time>2020-07-13T07:25:33Z</time>
      </trkpt>
      <trkpt lat="44.72025" lon="1.90643">
        <ele>384.66</ele>
        <time>2020-07-13T07:25:55Z</time>
      </trkpt>
      <trkpt lat="44.72025" lon="1.90614">
        <ele>386.11</ele>
        <time>2020-07-13T07:26:16Z</time>
      </trkpt>
      <trkpt lat="44.72021" lon="1.90581">
        <ele>386.59</ele>
        <time>2020-07-13T07:26:36Z</time>
      </trkpt>
      <trkpt lat="44.72019" lon="1.90546">
        <ele>383.7</ele>
        <time>2020-07-13T07:26:58Z</time>
      </trkpt>
      <trkpt lat="44.72016" lon="1.90505">
        <ele>381.3</ele>
        <time>2020-07-13T07:27:19Z</time>
      </trkpt>
      <trkpt lat="44.7201" lon="1.90467">
        <ele>379.38</ele>
        <time>2020-07-13T07:27:41Z</time>
      </trkpt>
      <trkpt lat="44.72006" lon="1.90426">
        <ele>376.01</ele>
        <time>2020-07-13T07:28:07Z</time>
      </trkpt>
      <trkpt lat="44.72005" lon="1.90394">
        <ele>374.57</ele>
        <time>2020-07-13T07:28:28Z</time>
      </trkpt>
      <trkpt lat="44.72004" lon="1.9036">
        <ele>372.65</ele>
        <time>2020-07-13T07:28:49Z</time>
      </trkpt>
      <trkpt lat="44.72003" lon="1.90348">
        <ele>371.69</ele>
        <time>2020-07-13T07:28:57Z</time>
      </trkpt>
      <trkpt lat="44.71999" lon="1.90316">
        <ele>370.73</ele>
        <time>2020-07-13T07:29:17Z</time>
      </trkpt>
      <trkpt lat="44.71994" lon="1.90306">
        <ele>369.76</ele>
        <time>2020-07-13T07:29:25Z</time>
      </trkpt>
      <trkpt lat="44.71983" lon="1.90271">
        <ele>367.84</ele>
        <time>2020-07-13T07:29:49Z</time>
      </trkpt>
      <trkpt lat="44.71981" lon="1.9024">
        <ele>366.4</ele>
        <time>2020-07-13T07:30:09Z</time>
      </trkpt>
      <trkpt lat="44.71979" lon="1.90218">
        <ele>365.44</ele>
        <time>2020-07-13T07:30:21Z</time>
      </trkpt>
      <trkpt lat="44.71976" lon="1.90181">
        <ele>364.48</ele>
        <time>2020-07-13T07:30:43Z</time>
      </trkpt>
      <trkpt lat="44.71977" lon="1.90178">
        <ele>364.48</ele>
        <time>2020-07-13T07:30:45Z</time>
      </trkpt>
      <trkpt lat="44.71975" lon="1.90156">
        <ele>364</ele>
        <time>2020-07-13T07:31:00Z</time>
      </trkpt>
      <trkpt lat="44.71975" lon="1.90115">
        <ele>364</ele>
        <time>2020-07-13T07:31:22Z</time>
      </trkpt>
      <trkpt lat="44.71981" lon="1.90093">
        <ele>364</ele>
        <time>2020-07-13T07:31:40Z</time>
      </trkpt>
      <trkpt lat="44.7198" lon="1.90058">
        <ele>365.44</ele>
        <time>2020-07-13T07:32:03Z</time>
      </trkpt>
      <trkpt lat="44.71981" lon="1.90026">
        <ele>365.92</ele>
        <time>2020-07-13T07:32:22Z</time>
      </trkpt>
      <trkpt lat="44.71987" lon="1.89992">
        <ele>365.92</ele>
        <time>2020-07-13T07:32:43Z</time>
      </trkpt>
      <trkpt lat="44.71981" lon="1.89952">
        <ele>366.88</ele>
        <time>2020-07-13T07:33:06Z</time>
      </trkpt>
      <trkpt lat="44.71972" lon="1.89915">
        <ele>367.84</ele>
        <time>2020-07-13T07:33:27Z</time>
      </trkpt>
      <trkpt lat="44.71961" lon="1.89881">
        <ele>370.73</ele>
        <time>2020-07-13T07:33:49Z</time>
      </trkpt>
      <trkpt lat="44.71956" lon="1.8986">
        <ele>372.17</ele>
        <time>2020-07-13T07:34:07Z</time>
      </trkpt>
      <trkpt lat="44.71952" lon="1.89835">
        <ele>374.09</ele>
        <time>2020-07-13T07:34:27Z</time>
      </trkpt>
      <trkpt lat="44.71951" lon="1.89816">
        <ele>376.01</ele>
        <time>2020-07-13T07:34:45Z</time>
      </trkpt>
      <trkpt lat="44.71955" lon="1.89797">
        <ele>377.45</ele>
        <time>2020-07-13T07:35:02Z</time>
      </trkpt>
      <trkpt lat="44.71956" lon="1.89773">
        <ele>378.9</ele>
        <time>2020-07-13T07:35:22Z</time>
      </trkpt>
      <trkpt lat="44.71957" lon="1.89748">
        <ele>380.82</ele>
        <time>2020-07-13T07:35:45Z</time>
      </trkpt>
      <trkpt lat="44.71959" lon="1.89722">
        <ele>382.26</ele>
        <time>2020-07-13T07:36:06Z</time>
      </trkpt>
      <trkpt lat="44.71953" lon="1.89686">
        <ele>382.74</ele>
        <time>2020-07-13T07:36:28Z</time>
      </trkpt>
      <trkpt lat="44.71951" lon="1.89683">
        <ele>382.74</ele>
        <time>2020-07-13T07:36:47Z</time>
      </trkpt>
      <trkpt lat="44.71947" lon="1.89663">
        <ele>382.26</ele>
        <time>2020-07-13T07:37:05Z</time>
      </trkpt>
      <trkpt lat="44.71946" lon="1.8966">
        <ele>382.26</ele>
        <time>2020-07-13T07:37:07Z</time>
      </trkpt>
      <trkpt lat="44.71941" lon="1.89624">
        <ele>382.74</ele>
        <time>2020-07-13T07:37:30Z</time>
      </trkpt>
      <trkpt lat="44.7194" lon="1.89616">
        <ele>381.3</ele>
        <time>2020-07-13T07:37:36Z</time>
      </trkpt>
      <trkpt lat="44.7194" lon="1.89596">
        <ele>380.82</ele>
        <time>2020-07-13T07:37:56Z</time>
      </trkpt>
      <trkpt lat="44.71947" lon="1.89562">
        <ele>380.34</ele>
        <time>2020-07-13T07:38:18Z</time>
      </trkpt>
      <trkpt lat="44.71948" lon="1.89555">
        <ele>380.34</ele>
        <time>2020-07-13T07:38:22Z</time>
      </trkpt>
      <trkpt lat="44.71948" lon="1.89553">
        <ele>380.34</ele>
        <time>2020-07-13T07:38:23Z</time>
      </trkpt>
      <trkpt lat="44.71951" lon="1.89527">
        <ele>379.86</ele>
        <time>2020-07-13T07:38:37Z</time>
      </trkpt>
      <trkpt lat="44.71951" lon="1.89525">
        <ele>379.86</ele>
        <time>2020-07-13T07:38:38Z</time>
      </trkpt>
      <trkpt lat="44.71955" lon="1.89493">
        <ele>378.9</ele>
        <time>2020-07-13T07:38:58Z</time>
      </trkpt>
      <trkpt lat="44.71958" lon="1.89462">
        <ele>378.42</ele>
        <time>2020-07-13T07:39:18Z</time>
      </trkpt>
      <trkpt lat="44.7196" lon="1.89436">
        <ele>378.42</ele>
        <time>2020-07-13T07:39:36Z</time>
      </trkpt>
      <trkpt lat="44.71963" lon="1.89398">
        <ele>378.42</ele>
        <time>2020-07-13T07:40:00Z</time>
      </trkpt>
      <trkpt lat="44.71966" lon="1.89387">
        <ele>378.42</ele>
        <time>2020-07-13T07:40:07Z</time>
      </trkpt>
      <trkpt lat="44.71976" lon="1.89358">
        <ele>376.97</ele>
        <time>2020-07-13T07:40:28Z</time>
      </trkpt>
      <trkpt lat="44.71981" lon="1.89324">
        <ele>376.01</ele>
        <time>2020-07-13T07:40:49Z</time>
      </trkpt>
      <trkpt lat="44.71981" lon="1.89292">
        <ele>376.49</ele>
        <time>2020-07-13T07:41:11Z</time>
      </trkpt>
      <trkpt lat="44.71985" lon="1.89262">
        <ele>376.49</ele>
        <time>2020-07-13T07:41:31Z</time>
      </trkpt>
      <trkpt lat="44.71986" lon="1.89257">
        <ele>377.94</ele>
        <time>2020-07-13T07:41:34Z</time>
      </trkpt>
      <trkpt lat="44.71987" lon="1.89223">
        <ele>379.38</ele>
        <time>2020-07-13T07:41:56Z</time>
      </trkpt>
      <trkpt lat="44.7199" lon="1.89194">
        <ele>379.38</ele>
        <time>2020-07-13T07:42:16Z</time>
      </trkpt>
      <trkpt lat="44.71993" lon="1.89164">
        <ele>378.42</ele>
        <time>2020-07-13T07:42:35Z</time>
      </trkpt>
      <trkpt lat="44.71997" lon="1.89132">
        <ele>377.94</ele>
        <time>2020-07-13T07:42:54Z</time>
      </trkpt>
      <trkpt lat="44.72005" lon="1.89103">
        <ele>377.45</ele>
        <time>2020-07-13T07:43:13Z</time>
      </trkpt>
      <trkpt lat="44.72014" lon="1.89077">
        <ele>376.01</ele>
        <time>2020-07-13T07:43:30Z</time>
      </trkpt>
      <trkpt lat="44.72023" lon="1.89053">
        <ele>376.49</ele>
        <time>2020-07-13T07:43:50Z</time>
      </trkpt>
      <trkpt lat="44.72028" lon="1.89033">
        <ele>375.53</ele>
        <time>2020-07-13T07:44:05Z</time>
      </trkpt>
      <trkpt lat="44.72041" lon="1.89003">
        <ele>375.05</ele>
        <time>2020-07-13T07:44:24Z</time>
      </trkpt>
      <trkpt lat="44.72043" lon="1.88998">
        <ele>375.05</ele>
        <time>2020-07-13T07:44:27Z</time>
      </trkpt>
      <trkpt lat="44.72043" lon="1.88996">
        <ele>375.05</ele>
        <time>2020-07-13T07:44:28Z</time>
      </trkpt>
      <trkpt lat="44.72054" lon="1.88968">
        <ele>374.57</ele>
        <time>2020-07-13T07:44:46Z</time>
      </trkpt>
      <trkpt lat="44.72067" lon="1.88935">
        <ele>374.09</ele>
        <time>2020-07-13T07:45:07Z</time>
      </trkpt>
      <trkpt lat="44.72072" lon="1.88924">
        <ele>374.09</ele>
        <time>2020-07-13T07:45:16Z</time>
      </trkpt>
      <trkpt lat="44.72073" lon="1.88921">
        <ele>373.61</ele>
        <time>2020-07-13T07:45:18Z</time>
      </trkpt>
      <trkpt lat="44.72082" lon="1.88892">
        <ele>373.61</ele>
        <time>2020-07-13T07:45:37Z</time>
      </trkpt>
      <trkpt lat="44.72092" lon="1.88863">
        <ele>373.61</ele>
        <time>2020-07-13T07:45:57Z</time>
      </trkpt>
      <trkpt lat="44.72103" lon="1.8883">
        <ele>373.61</ele>
        <time>2020-07-13T07:46:18Z</time>
      </trkpt>
      <trkpt lat="44.7211" lon="1.88794">
        <ele>373.13</ele>
        <time>2020-07-13T07:46:39Z</time>
      </trkpt>
      <trkpt lat="44.72116" lon="1.88759">
        <ele>372.17</ele>
        <time>2020-07-13T07:47:01Z</time>
      </trkpt>
      <trkpt lat="44.7212" lon="1.88722">
        <ele>370.24</ele>
        <time>2020-07-13T07:47:24Z</time>
      </trkpt>
      <trkpt lat="44.72123" lon="1.88687">
        <ele>369.28</ele>
        <time>2020-07-13T07:47:44Z</time>
      </trkpt>
      <trkpt lat="44.72125" lon="1.88658">
        <ele>367.36</ele>
        <time>2020-07-13T07:48:06Z</time>
      </trkpt>
      <trkpt lat="44.72125" lon="1.88618">
        <ele>364.48</ele>
        <time>2020-07-13T07:48:26Z</time>
      </trkpt>
      <trkpt lat="44.72123" lon="1.88587">
        <ele>363.04</ele>
        <time>2020-07-13T07:48:43Z</time>
      </trkpt>
      <trkpt lat="44.72128" lon="1.88548">
        <ele>362.07</ele>
        <time>2020-07-13T07:49:05Z</time>
      </trkpt>
      <trkpt lat="44.72129" lon="1.88526">
        <ele>361.11</ele>
        <time>2020-07-13T07:49:18Z</time>
      </trkpt>
      <trkpt lat="44.72129" lon="1.88524">
        <ele>361.11</ele>
        <time>2020-07-13T07:49:19Z</time>
      </trkpt>
      <trkpt lat="44.72132" lon="1.88495">
        <ele>360.15</ele>
        <time>2020-07-13T07:49:35Z</time>
      </trkpt>
      <trkpt lat="44.72129" lon="1.88462">
        <ele>359.19</ele>
        <time>2020-07-13T07:49:56Z</time>
      </trkpt>
      <trkpt lat="44.72124" lon="1.88452">
        <ele>359.19</ele>
        <time>2020-07-13T07:50:03Z</time>
      </trkpt>
      <trkpt lat="44.72123" lon="1.88451">
        <ele>358.71</ele>
        <time>2020-07-13T07:50:04Z</time>
      </trkpt>
      <trkpt lat="44.72122" lon="1.88449">
        <ele>358.71</ele>
        <time>2020-07-13T07:50:05Z</time>
      </trkpt>
      <trkpt lat="44.72104" lon="1.8843">
        <ele>358.71</ele>
        <time>2020-07-13T07:50:24Z</time>
      </trkpt>
      <trkpt lat="44.72088" lon="1.88411">
        <ele>357.75</ele>
        <time>2020-07-13T07:50:41Z</time>
      </trkpt>
      <trkpt lat="44.72082" lon="1.88402">
        <ele>357.75</ele>
        <time>2020-07-13T07:50:49Z</time>
      </trkpt>
      <trkpt lat="44.72074" lon="1.88389">
        <ele>357.27</ele>
        <time>2020-07-13T07:50:59Z</time>
      </trkpt>
      <trkpt lat="44.7207" lon="1.88379">
        <ele>357.27</ele>
        <time>2020-07-13T07:51:08Z</time>
      </trkpt>
      <trkpt lat="44.72069" lon="1.88378">
        <ele>357.27</ele>
        <time>2020-07-13T07:51:09Z</time>
      </trkpt>
      <trkpt lat="44.72063" lon="1.88367">
        <ele>356.79</ele>
        <time>2020-07-13T07:51:17Z</time>
      </trkpt>
      <trkpt lat="44.72061" lon="1.88351">
        <ele>356.79</ele>
        <time>2020-07-13T07:51:26Z</time>
      </trkpt>
      <trkpt lat="44.72068" lon="1.88314">
        <ele>355.83</ele>
        <time>2020-07-13T07:51:50Z</time>
      </trkpt>
      <trkpt lat="44.72072" lon="1.88296">
        <ele>355.83</ele>
        <time>2020-07-13T07:52:08Z</time>
      </trkpt>
      <trkpt lat="44.72083" lon="1.8827">
        <ele>355.34</ele>
        <time>2020-07-13T07:52:29Z</time>
      </trkpt>
      <trkpt lat="44.72088" lon="1.8825">
        <ele>354.38</ele>
        <time>2020-07-13T07:52:41Z</time>
      </trkpt>
      <trkpt lat="44.72104" lon="1.8822">
        <ele>352.94</ele>
        <time>2020-07-13T07:53:00Z</time>
      </trkpt>
      <trkpt lat="44.72113" lon="1.88202">
        <ele>351.98</ele>
        <time>2020-07-13T07:53:13Z</time>
      </trkpt>
      <trkpt lat="44.72119" lon="1.88187">
        <ele>351.98</ele>
        <time>2020-07-13T07:53:26Z</time>
      </trkpt>
      <trkpt lat="44.7212" lon="1.88181">
        <ele>351.5</ele>
        <time>2020-07-13T07:53:31Z</time>
      </trkpt>
      <trkpt lat="44.72121" lon="1.88179">
        <ele>351.5</ele>
        <time>2020-07-13T07:53:32Z</time>
      </trkpt>
      <trkpt lat="44.72121" lon="1.88177">
        <ele>351.5</ele>
        <time>2020-07-13T07:53:33Z</time>
      </trkpt>
      <trkpt lat="44.72122" lon="1.88176">
        <ele>351.5</ele>
        <time>2020-07-13T07:53:34Z</time>
      </trkpt>
      <trkpt lat="44.72122" lon="1.88174">
        <ele>351.5</ele>
        <time>2020-07-13T07:53:35Z</time>
      </trkpt>
      <trkpt lat="44.72132" lon="1.88149">
        <ele>350.06</ele>
        <time>2020-07-13T07:53:53Z</time>
      </trkpt>
      <trkpt lat="44.7214" lon="1.8813">
        <ele>350.54</ele>
        <time>2020-07-13T07:54:06Z</time>
      </trkpt>
      <trkpt lat="44.72145" lon="1.88121">
        <ele>348.62</ele>
        <time>2020-07-13T07:54:13Z</time>
      </trkpt>
      <trkpt lat="44.72152" lon="1.88102">
        <ele>349.58</ele>
        <time>2020-07-13T07:54:25Z</time>
      </trkpt>
      <trkpt lat="44.72158" lon="1.88092">
        <ele>348.13</ele>
        <time>2020-07-13T07:54:33Z</time>
      </trkpt>
      <trkpt lat="44.72174" lon="1.88081">
        <ele>347.17</ele>
        <time>2020-07-13T07:54:49Z</time>
      </trkpt>
      <trkpt lat="44.72193" lon="1.88069">
        <ele>345.25</ele>
        <time>2020-07-13T07:55:08Z</time>
      </trkpt>
      <trkpt lat="44.72209" lon="1.88061">
        <ele>345.25</ele>
        <time>2020-07-13T07:55:26Z</time>
      </trkpt>
      <trkpt lat="44.72233" lon="1.88043">
        <ele>344.77</ele>
        <time>2020-07-13T07:55:48Z</time>
      </trkpt>
      <trkpt lat="44.72245" lon="1.88036">
        <ele>344.77</ele>
        <time>2020-07-13T07:56:07Z</time>
      </trkpt>
      <trkpt lat="44.72249" lon="1.88032">
        <ele>344.29</ele>
        <time>2020-07-13T07:56:27Z</time>
      </trkpt>
      <trkpt lat="44.7226" lon="1.88027">
        <ele>344.29</ele>
        <time>2020-07-13T07:56:48Z</time>
      </trkpt>
      <trkpt lat="44.7228" lon="1.88029">
        <ele>343.33</ele>
        <time>2020-07-13T07:57:07Z</time>
      </trkpt>
      <trkpt lat="44.72284" lon="1.88035">
        <ele>343.33</ele>
        <time>2020-07-13T07:57:27Z</time>
      </trkpt>
      <trkpt lat="44.72296" lon="1.88051">
        <ele>343.33</ele>
        <time>2020-07-13T07:57:48Z</time>
      </trkpt>
      <trkpt lat="44.72305" lon="1.88059">
        <ele>343.33</ele>
        <time>2020-07-13T07:58:06Z</time>
      </trkpt>
      <trkpt lat="44.72307" lon="1.88055">
        <ele>343.81</ele>
        <time>2020-07-13T07:58:23Z</time>
      </trkpt>
      <trkpt lat="44.72297" lon="1.88042">
        <ele>343.81</ele>
        <time>2020-07-13T07:58:43Z</time>
      </trkpt>
      <trkpt lat="44.72289" lon="1.88037">
        <ele>343.81</ele>
        <time>2020-07-13T07:58:51Z</time>
      </trkpt>
      <trkpt lat="44.72273" lon="1.88019">
        <ele>344.29</ele>
        <time>2020-07-13T07:59:11Z</time>
      </trkpt>
      <trkpt lat="44.72269" lon="1.87998">
        <ele>344.29</ele>
        <time>2020-07-13T07:59:27Z</time>
      </trkpt>
      <trkpt lat="44.72281" lon="1.87999">
        <ele>343.33</ele>
        <time>2020-07-13T07:59:50Z</time>
      </trkpt>
      <trkpt lat="44.72286" lon="1.87996">
        <ele>343.33</ele>
        <time>2020-07-13T07:59:55Z</time>
      </trkpt>
      <trkpt lat="44.72295" lon="1.87973">
        <ele>343.33</ele>
        <time>2020-07-13T08:00:13Z</time>
      </trkpt>
      <trkpt lat="44.72292" lon="1.87972">
        <ele>343.33</ele>
        <time>2020-07-13T08:00:42Z</time>
      </trkpt>
      <trkpt lat="44.72298" lon="1.8796">
        <ele>343.33</ele>
        <time>2020-07-13T08:01:01Z</time>
      </trkpt>
      <trkpt lat="44.72297" lon="1.87959">
        <ele>344.77</ele>
        <time>2020-07-13T08:01:11Z</time>
      </trkpt>
      <trkpt lat="44.72306" lon="1.87948">
        <ele>345.25</ele>
        <time>2020-07-13T08:01:39Z</time>
      </trkpt>
      <trkpt lat="44.72316" lon="1.87917">
        <ele>346.21</ele>
        <time>2020-07-13T08:02:01Z</time>
      </trkpt>
      <trkpt lat="44.72331" lon="1.8789">
        <ele>347.65</ele>
        <time>2020-07-13T08:02:24Z</time>
      </trkpt>
      <trkpt lat="44.72335" lon="1.87885">
        <ele>348.13</ele>
        <time>2020-07-13T08:02:47Z</time>
      </trkpt>
      <trkpt lat="44.72337" lon="1.87881">
        <ele>348.13</ele>
        <time>2020-07-13T08:03:02Z</time>
      </trkpt>
      <trkpt lat="44.72343" lon="1.87871">
        <ele>349.1</ele>
        <time>2020-07-13T08:03:23Z</time>
      </trkpt>
      <trkpt lat="44.72351" lon="1.87856">
        <ele>349.58</ele>
        <time>2020-07-13T08:03:43Z</time>
      </trkpt>
      <trkpt lat="44.72356" lon="1.87852">
        <ele>350.06</ele>
        <time>2020-07-13T08:04:00Z</time>
      </trkpt>
      <trkpt lat="44.72355" lon="1.87845">
        <ele>350.06</ele>
        <time>2020-07-13T08:04:23Z</time>
      </trkpt>
      <trkpt lat="44.72363" lon="1.87837">
        <ele>351.02</ele>
        <time>2020-07-13T08:04:42Z</time>
      </trkpt>
      <trkpt lat="44.72382" lon="1.87815">
        <ele>352.94</ele>
        <time>2020-07-13T08:05:06Z</time>
      </trkpt>
      <trkpt lat="44.72402" lon="1.87796">
        <ele>354.38</ele>
        <time>2020-07-13T08:05:29Z</time>
      </trkpt>
      <trkpt lat="44.72412" lon="1.87779">
        <ele>354.86</ele>
        <time>2020-07-13T08:05:48Z</time>
      </trkpt>
      <trkpt lat="44.72414" lon="1.87779">
        <ele>354.86</ele>
        <time>2020-07-13T08:05:52Z</time>
      </trkpt>
      <trkpt lat="44.72417" lon="1.87779">
        <ele>354.86</ele>
        <time>2020-07-13T08:05:56Z</time>
      </trkpt>
      <trkpt lat="44.72417" lon="1.8778">
        <ele>354.86</ele>
        <time>2020-07-13T08:05:57Z</time>
      </trkpt>
      <trkpt lat="44.72418" lon="1.87781">
        <ele>354.86</ele>
        <time>2020-07-13T08:05:58Z</time>
      </trkpt>
      <trkpt lat="44.72419" lon="1.87783">
        <ele>354.86</ele>
        <time>2020-07-13T08:05:59Z</time>
      </trkpt>
      <trkpt lat="44.72419" lon="1.87783">
        <ele>354.86</ele>
        <time>2020-07-13T08:06:00Z</time>
      </trkpt>
      <trkpt lat="44.7242" lon="1.87784">
        <ele>354.86</ele>
        <time>2020-07-13T08:06:01Z</time>
      </trkpt>
      <trkpt lat="44.72421" lon="1.87785">
        <ele>354.86</ele>
        <time>2020-07-13T08:06:02Z</time>
      </trkpt>
      <trkpt lat="44.72422" lon="1.87786">
        <ele>354.86</ele>
        <time>2020-07-13T08:06:03Z</time>
      </trkpt>
      <trkpt lat="44.72436" lon="1.87797">
        <ele>355.83</ele>
        <time>2020-07-13T08:06:18Z</time>
      </trkpt>
      <trkpt lat="44.72453" lon="1.87811">
        <ele>357.27</ele>
        <time>2020-07-13T08:06:40Z</time>
      </trkpt>
      <trkpt lat="44.72472" lon="1.87825">
        <ele>358.23</ele>
        <time>2020-07-13T08:07:00Z</time>
      </trkpt>
      <trkpt lat="44.72493" lon="1.8784">
        <ele>359.19</ele>
        <time>2020-07-13T08:07:21Z</time>
      </trkpt>
      <trkpt lat="44.72514" lon="1.87841">
        <ele>360.63</ele>
        <time>2020-07-13T08:07:43Z</time>
      </trkpt>
      <trkpt lat="44.72517" lon="1.8784">
        <ele>360.63</ele>
        <time>2020-07-13T08:07:45Z</time>
      </trkpt>
      <trkpt lat="44.7254" lon="1.87839">
        <ele>362.55</ele>
        <time>2020-07-13T08:08:04Z</time>
      </trkpt>
      <trkpt lat="44.72558" lon="1.87845">
        <ele>364</ele>
        <time>2020-07-13T08:08:22Z</time>
      </trkpt>
      <trkpt lat="44.72576" lon="1.87854">
        <ele>365.44</ele>
        <time>2020-07-13T08:08:42Z</time>
      </trkpt>
      <trkpt lat="44.72592" lon="1.8786">
        <ele>367.36</ele>
        <time>2020-07-13T08:08:59Z</time>
      </trkpt>
      <trkpt lat="44.72614" lon="1.87871">
        <ele>368.8</ele>
        <time>2020-07-13T08:09:20Z</time>
      </trkpt>
      <trkpt lat="44.72627" lon="1.87885">
        <ele>371.69</ele>
        <time>2020-07-13T08:09:39Z</time>
      </trkpt>
      <trkpt lat="44.72646" lon="1.87898">
        <ele>373.61</ele>
        <time>2020-07-13T08:10:00Z</time>
      </trkpt>
      <trkpt lat="44.72657" lon="1.87907">
        <ele>374.57</ele>
        <time>2020-07-13T08:10:14Z</time>
      </trkpt>
      <trkpt lat="44.72658" lon="1.87908">
        <ele>376.01</ele>
        <time>2020-07-13T08:10:16Z</time>
      </trkpt>
      <trkpt lat="44.72672" lon="1.8792">
        <ele>376.97</ele>
        <time>2020-07-13T08:10:34Z</time>
      </trkpt>
      <trkpt lat="44.72693" lon="1.87929">
        <ele>378.9</ele>
        <time>2020-07-13T08:10:55Z</time>
      </trkpt>
      <trkpt lat="44.72702" lon="1.87929">
        <ele>380.34</ele>
        <time>2020-07-13T08:11:04Z</time>
      </trkpt>
      <trkpt lat="44.72707" lon="1.87931">
        <ele>378.9</ele>
        <time>2020-07-13T08:11:08Z</time>
      </trkpt>
      <trkpt lat="44.72714" lon="1.87931">
        <ele>380.82</ele>
        <time>2020-07-13T08:11:15Z</time>
      </trkpt>
      <trkpt lat="44.72733" lon="1.87927">
        <ele>381.78</ele>
        <time>2020-07-13T08:11:33Z</time>
      </trkpt>
      <trkpt lat="44.72755" lon="1.87922">
        <ele>382.74</ele>
        <time>2020-07-13T08:11:52Z</time>
      </trkpt>
      <trkpt lat="44.72775" lon="1.87913">
        <ele>383.7</ele>
        <time>2020-07-13T08:12:11Z</time>
      </trkpt>
      <trkpt lat="44.7279" lon="1.87891">
        <ele>385.15</ele>
        <time>2020-07-13T08:12:33Z</time>
      </trkpt>
      <trkpt lat="44.72803" lon="1.87867">
        <ele>387.55</ele>
        <time>2020-07-13T08:12:54Z</time>
      </trkpt>
      <trkpt lat="44.72816" lon="1.87841">
        <ele>389.47</ele>
        <time>2020-07-13T08:13:17Z</time>
      </trkpt>
      <trkpt lat="44.72826" lon="1.87812">
        <ele>391.39</ele>
        <time>2020-07-13T08:13:40Z</time>
      </trkpt>
      <trkpt lat="44.72829" lon="1.87786">
        <ele>393.8</ele>
        <time>2020-07-13T08:13:57Z</time>
      </trkpt>
      <trkpt lat="44.72829" lon="1.87778">
        <ele>393.8</ele>
        <time>2020-07-13T08:14:02Z</time>
      </trkpt>
      <trkpt lat="44.7283" lon="1.87769">
        <ele>394.76</ele>
        <time>2020-07-13T08:14:09Z</time>
      </trkpt>
      <trkpt lat="44.7283" lon="1.87767">
        <ele>394.76</ele>
        <time>2020-07-13T08:14:10Z</time>
      </trkpt>
      <trkpt lat="44.72832" lon="1.87757">
        <ele>394.76</ele>
        <time>2020-07-13T08:14:24Z</time>
      </trkpt>
      <trkpt lat="44.72835" lon="1.87755">
        <ele>394.76</ele>
        <time>2020-07-13T08:14:31Z</time>
      </trkpt>
      <trkpt lat="44.72836" lon="1.87754">
        <ele>394.76</ele>
        <time>2020-07-13T08:14:32Z</time>
      </trkpt>
      <trkpt lat="44.72838" lon="1.87753">
        <ele>394.76</ele>
        <time>2020-07-13T08:14:33Z</time>
      </trkpt>
      <trkpt lat="44.72852" lon="1.87743">
        <ele>396.2</ele>
        <time>2020-07-13T08:14:46Z</time>
      </trkpt>
      <trkpt lat="44.72868" lon="1.87735">
        <ele>396.68</ele>
        <time>2020-07-13T08:15:03Z</time>
      </trkpt>
      <trkpt lat="44.72889" lon="1.8772">
        <ele>398.12</ele>
        <time>2020-07-13T08:15:23Z</time>
      </trkpt>
      <trkpt lat="44.72908" lon="1.87707">
        <ele>399.08</ele>
        <time>2020-07-13T08:15:42Z</time>
      </trkpt>
      <trkpt lat="44.72926" lon="1.87697">
        <ele>400.05</ele>
        <time>2020-07-13T08:16:03Z</time>
      </trkpt>
      <trkpt lat="44.72931" lon="1.87696">
        <ele>400.05</ele>
        <time>2020-07-13T08:16:20Z</time>
      </trkpt>
      <trkpt lat="44.72932" lon="1.87696">
        <ele>400.05</ele>
        <time>2020-07-13T08:16:47Z</time>
      </trkpt>
      <trkpt lat="44.72926" lon="1.87693">
        <ele>400.05</ele>
        <time>2020-07-13T08:17:04Z</time>
      </trkpt>
      <trkpt lat="44.72928" lon="1.87694">
        <ele>400.53</ele>
        <time>2020-07-13T08:17:33Z</time>
      </trkpt>
      <trkpt lat="44.72927" lon="1.8769">
        <ele>400.53</ele>
        <time>2020-07-13T08:18:02Z</time>
      </trkpt>
      <trkpt lat="44.72927" lon="1.8769">
        <ele>400.53</ele>
        <time>2020-07-13T08:18:26Z</time>
      </trkpt>
      <trkpt lat="44.72929" lon="1.8769">
        <ele>400.53</ele>
        <time>2020-07-13T08:18:56Z</time>
      </trkpt>
      <trkpt lat="44.7293" lon="1.87695">
        <ele>400.53</ele>
        <time>2020-07-13T08:19:24Z</time>
      </trkpt>
      <trkpt lat="44.72929" lon="1.87694">
        <ele>400.53</ele>
        <time>2020-07-13T08:19:52Z</time>
      </trkpt>
      <trkpt lat="44.72945" lon="1.87684">
        <ele>400.53</ele>
        <time>2020-07-13T08:20:12Z</time>
      </trkpt>
      <trkpt lat="44.7297" lon="1.87668">
        <ele>401.97</ele>
        <time>2020-07-13T08:20:37Z</time>
      </trkpt>
      <trkpt lat="44.72996" lon="1.87653">
        <ele>402.93</ele>
        <time>2020-07-13T08:21:02Z</time>
      </trkpt>
      <trkpt lat="44.73016" lon="1.87642">
        <ele>404.85</ele>
        <time>2020-07-13T08:21:21Z</time>
      </trkpt>
      <trkpt lat="44.73037" lon="1.87632">
        <ele>405.33</ele>
        <time>2020-07-13T08:21:40Z</time>
      </trkpt>
      <trkpt lat="44.73057" lon="1.8762">
        <ele>406.77</ele>
        <time>2020-07-13T08:21:59Z</time>
      </trkpt>
      <trkpt lat="44.73076" lon="1.8761">
        <ele>408.7</ele>
        <time>2020-07-13T08:22:18Z</time>
      </trkpt>
      <trkpt lat="44.73095" lon="1.87598">
        <ele>409.18</ele>
        <time>2020-07-13T08:22:39Z</time>
      </trkpt>
      <trkpt lat="44.73115" lon="1.87583">
        <ele>410.14</ele>
        <time>2020-07-13T08:23:02Z</time>
      </trkpt>
      <trkpt lat="44.73138" lon="1.87566">
        <ele>411.1</ele>
        <time>2020-07-13T08:23:22Z</time>
      </trkpt>
      <trkpt lat="44.73159" lon="1.87551">
        <ele>411.1</ele>
        <time>2020-07-13T08:23:43Z</time>
      </trkpt>
      <trkpt lat="44.7318" lon="1.8754">
        <ele>412.06</ele>
        <time>2020-07-13T08:24:04Z</time>
      </trkpt>
      <trkpt lat="44.73205" lon="1.87526">
        <ele>412.54</ele>
        <time>2020-07-13T08:24:25Z</time>
      </trkpt>
      <trkpt lat="44.73228" lon="1.87506">
        <ele>413.02</ele>
        <time>2020-07-13T08:24:47Z</time>
      </trkpt>
      <trkpt lat="44.73246" lon="1.87491">
        <ele>413.5</ele>
        <time>2020-07-13T08:25:06Z</time>
      </trkpt>
      <trkpt lat="44.73254" lon="1.87484">
        <ele>413.5</ele>
        <time>2020-07-13T08:25:14Z</time>
      </trkpt>
      <trkpt lat="44.73275" lon="1.87469">
        <ele>413.98</ele>
        <time>2020-07-13T08:25:34Z</time>
      </trkpt>
      <trkpt lat="44.73299" lon="1.87456">
        <ele>413.98</ele>
        <time>2020-07-13T08:25:56Z</time>
      </trkpt>
      <trkpt lat="44.73321" lon="1.87442">
        <ele>413.98</ele>
        <time>2020-07-13T08:26:16Z</time>
      </trkpt>
      <trkpt lat="44.73336" lon="1.8743">
        <ele>414.47</ele>
        <time>2020-07-13T08:26:31Z</time>
      </trkpt>
      <trkpt lat="44.73339" lon="1.87427">
        <ele>413.02</ele>
        <time>2020-07-13T08:26:34Z</time>
      </trkpt>
      <trkpt lat="44.73345" lon="1.87428">
        <ele>413.02</ele>
        <time>2020-07-13T08:26:48Z</time>
      </trkpt>
      <trkpt lat="44.73347" lon="1.87426">
        <ele>413.02</ele>
        <time>2020-07-13T08:27:11Z</time>
      </trkpt>
      <trkpt lat="44.73364" lon="1.87412">
        <ele>413.98</ele>
        <time>2020-07-13T08:27:30Z</time>
      </trkpt>
      <trkpt lat="44.73387" lon="1.87403">
        <ele>413.5</ele>
        <time>2020-07-13T08:27:50Z</time>
      </trkpt>
      <trkpt lat="44.73389" lon="1.87403">
        <ele>414.95</ele>
        <time>2020-07-13T08:27:52Z</time>
      </trkpt>
      <trkpt lat="44.73409" lon="1.87402">
        <ele>414.95</ele>
        <time>2020-07-13T08:28:09Z</time>
      </trkpt>
      <trkpt lat="44.73413" lon="1.87403">
        <ele>413.5</ele>
        <time>2020-07-13T08:28:12Z</time>
      </trkpt>
      <trkpt lat="44.73436" lon="1.87404">
        <ele>411.58</ele>
        <time>2020-07-13T08:28:31Z</time>
      </trkpt>
      <trkpt lat="44.73444" lon="1.87405">
        <ele>411.1</ele>
        <time>2020-07-13T08:28:38Z</time>
      </trkpt>
      <trkpt lat="44.73456" lon="1.87406">
        <ele>411.1</ele>
        <time>2020-07-13T08:28:47Z</time>
      </trkpt>
      <trkpt lat="44.73478" lon="1.8741">
        <ele>410.14</ele>
        <time>2020-07-13T08:29:06Z</time>
      </trkpt>
      <trkpt lat="44.73499" lon="1.8742">
        <ele>408.7</ele>
        <time>2020-07-13T08:29:24Z</time>
      </trkpt>
      <trkpt lat="44.73504" lon="1.87424">
        <ele>408.22</ele>
        <time>2020-07-13T08:29:30Z</time>
      </trkpt>
      <trkpt lat="44.73505" lon="1.87425">
        <ele>408.22</ele>
        <time>2020-07-13T08:29:31Z</time>
      </trkpt>
      <trkpt lat="44.73521" lon="1.87441">
        <ele>406.77</ele>
        <time>2020-07-13T08:29:44Z</time>
      </trkpt>
      <trkpt lat="44.73535" lon="1.87462">
        <ele>404.37</ele>
        <time>2020-07-13T08:30:01Z</time>
      </trkpt>
      <trkpt lat="44.73551" lon="1.87485">
        <ele>404.37</ele>
        <time>2020-07-13T08:30:21Z</time>
      </trkpt>
      <trkpt lat="44.73559" lon="1.8749">
        <ele>404.37</ele>
        <time>2020-07-13T08:30:32Z</time>
      </trkpt>
      <trkpt lat="44.73569" lon="1.87496">
        <ele>403.89</ele>
        <time>2020-07-13T08:30:50Z</time>
      </trkpt>
      <trkpt lat="44.7357" lon="1.87499">
        <ele>403.89</ele>
        <time>2020-07-13T08:31:18Z</time>
      </trkpt>
      <trkpt lat="44.7357" lon="1.875">
        <ele>403.89</ele>
        <time>2020-07-13T08:31:52Z</time>
      </trkpt>
      <trkpt lat="44.73561" lon="1.87488">
        <ele>403.41</ele>
        <time>2020-07-13T08:32:13Z</time>
      </trkpt>
      <trkpt lat="44.73557" lon="1.87484">
        <ele>404.85</ele>
        <time>2020-07-13T08:32:18Z</time>
      </trkpt>
      <trkpt lat="44.73558" lon="1.87479">
        <ele>404.85</ele>
        <time>2020-07-13T08:32:22Z</time>
      </trkpt>
      <trkpt lat="44.73558" lon="1.87476">
        <ele>404.85</ele>
        <time>2020-07-13T08:32:23Z</time>
      </trkpt>
      <trkpt lat="44.73559" lon="1.87474">
        <ele>404.85</ele>
        <time>2020-07-13T08:32:24Z</time>
      </trkpt>
      <trkpt lat="44.73562" lon="1.87447">
        <ele>403.41</ele>
        <time>2020-07-13T08:32:43Z</time>
      </trkpt>
      <trkpt lat="44.73563" lon="1.87438">
        <ele>404.37</ele>
        <time>2020-07-13T08:32:48Z</time>
      </trkpt>
      <trkpt lat="44.73566" lon="1.87409">
        <ele>402.93</ele>
        <time>2020-07-13T08:33:07Z</time>
      </trkpt>
      <trkpt lat="44.73566" lon="1.87411">
        <ele>403.41</ele>
        <time>2020-07-13T08:33:25Z</time>
      </trkpt>
      <trkpt lat="44.73564" lon="1.87409">
        <ele>403.41</ele>
        <time>2020-07-13T08:33:31Z</time>
      </trkpt>
      <trkpt lat="44.73567" lon="1.87383">
        <ele>402.45</ele>
        <time>2020-07-13T08:33:49Z</time>
      </trkpt>
      <trkpt lat="44.73572" lon="1.8735">
        <ele>400.05</ele>
        <time>2020-07-13T08:34:11Z</time>
      </trkpt>
      <trkpt lat="44.73576" lon="1.8732">
        <ele>398.6</ele>
        <time>2020-07-13T08:34:29Z</time>
      </trkpt>
      <trkpt lat="44.73577" lon="1.87308">
        <ele>398.12</ele>
        <time>2020-07-13T08:34:48Z</time>
      </trkpt>
      <trkpt lat="44.73574" lon="1.87312">
        <ele>398.12</ele>
        <time>2020-07-13T08:35:13Z</time>
      </trkpt>
      <trkpt lat="44.7358" lon="1.87293">
        <ele>397.64</ele>
        <time>2020-07-13T08:35:31Z</time>
      </trkpt>
      <trkpt lat="44.7358" lon="1.87281">
        <ele>396.68</ele>
        <time>2020-07-13T08:35:49Z</time>
      </trkpt>
      <trkpt lat="44.73582" lon="1.87266">
        <ele>396.2</ele>
        <time>2020-07-13T08:36:16Z</time>
      </trkpt>
      <trkpt lat="44.73585" lon="1.87231">
        <ele>396.2</ele>
        <time>2020-07-13T08:36:37Z</time>
      </trkpt>
      <trkpt lat="44.73586" lon="1.87221">
        <ele>394.28</ele>
        <time>2020-07-13T08:36:44Z</time>
      </trkpt>
      <trkpt lat="44.73589" lon="1.87184">
        <ele>392.84</ele>
        <time>2020-07-13T08:37:06Z</time>
      </trkpt>
      <trkpt lat="44.73593" lon="1.8717">
        <ele>392.36</ele>
        <time>2020-07-13T08:37:35Z</time>
      </trkpt>
      <trkpt lat="44.73597" lon="1.87137">
        <ele>390.43</ele>
        <time>2020-07-13T08:37:55Z</time>
      </trkpt>
      <trkpt lat="44.73602" lon="1.8712">
        <ele>391.39</ele>
        <time>2020-07-13T08:38:06Z</time>
      </trkpt>
      <trkpt lat="44.73604" lon="1.87112">
        <ele>391.39</ele>
        <time>2020-07-13T08:38:10Z</time>
      </trkpt>
      <trkpt lat="44.73605" lon="1.87105">
        <ele>391.39</ele>
        <time>2020-07-13T08:38:13Z</time>
      </trkpt>
      <trkpt lat="44.73606" lon="1.87066">
        <ele>390.43</ele>
        <time>2020-07-13T08:38:33Z</time>
      </trkpt>
      <trkpt lat="44.7361" lon="1.87029">
        <ele>389.95</ele>
        <time>2020-07-13T08:38:52Z</time>
      </trkpt>
      <trkpt lat="44.73616" lon="1.87004">
        <ele>388.99</ele>
        <time>2020-07-13T08:39:12Z</time>
      </trkpt>
      <trkpt lat="44.73623" lon="1.86995">
        <ele>387.55</ele>
        <time>2020-07-13T08:39:28Z</time>
      </trkpt>
      <trkpt lat="44.73625" lon="1.86992">
        <ele>387.55</ele>
        <time>2020-07-13T08:39:50Z</time>
      </trkpt>
      <trkpt lat="44.73621" lon="1.8699">
        <ele>387.55</ele>
        <time>2020-07-13T08:40:09Z</time>
      </trkpt>
      <trkpt lat="44.73621" lon="1.86973">
        <ele>387.07</ele>
        <time>2020-07-13T08:40:23Z</time>
      </trkpt>
      <trkpt lat="44.73622" lon="1.86961">
        <ele>386.11</ele>
        <time>2020-07-13T08:40:38Z</time>
      </trkpt>
      <trkpt lat="44.7362" lon="1.86965">
        <ele>386.11</ele>
        <time>2020-07-13T08:41:07Z</time>
      </trkpt>
      <trkpt lat="44.73622" lon="1.8695">
        <ele>385.63</ele>
        <time>2020-07-13T08:41:26Z</time>
      </trkpt>
      <trkpt lat="44.73624" lon="1.86937">
        <ele>384.18</ele>
        <time>2020-07-13T08:41:35Z</time>
      </trkpt>
      <trkpt lat="44.73624" lon="1.86935">
        <ele>384.18</ele>
        <time>2020-07-13T08:41:53Z</time>
      </trkpt>
      <trkpt lat="44.73624" lon="1.86933">
        <ele>384.18</ele>
        <time>2020-07-13T08:42:15Z</time>
      </trkpt>
      <trkpt lat="44.73624" lon="1.8692">
        <ele>383.22</ele>
        <time>2020-07-13T08:42:37Z</time>
      </trkpt>
      <trkpt lat="44.7363" lon="1.86896">
        <ele>379.86</ele>
        <time>2020-07-13T08:42:55Z</time>
      </trkpt>
      <trkpt lat="44.73634" lon="1.86875">
        <ele>377.94</ele>
        <time>2020-07-13T08:43:09Z</time>
      </trkpt>
      <trkpt lat="44.73635" lon="1.86871">
        <ele>378.9</ele>
        <time>2020-07-13T08:43:12Z</time>
      </trkpt>
      <trkpt lat="44.73637" lon="1.86859">
        <ele>377.45</ele>
        <time>2020-07-13T08:43:20Z</time>
      </trkpt>
      <trkpt lat="44.7364" lon="1.86827">
        <ele>376.97</ele>
        <time>2020-07-13T08:43:38Z</time>
      </trkpt>
      <trkpt lat="44.73639" lon="1.8682">
        <ele>376.97</ele>
        <time>2020-07-13T08:43:56Z</time>
      </trkpt>
      <trkpt lat="44.73643" lon="1.86798">
        <ele>378.42</ele>
        <time>2020-07-13T08:44:13Z</time>
      </trkpt>
      <trkpt lat="44.73644" lon="1.86796">
        <ele>378.42</ele>
        <time>2020-07-13T08:44:14Z</time>
      </trkpt>
      <trkpt lat="44.73648" lon="1.86781">
        <ele>379.38</ele>
        <time>2020-07-13T08:44:24Z</time>
      </trkpt>
      <trkpt lat="44.73651" lon="1.8675">
        <ele>380.34</ele>
        <time>2020-07-13T08:44:44Z</time>
      </trkpt>
      <trkpt lat="44.73658" lon="1.86716">
        <ele>381.3</ele>
        <time>2020-07-13T08:45:04Z</time>
      </trkpt>
      <trkpt lat="44.73661" lon="1.86681">
        <ele>380.82</ele>
        <time>2020-07-13T08:45:23Z</time>
      </trkpt>
      <trkpt lat="44.73664" lon="1.86652">
        <ele>380.34</ele>
        <time>2020-07-13T08:45:40Z</time>
      </trkpt>
      <trkpt lat="44.73664" lon="1.86642">
        <ele>378.42</ele>
        <time>2020-07-13T08:45:46Z</time>
      </trkpt>
      <trkpt lat="44.7367" lon="1.86611">
        <ele>377.45</ele>
        <time>2020-07-13T08:46:02Z</time>
      </trkpt>
      <trkpt lat="44.73671" lon="1.86607">
        <ele>376.01</ele>
        <time>2020-07-13T08:46:04Z</time>
      </trkpt>
      <trkpt lat="44.73674" lon="1.86585">
        <ele>374.57</ele>
        <time>2020-07-13T08:46:15Z</time>
      </trkpt>
      <trkpt lat="44.73677" lon="1.86559">
        <ele>374.57</ele>
        <time>2020-07-13T08:46:29Z</time>
      </trkpt>
      <trkpt lat="44.73678" lon="1.86555">
        <ele>373.13</ele>
        <time>2020-07-13T08:46:31Z</time>
      </trkpt>
      <trkpt lat="44.73684" lon="1.86525">
        <ele>371.69</ele>
        <time>2020-07-13T08:46:47Z</time>
      </trkpt>
      <trkpt lat="44.73688" lon="1.86489">
        <ele>371.21</ele>
        <time>2020-07-13T08:47:08Z</time>
      </trkpt>
      <trkpt lat="44.73689" lon="1.86484">
        <ele>369.76</ele>
        <time>2020-07-13T08:47:11Z</time>
      </trkpt>
      <trkpt lat="44.73689" lon="1.86482">
        <ele>369.76</ele>
        <time>2020-07-13T08:47:12Z</time>
      </trkpt>
      <trkpt lat="44.73689" lon="1.8648">
        <ele>369.76</ele>
        <time>2020-07-13T08:47:13Z</time>
      </trkpt>
      <trkpt lat="44.73693" lon="1.86447">
        <ele>368.8</ele>
        <time>2020-07-13T08:47:30Z</time>
      </trkpt>
      <trkpt lat="44.73696" lon="1.86426">
        <ele>369.28</ele>
        <time>2020-07-13T08:47:41Z</time>
      </trkpt>
      <trkpt lat="44.73699" lon="1.86407">
        <ele>367.84</ele>
        <time>2020-07-13T08:47:51Z</time>
      </trkpt>
      <trkpt lat="44.73702" lon="1.86371">
        <ele>367.84</ele>
        <time>2020-07-13T08:48:08Z</time>
      </trkpt>
      <trkpt lat="44.73703" lon="1.86353">
        <ele>367.36</ele>
        <time>2020-07-13T08:48:17Z</time>
      </trkpt>
      <trkpt lat="44.73696" lon="1.8632">
        <ele>366.88</ele>
        <time>2020-07-13T08:48:33Z</time>
      </trkpt>
      <trkpt lat="44.73689" lon="1.86286">
        <ele>367.36</ele>
        <time>2020-07-13T08:48:50Z</time>
      </trkpt>
      <trkpt lat="44.73689" lon="1.86284">
        <ele>367.36</ele>
        <time>2020-07-13T08:48:51Z</time>
      </trkpt>
      <trkpt lat="44.73685" lon="1.86268">
        <ele>369.76</ele>
        <time>2020-07-13T08:49:01Z</time>
      </trkpt>
      <trkpt lat="44.7368" lon="1.86257">
        <ele>369.76</ele>
        <time>2020-07-13T08:49:09Z</time>
      </trkpt>
      <trkpt lat="44.73662" lon="1.86233">
        <ele>371.21</ele>
        <time>2020-07-13T08:49:30Z</time>
      </trkpt>
      <trkpt lat="44.73642" lon="1.86209">
        <ele>372.65</ele>
        <time>2020-07-13T08:49:47Z</time>
      </trkpt>
      <trkpt lat="44.73631" lon="1.86201">
        <ele>371.21</ele>
        <time>2020-07-13T08:49:57Z</time>
      </trkpt>
      <trkpt lat="44.73614" lon="1.86186">
        <ele>372.65</ele>
        <time>2020-07-13T08:50:16Z</time>
      </trkpt>
      <trkpt lat="44.73598" lon="1.86165">
        <ele>372.17</ele>
        <time>2020-07-13T08:50:35Z</time>
      </trkpt>
      <trkpt lat="44.73601" lon="1.86148">
        <ele>372.17</ele>
        <time>2020-07-13T08:50:52Z</time>
      </trkpt>
      <trkpt lat="44.73602" lon="1.86147">
        <ele>372.65</ele>
        <time>2020-07-13T08:51:15Z</time>
      </trkpt>
      <trkpt lat="44.73611" lon="1.86127">
        <ele>373.13</ele>
        <time>2020-07-13T08:51:32Z</time>
      </trkpt>
      <trkpt lat="44.73613" lon="1.8612">
        <ele>373.13</ele>
        <time>2020-07-13T08:51:48Z</time>
      </trkpt>
      <trkpt lat="44.73621" lon="1.8611">
        <ele>373.13</ele>
        <time>2020-07-13T08:52:04Z</time>
      </trkpt>
      <trkpt lat="44.73637" lon="1.86083">
        <ele>373.13</ele>
        <time>2020-07-13T08:52:26Z</time>
      </trkpt>
      <trkpt lat="44.73641" lon="1.86075">
        <ele>371.69</ele>
        <time>2020-07-13T08:52:33Z</time>
      </trkpt>
      <trkpt lat="44.73658" lon="1.86048">
        <ele>371.69</ele>
        <time>2020-07-13T08:52:55Z</time>
      </trkpt>
      <trkpt lat="44.73674" lon="1.86019">
        <ele>371.69</ele>
        <time>2020-07-13T08:53:16Z</time>
      </trkpt>
      <trkpt lat="44.73689" lon="1.86003">
        <ele>372.17</ele>
        <time>2020-07-13T08:53:33Z</time>
      </trkpt>
      <trkpt lat="44.73692" lon="1.86">
        <ele>371.21</ele>
        <time>2020-07-13T08:53:36Z</time>
      </trkpt>
      <trkpt lat="44.73709" lon="1.85979">
        <ele>370.73</ele>
        <time>2020-07-13T08:53:55Z</time>
      </trkpt>
      <trkpt lat="44.73718" lon="1.8597">
        <ele>370.73</ele>
        <time>2020-07-13T08:54:12Z</time>
      </trkpt>
      <trkpt lat="44.73719" lon="1.85968">
        <ele>370.73</ele>
        <time>2020-07-13T08:54:13Z</time>
      </trkpt>
      <trkpt lat="44.73738" lon="1.85948">
        <ele>369.28</ele>
        <time>2020-07-13T08:54:33Z</time>
      </trkpt>
      <trkpt lat="44.73744" lon="1.85946">
        <ele>369.28</ele>
        <time>2020-07-13T08:54:38Z</time>
      </trkpt>
      <trkpt lat="44.73771" lon="1.85934">
        <ele>366.88</ele>
        <time>2020-07-13T08:55:03Z</time>
      </trkpt>
      <trkpt lat="44.73793" lon="1.85928">
        <ele>365.44</ele>
        <time>2020-07-13T08:55:25Z</time>
      </trkpt>
      <trkpt lat="44.73818" lon="1.85914">
        <ele>364.48</ele>
        <time>2020-07-13T08:55:44Z</time>
      </trkpt>
      <trkpt lat="44.73839" lon="1.85905">
        <ele>364</ele>
        <time>2020-07-13T08:56:02Z</time>
      </trkpt>
      <trkpt lat="44.73866" lon="1.85894">
        <ele>363.52</ele>
        <time>2020-07-13T08:56:23Z</time>
      </trkpt>
      <trkpt lat="44.73882" lon="1.85879">
        <ele>363.04</ele>
        <time>2020-07-13T08:56:40Z</time>
      </trkpt>
      <trkpt lat="44.73883" lon="1.85878">
        <ele>363.04</ele>
        <time>2020-07-13T08:56:41Z</time>
      </trkpt>
      <trkpt lat="44.73905" lon="1.85856">
        <ele>361.59</ele>
        <time>2020-07-13T08:57:05Z</time>
      </trkpt>
      <trkpt lat="44.73924" lon="1.85828">
        <ele>361.11</ele>
        <time>2020-07-13T08:57:28Z</time>
      </trkpt>
      <trkpt lat="44.73946" lon="1.85798">
        <ele>360.63</ele>
        <time>2020-07-13T08:57:53Z</time>
      </trkpt>
      <trkpt lat="44.73963" lon="1.85773">
        <ele>359.19</ele>
        <time>2020-07-13T08:58:14Z</time>
      </trkpt>
      <trkpt lat="44.73968" lon="1.85767">
        <ele>359.19</ele>
        <time>2020-07-13T08:58:20Z</time>
      </trkpt>
      <trkpt lat="44.7397" lon="1.85766">
        <ele>357.75</ele>
        <time>2020-07-13T08:58:22Z</time>
      </trkpt>
      <trkpt lat="44.73985" lon="1.85744">
        <ele>355.83</ele>
        <time>2020-07-13T08:58:41Z</time>
      </trkpt>
      <trkpt lat="44.74005" lon="1.8572">
        <ele>353.9</ele>
        <time>2020-07-13T08:59:03Z</time>
      </trkpt>
      <trkpt lat="44.74007" lon="1.85719">
        <ele>353.42</ele>
        <time>2020-07-13T08:59:04Z</time>
      </trkpt>
      <trkpt lat="44.74024" lon="1.85709">
        <ele>351.5</ele>
        <time>2020-07-13T08:59:21Z</time>
      </trkpt>
      <trkpt lat="44.74035" lon="1.85705">
        <ele>350.06</ele>
        <time>2020-07-13T08:59:30Z</time>
      </trkpt>
      <trkpt lat="44.74059" lon="1.85695">
        <ele>348.62</ele>
        <time>2020-07-13T08:59:51Z</time>
      </trkpt>
      <trkpt lat="44.74084" lon="1.85685">
        <ele>346.21</ele>
        <time>2020-07-13T09:00:11Z</time>
      </trkpt>
      <trkpt lat="44.74106" lon="1.85673">
        <ele>345.25</ele>
        <time>2020-07-13T09:00:31Z</time>
      </trkpt>
      <trkpt lat="44.74127" lon="1.85664">
        <ele>344.77</ele>
        <time>2020-07-13T09:00:51Z</time>
      </trkpt>
      <trkpt lat="44.74156" lon="1.8565">
        <ele>344.77</ele>
        <time>2020-07-13T09:01:16Z</time>
      </trkpt>
      <trkpt lat="44.74169" lon="1.85633">
        <ele>346.21</ele>
        <time>2020-07-13T09:01:30Z</time>
      </trkpt>
      <trkpt lat="44.7418" lon="1.85607">
        <ele>347.65</ele>
        <time>2020-07-13T09:01:52Z</time>
      </trkpt>
      <trkpt lat="44.74186" lon="1.85592">
        <ele>348.62</ele>
        <time>2020-07-13T09:02:08Z</time>
      </trkpt>
      <trkpt lat="44.74196" lon="1.85571">
        <ele>350.06</ele>
        <time>2020-07-13T09:02:26Z</time>
      </trkpt>
      <trkpt lat="44.74209" lon="1.85548">
        <ele>350.54</ele>
        <time>2020-07-13T09:02:44Z</time>
      </trkpt>
      <trkpt lat="44.74223" lon="1.85528">
        <ele>351.02</ele>
        <time>2020-07-13T09:03:03Z</time>
      </trkpt>
      <trkpt lat="44.74229" lon="1.85517">
        <ele>351.98</ele>
        <time>2020-07-13T09:03:19Z</time>
      </trkpt>
      <trkpt lat="44.74228" lon="1.85516">
        <ele>351.98</ele>
        <time>2020-07-13T09:03:42Z</time>
      </trkpt>
      <trkpt lat="44.74231" lon="1.85519">
        <ele>352.46</ele>
        <time>2020-07-13T09:04:05Z</time>
      </trkpt>
      <trkpt lat="44.74229" lon="1.85514">
        <ele>352.46</ele>
        <time>2020-07-13T09:04:30Z</time>
      </trkpt>
      <trkpt lat="44.74229" lon="1.85512">
        <ele>352.46</ele>
        <time>2020-07-13T09:04:57Z</time>
      </trkpt>
      <trkpt lat="44.74229" lon="1.85514">
        <ele>352.46</ele>
        <time>2020-07-13T09:05:28Z</time>
      </trkpt>
      <trkpt lat="44.74232" lon="1.85514">
        <ele>351.02</ele>
        <time>2020-07-13T09:05:50Z</time>
      </trkpt>
      <trkpt lat="44.74238" lon="1.85514">
        <ele>352.46</ele>
        <time>2020-07-13T09:06:04Z</time>
      </trkpt>
      <trkpt lat="44.74256" lon="1.85503">
        <ele>352.46</ele>
        <time>2020-07-13T09:06:24Z</time>
      </trkpt>
      <trkpt lat="44.7426" lon="1.85501">
        <ele>352.94</ele>
        <time>2020-07-13T09:06:45Z</time>
      </trkpt>
      <trkpt lat="44.74259" lon="1.85503">
        <ele>352.94</ele>
        <time>2020-07-13T09:07:11Z</time>
      </trkpt>
      <trkpt lat="44.74261" lon="1.85502">
        <ele>352.94</ele>
        <time>2020-07-13T09:07:35Z</time>
      </trkpt>
      <trkpt lat="44.74261" lon="1.85502">
        <ele>352.94</ele>
        <time>2020-07-13T09:07:59Z</time>
      </trkpt>
      <trkpt lat="44.74263" lon="1.85502">
        <ele>352.94</ele>
        <time>2020-07-13T09:08:20Z</time>
      </trkpt>
      <trkpt lat="44.74263" lon="1.85502">
        <ele>352.94</ele>
        <time>2020-07-13T09:08:41Z</time>
      </trkpt>
      <trkpt lat="44.74263" lon="1.85503">
        <ele>352.94</ele>
        <time>2020-07-13T09:09:09Z</time>
      </trkpt>
      <trkpt lat="44.74262" lon="1.85505">
        <ele>352.94</ele>
        <time>2020-07-13T09:09:32Z</time>
      </trkpt>
      <trkpt lat="44.74268" lon="1.85509">
        <ele>353.42</ele>
        <time>2020-07-13T09:09:47Z</time>
      </trkpt>
      <trkpt lat="44.74269" lon="1.85513">
        <ele>353.42</ele>
        <time>2020-07-13T09:10:07Z</time>
      </trkpt>
      <trkpt lat="44.74271" lon="1.85515">
        <ele>353.9</ele>
        <time>2020-07-13T09:10:31Z</time>
      </trkpt>
      <trkpt lat="44.74273" lon="1.85517">
        <ele>353.9</ele>
        <time>2020-07-13T09:10:53Z</time>
      </trkpt>
      <trkpt lat="44.74275" lon="1.85531">
        <ele>353.9</ele>
        <time>2020-07-13T09:11:18Z</time>
      </trkpt>
      <trkpt lat="44.74276" lon="1.85537">
        <ele>353.9</ele>
        <time>2020-07-13T09:11:45Z</time>
      </trkpt>
      <trkpt lat="44.74276" lon="1.85532">
        <ele>353.9</ele>
        <time>2020-07-13T09:12:23Z</time>
      </trkpt>
      <trkpt lat="44.74277" lon="1.85531">
        <ele>353.9</ele>
        <time>2020-07-13T09:12:55Z</time>
      </trkpt>
      <trkpt lat="44.74279" lon="1.85529">
        <ele>353.9</ele>
        <time>2020-07-13T09:13:27Z</time>
      </trkpt>
      <trkpt lat="44.74273" lon="1.85512">
        <ele>354.86</ele>
        <time>2020-07-13T09:13:45Z</time>
      </trkpt>
      <trkpt lat="44.74273" lon="1.85511">
        <ele>353.42</ele>
        <time>2020-07-13T09:13:46Z</time>
      </trkpt>
      <trkpt lat="44.74266" lon="1.85502">
        <ele>353.42</ele>
        <time>2020-07-13T09:14:02Z</time>
      </trkpt>
      <trkpt lat="44.74261" lon="1.85499">
        <ele>352.94</ele>
        <time>2020-07-13T09:14:25Z</time>
      </trkpt>
      <trkpt lat="44.74263" lon="1.85503">
        <ele>352.94</ele>
        <time>2020-07-13T09:14:54Z</time>
      </trkpt>
      <trkpt lat="44.7426" lon="1.85503">
        <ele>352.94</ele>
        <time>2020-07-13T09:15:20Z</time>
      </trkpt>
      <trkpt lat="44.74258" lon="1.85504">
        <ele>352.94</ele>
        <time>2020-07-13T09:15:40Z</time>
      </trkpt>
      <trkpt lat="44.74259" lon="1.85503">
        <ele>352.94</ele>
        <time>2020-07-13T09:16:06Z</time>
      </trkpt>
      <trkpt lat="44.74262" lon="1.85502">
        <ele>352.94</ele>
        <time>2020-07-13T09:16:38Z</time>
      </trkpt>
      <trkpt lat="44.74259" lon="1.85504">
        <ele>352.94</ele>
        <time>2020-07-13T09:17:10Z</time>
      </trkpt>
      <trkpt lat="44.74261" lon="1.85502">
        <ele>353.9</ele>
        <time>2020-07-13T09:17:40Z</time>
      </trkpt>
      <trkpt lat="44.74261" lon="1.85503">
        <ele>353.9</ele>
        <time>2020-07-13T09:18:01Z</time>
      </trkpt>
      <trkpt lat="44.74272" lon="1.85493">
        <ele>352.94</ele>
        <time>2020-07-13T09:18:18Z</time>
      </trkpt>
      <trkpt lat="44.74277" lon="1.85476">
        <ele>352.46</ele>
        <time>2020-07-13T09:18:35Z</time>
      </trkpt>
      <trkpt lat="44.74288" lon="1.85448">
        <ele>352.46</ele>
        <time>2020-07-13T09:18:56Z</time>
      </trkpt>
      <trkpt lat="44.74298" lon="1.85424">
        <ele>352.46</ele>
        <time>2020-07-13T09:19:22Z</time>
      </trkpt>
      <trkpt lat="44.74304" lon="1.85409">
        <ele>352.46</ele>
        <time>2020-07-13T09:19:49Z</time>
      </trkpt>
      <trkpt lat="44.74318" lon="1.8539">
        <ele>351.98</ele>
        <time>2020-07-13T09:20:04Z</time>
      </trkpt>
      <trkpt lat="44.7434" lon="1.85351">
        <ele>352.46</ele>
        <time>2020-07-13T09:20:31Z</time>
      </trkpt>
      <trkpt lat="44.74354" lon="1.8532">
        <ele>352.46</ele>
        <time>2020-07-13T09:20:52Z</time>
      </trkpt>
      <trkpt lat="44.74375" lon="1.8529">
        <ele>352.94</ele>
        <time>2020-07-13T09:21:14Z</time>
      </trkpt>
      <trkpt lat="44.74393" lon="1.85269">
        <ele>351.5</ele>
        <time>2020-07-13T09:21:32Z</time>
      </trkpt>
      <trkpt lat="44.74415" lon="1.85241">
        <ele>352.94</ele>
        <time>2020-07-13T09:21:55Z</time>
      </trkpt>
      <trkpt lat="44.74422" lon="1.85226">
        <ele>351.98</ele>
        <time>2020-07-13T09:22:05Z</time>
      </trkpt>
      <trkpt lat="44.74426" lon="1.8522">
        <ele>353.42</ele>
        <time>2020-07-13T09:22:09Z</time>
      </trkpt>
      <trkpt lat="44.74444" lon="1.85182">
        <ele>353.42</ele>
        <time>2020-07-13T09:22:34Z</time>
      </trkpt>
      <trkpt lat="44.74457" lon="1.85147">
        <ele>352.46</ele>
        <time>2020-07-13T09:22:56Z</time>
      </trkpt>
      <trkpt lat="44.74469" lon="1.85118">
        <ele>351.5</ele>
        <time>2020-07-13T09:23:15Z</time>
      </trkpt>
      <trkpt lat="44.74486" lon="1.85078">
        <ele>351.98</ele>
        <time>2020-07-13T09:23:40Z</time>
      </trkpt>
      <trkpt lat="44.74492" lon="1.85058">
        <ele>350.54</ele>
        <time>2020-07-13T09:23:51Z</time>
      </trkpt>
      <trkpt lat="44.74507" lon="1.85018">
        <ele>348.62</ele>
        <time>2020-07-13T09:24:16Z</time>
      </trkpt>
      <trkpt lat="44.74521" lon="1.84975">
        <ele>349.58</ele>
        <time>2020-07-13T09:24:40Z</time>
      </trkpt>
      <trkpt lat="44.74528" lon="1.8494">
        <ele>349.1</ele>
        <time>2020-07-13T09:24:59Z</time>
      </trkpt>
      <trkpt lat="44.74529" lon="1.84936">
        <ele>348.13</ele>
        <time>2020-07-13T09:25:01Z</time>
      </trkpt>
      <trkpt lat="44.7453" lon="1.84932">
        <ele>349.1</ele>
        <time>2020-07-13T09:25:03Z</time>
      </trkpt>
      <trkpt lat="44.74531" lon="1.84923">
        <ele>348.13</ele>
        <time>2020-07-13T09:25:08Z</time>
      </trkpt>
      <trkpt lat="44.74534" lon="1.84904">
        <ele>348.13</ele>
        <time>2020-07-13T09:25:26Z</time>
      </trkpt>
      <trkpt lat="44.74525" lon="1.84895">
        <ele>348.13</ele>
        <time>2020-07-13T09:25:41Z</time>
      </trkpt>
      <trkpt lat="44.74525" lon="1.84886">
        <ele>348.13</ele>
        <time>2020-07-13T09:26:08Z</time>
      </trkpt>
      <trkpt lat="44.74514" lon="1.84877">
        <ele>347.65</ele>
        <time>2020-07-13T09:26:30Z</time>
      </trkpt>
      <trkpt lat="44.745" lon="1.84853">
        <ele>345.73</ele>
        <time>2020-07-13T09:26:53Z</time>
      </trkpt>
      <trkpt lat="44.74493" lon="1.84826">
        <ele>344.77</ele>
        <time>2020-07-13T09:27:12Z</time>
      </trkpt>
      <trkpt lat="44.74491" lon="1.84824">
        <ele>344.77</ele>
        <time>2020-07-13T09:27:14Z</time>
      </trkpt>
      <trkpt lat="44.74487" lon="1.84815">
        <ele>344.29</ele>
        <time>2020-07-13T09:27:19Z</time>
      </trkpt>
      <trkpt lat="44.74474" lon="1.84771">
        <ele>341.89</ele>
        <time>2020-07-13T09:27:44Z</time>
      </trkpt>
      <trkpt lat="44.74465" lon="1.84736">
        <ele>341.41</ele>
        <time>2020-07-13T09:28:07Z</time>
      </trkpt>
      <trkpt lat="44.74456" lon="1.84699">
        <ele>340.92</ele>
        <time>2020-07-13T09:28:29Z</time>
      </trkpt>
      <trkpt lat="44.74445" lon="1.84664">
        <ele>340.44</ele>
        <time>2020-07-13T09:28:54Z</time>
      </trkpt>
      <trkpt lat="44.7444" lon="1.84631">
        <ele>339.48</ele>
        <time>2020-07-13T09:29:15Z</time>
      </trkpt>
      <trkpt lat="44.74439" lon="1.84631">
        <ele>339.48</ele>
        <time>2020-07-13T09:29:16Z</time>
      </trkpt>
      <trkpt lat="44.74427" lon="1.84627">
        <ele>336.6</ele>
        <time>2020-07-13T09:29:31Z</time>
      </trkpt>
      <trkpt lat="44.74426" lon="1.84627">
        <ele>336.6</ele>
        <time>2020-07-13T09:29:32Z</time>
      </trkpt>
      <trkpt lat="44.74398" lon="1.84626">
        <ele>333.23</ele>
        <time>2020-07-13T09:29:53Z</time>
      </trkpt>
      <trkpt lat="44.74398" lon="1.84602">
        <ele>332.27</ele>
        <time>2020-07-13T09:30:11Z</time>
      </trkpt>
      <trkpt lat="44.744" lon="1.84591">
        <ele>331.31</ele>
        <time>2020-07-13T09:30:27Z</time>
      </trkpt>
      <trkpt lat="44.744" lon="1.84591">
        <ele>331.31</ele>
        <time>2020-07-13T09:30:28Z</time>
      </trkpt>
      <trkpt lat="44.74404" lon="1.84589">
        <ele>331.31</ele>
        <time>2020-07-13T09:30:33Z</time>
      </trkpt>
      <trkpt lat="44.74417" lon="1.84585">
        <ele>331.31</ele>
        <time>2020-07-13T09:30:46Z</time>
      </trkpt>
      <trkpt lat="44.74432" lon="1.84572">
        <ele>331.31</ele>
        <time>2020-07-13T09:31:04Z</time>
      </trkpt>
      <trkpt lat="44.74446" lon="1.84561">
        <ele>331.79</ele>
        <time>2020-07-13T09:31:19Z</time>
      </trkpt>
      <trkpt lat="44.74456" lon="1.84562">
        <ele>332.75</ele>
        <time>2020-07-13T09:31:34Z</time>
      </trkpt>
      <trkpt lat="44.74465" lon="1.84558">
        <ele>333.23</ele>
        <time>2020-07-13T09:31:51Z</time>
      </trkpt>
      <trkpt lat="44.74474" lon="1.84556">
        <ele>335.16</ele>
        <time>2020-07-13T09:32:04Z</time>
      </trkpt>
      <trkpt lat="44.74485" lon="1.84553">
        <ele>336.12</ele>
        <time>2020-07-13T09:32:23Z</time>
      </trkpt>
      <trkpt lat="44.74486" lon="1.84542">
        <ele>334.68</ele>
        <time>2020-07-13T09:32:39Z</time>
      </trkpt>
      <trkpt lat="44.74475" lon="1.84513">
        <ele>334.68</ele>
        <time>2020-07-13T09:33:03Z</time>
      </trkpt>
      <trkpt lat="44.74475" lon="1.84504">
        <ele>336.12</ele>
        <time>2020-07-13T09:33:08Z</time>
      </trkpt>
      <trkpt lat="44.74478" lon="1.84454">
        <ele>334.2</ele>
        <time>2020-07-13T09:33:33Z</time>
      </trkpt>
      <trkpt lat="44.74479" lon="1.84418">
        <ele>331.31</ele>
        <time>2020-07-13T09:33:58Z</time>
      </trkpt>
      <trkpt lat="44.74471" lon="1.844">
        <ele>329.39</ele>
        <time>2020-07-13T09:34:11Z</time>
      </trkpt>
      <trkpt lat="44.74456" lon="1.84369">
        <ele>327.95</ele>
        <time>2020-07-13T09:34:31Z</time>
      </trkpt>
      <trkpt lat="44.74437" lon="1.84332">
        <ele>326.02</ele>
        <time>2020-07-13T09:34:56Z</time>
      </trkpt>
      <trkpt lat="44.74424" lon="1.84305">
        <ele>323.62</ele>
        <time>2020-07-13T09:35:17Z</time>
      </trkpt>
      <trkpt lat="44.744" lon="1.84275">
        <ele>322.18</ele>
        <time>2020-07-13T09:35:41Z</time>
      </trkpt>
      <trkpt lat="44.74395" lon="1.84267">
        <ele>320.74</ele>
        <time>2020-07-13T09:35:48Z</time>
      </trkpt>
      <trkpt lat="44.74372" lon="1.84238">
        <ele>319.3</ele>
        <time>2020-07-13T09:36:12Z</time>
      </trkpt>
      <trkpt lat="44.7435" lon="1.84215">
        <ele>318.81</ele>
        <time>2020-07-13T09:36:36Z</time>
      </trkpt>
      <trkpt lat="44.74326" lon="1.84188">
        <ele>318.81</ele>
        <time>2020-07-13T09:37:01Z</time>
      </trkpt>
      <trkpt lat="44.7432" lon="1.84185">
        <ele>319.78</ele>
        <time>2020-07-13T09:37:07Z</time>
      </trkpt>
      <trkpt lat="44.74295" lon="1.8417">
        <ele>321.22</ele>
        <time>2020-07-13T09:37:32Z</time>
      </trkpt>
      <trkpt lat="44.7429" lon="1.84169">
        <ele>321.22</ele>
        <time>2020-07-13T09:37:36Z</time>
      </trkpt>
      <trkpt lat="44.74266" lon="1.8416">
        <ele>322.18</ele>
        <time>2020-07-13T09:38:00Z</time>
      </trkpt>
      <trkpt lat="44.7424" lon="1.84145">
        <ele>323.14</ele>
        <time>2020-07-13T09:38:24Z</time>
      </trkpt>
      <trkpt lat="44.74217" lon="1.84124">
        <ele>323.14</ele>
        <time>2020-07-13T09:38:49Z</time>
      </trkpt>
      <trkpt lat="44.74198" lon="1.841">
        <ele>324.58</ele>
        <time>2020-07-13T09:39:12Z</time>
      </trkpt>
      <trkpt lat="44.74179" lon="1.84088">
        <ele>325.06</ele>
        <time>2020-07-13T09:39:31Z</time>
      </trkpt>
      <trkpt lat="44.7416" lon="1.84065">
        <ele>326.02</ele>
        <time>2020-07-13T09:39:54Z</time>
      </trkpt>
      <trkpt lat="44.74145" lon="1.84035">
        <ele>326.99</ele>
        <time>2020-07-13T09:40:19Z</time>
      </trkpt>
      <trkpt lat="44.74146" lon="1.84002">
        <ele>327.47</ele>
        <time>2020-07-13T09:40:42Z</time>
      </trkpt>
      <trkpt lat="44.74153" lon="1.83965">
        <ele>326.5</ele>
        <time>2020-07-13T09:41:07Z</time>
      </trkpt>
      <trkpt lat="44.74155" lon="1.83959">
        <ele>328.43</ele>
        <time>2020-07-13T09:41:11Z</time>
      </trkpt>
      <trkpt lat="44.74157" lon="1.83928">
        <ele>330.83</ele>
        <time>2020-07-13T09:41:35Z</time>
      </trkpt>
      <trkpt lat="44.74154" lon="1.83913">
        <ele>333.23</ele>
        <time>2020-07-13T09:41:48Z</time>
      </trkpt>
      <trkpt lat="44.74149" lon="1.83893">
        <ele>334.2</ele>
        <time>2020-07-13T09:42:05Z</time>
      </trkpt>
      <trkpt lat="44.74151" lon="1.8387">
        <ele>334.68</ele>
        <time>2020-07-13T09:42:23Z</time>
      </trkpt>
      <trkpt lat="44.74162" lon="1.83852">
        <ele>335.16</ele>
        <time>2020-07-13T09:42:42Z</time>
      </trkpt>
      <trkpt lat="44.74162" lon="1.83843">
        <ele>334.2</ele>
        <time>2020-07-13T09:43:02Z</time>
      </trkpt>
      <trkpt lat="44.74168" lon="1.83826">
        <ele>333.23</ele>
        <time>2020-07-13T09:43:18Z</time>
      </trkpt>
      <trkpt lat="44.74168" lon="1.83797">
        <ele>333.71</ele>
        <time>2020-07-13T09:43:37Z</time>
      </trkpt>
      <trkpt lat="44.74166" lon="1.83772">
        <ele>333.71</ele>
        <time>2020-07-13T09:43:57Z</time>
      </trkpt>
      <trkpt lat="44.74165" lon="1.83772">
        <ele>333.23</ele>
        <time>2020-07-13T09:44:17Z</time>
      </trkpt>
      <trkpt lat="44.74166" lon="1.83773">
        <ele>333.23</ele>
        <time>2020-07-13T09:44:41Z</time>
      </trkpt>
      <trkpt lat="44.74164" lon="1.83775">
        <ele>333.23</ele>
        <time>2020-07-13T09:45:08Z</time>
      </trkpt>
      <trkpt lat="44.74166" lon="1.83772">
        <ele>333.23</ele>
        <time>2020-07-13T09:45:34Z</time>
      </trkpt>
      <trkpt lat="44.74162" lon="1.83769">
        <ele>333.71</ele>
        <time>2020-07-13T09:45:54Z</time>
      </trkpt>
      <trkpt lat="44.74149" lon="1.83763">
        <ele>332.27</ele>
        <time>2020-07-13T09:46:16Z</time>
      </trkpt>
      <trkpt lat="44.74128" lon="1.83749">
        <ele>331.79</ele>
        <time>2020-07-13T09:46:34Z</time>
      </trkpt>
      <trkpt lat="44.74106" lon="1.83732">
        <ele>331.31</ele>
        <time>2020-07-13T09:46:54Z</time>
      </trkpt>
      <trkpt lat="44.74104" lon="1.8373">
        <ele>332.75</ele>
        <time>2020-07-13T09:46:56Z</time>
      </trkpt>
      <trkpt lat="44.74078" lon="1.83711">
        <ele>332.75</ele>
        <time>2020-07-13T09:47:18Z</time>
      </trkpt>
      <trkpt lat="44.74055" lon="1.83691">
        <ele>334.2</ele>
        <time>2020-07-13T09:47:41Z</time>
      </trkpt>
      <trkpt lat="44.74049" lon="1.83658">
        <ele>336.12</ele>
        <time>2020-07-13T09:48:01Z</time>
      </trkpt>
      <trkpt lat="44.74049" lon="1.83656">
        <ele>336.12</ele>
        <time>2020-07-13T09:48:02Z</time>
      </trkpt>
      <trkpt lat="44.74047" lon="1.83635">
        <ele>337.56</ele>
        <time>2020-07-13T09:48:16Z</time>
      </trkpt>
      <trkpt lat="44.74042" lon="1.83617">
        <ele>338.04</ele>
        <time>2020-07-13T09:48:33Z</time>
      </trkpt>
      <trkpt lat="44.74049" lon="1.83592">
        <ele>338.04</ele>
        <time>2020-07-13T09:48:52Z</time>
      </trkpt>
      <trkpt lat="44.74056" lon="1.83569">
        <ele>336.6</ele>
        <time>2020-07-13T09:49:08Z</time>
      </trkpt>
      <trkpt lat="44.74067" lon="1.83537">
        <ele>336.12</ele>
        <time>2020-07-13T09:49:28Z</time>
      </trkpt>
      <trkpt lat="44.74088" lon="1.83524">
        <ele>334.2</ele>
        <time>2020-07-13T09:49:49Z</time>
      </trkpt>
      <trkpt lat="44.74095" lon="1.83515">
        <ele>332.75</ele>
        <time>2020-07-13T09:49:58Z</time>
      </trkpt>
      <trkpt lat="44.74109" lon="1.83503">
        <ele>329.87</ele>
        <time>2020-07-13T09:50:17Z</time>
      </trkpt>
      <trkpt lat="44.74126" lon="1.8349">
        <ele>326.99</ele>
        <time>2020-07-13T09:50:39Z</time>
      </trkpt>
      <trkpt lat="44.74131" lon="1.83478">
        <ele>324.1</ele>
        <time>2020-07-13T09:50:59Z</time>
      </trkpt>
      <trkpt lat="44.7414" lon="1.83466">
        <ele>320.74</ele>
        <time>2020-07-13T09:51:14Z</time>
      </trkpt>
      <trkpt lat="44.74155" lon="1.83452">
        <ele>317.85</ele>
        <time>2020-07-13T09:51:28Z</time>
      </trkpt>
      <trkpt lat="44.74165" lon="1.83445">
        <ele>317.37</ele>
        <time>2020-07-13T09:51:52Z</time>
      </trkpt>
      <trkpt lat="44.7417" lon="1.8345">
        <ele>316.89</ele>
        <time>2020-07-13T09:52:18Z</time>
      </trkpt>
      <trkpt lat="44.74165" lon="1.83431">
        <ele>314.97</ele>
        <time>2020-07-13T09:52:41Z</time>
      </trkpt>
      <trkpt lat="44.74158" lon="1.83413">
        <ele>311.6</ele>
        <time>2020-07-13T09:52:56Z</time>
      </trkpt>
      <trkpt lat="44.74158" lon="1.83391">
        <ele>310.64</ele>
        <time>2020-07-13T09:53:17Z</time>
      </trkpt>
      <trkpt lat="44.74155" lon="1.83372">
        <ele>310.16</ele>
        <time>2020-07-13T09:53:34Z</time>
      </trkpt>
      <trkpt lat="44.74158" lon="1.83347">
        <ele>310.16</ele>
        <time>2020-07-13T09:53:52Z</time>
      </trkpt>
      <trkpt lat="44.74163" lon="1.83335">
        <ele>311.6</ele>
        <time>2020-07-13T09:54:03Z</time>
      </trkpt>
      <trkpt lat="44.74164" lon="1.8332">
        <ele>314.49</ele>
        <time>2020-07-13T09:54:24Z</time>
      </trkpt>
      <trkpt lat="44.74159" lon="1.83305">
        <ele>316.41</ele>
        <time>2020-07-13T09:54:40Z</time>
      </trkpt>
      <trkpt lat="44.74156" lon="1.83289">
        <ele>316.89</ele>
        <time>2020-07-13T09:54:55Z</time>
      </trkpt>
      <trkpt lat="44.74157" lon="1.83279">
        <ele>316.89</ele>
        <time>2020-07-13T09:55:12Z</time>
      </trkpt>
      <trkpt lat="44.74156" lon="1.83268">
        <ele>317.37</ele>
        <time>2020-07-13T09:55:29Z</time>
      </trkpt>
      <trkpt lat="44.74155" lon="1.83259">
        <ele>317.37</ele>
        <time>2020-07-13T09:55:49Z</time>
      </trkpt>
      <trkpt lat="44.7415" lon="1.83246">
        <ele>317.37</ele>
        <time>2020-07-13T09:56:04Z</time>
      </trkpt>
      <trkpt lat="44.74139" lon="1.83227">
        <ele>317.85</ele>
        <time>2020-07-13T09:56:21Z</time>
      </trkpt>
      <trkpt lat="44.74129" lon="1.83209">
        <ele>317.37</ele>
        <time>2020-07-13T09:56:36Z</time>
      </trkpt>
      <trkpt lat="44.74114" lon="1.83189">
        <ele>317.37</ele>
        <time>2020-07-13T09:56:54Z</time>
      </trkpt>
      <trkpt lat="44.74113" lon="1.83188">
        <ele>317.37</ele>
        <time>2020-07-13T09:56:55Z</time>
      </trkpt>
      <trkpt lat="44.74112" lon="1.83186">
        <ele>318.81</ele>
        <time>2020-07-13T09:56:57Z</time>
      </trkpt>
      <trkpt lat="44.74101" lon="1.83165">
        <ele>318.81</ele>
        <time>2020-07-13T09:57:15Z</time>
      </trkpt>
      <trkpt lat="44.7409" lon="1.83139">
        <ele>318.81</ele>
        <time>2020-07-13T09:57:34Z</time>
      </trkpt>
      <trkpt lat="44.74077" lon="1.83116">
        <ele>319.3</ele>
        <time>2020-07-13T09:57:55Z</time>
      </trkpt>
      <trkpt lat="44.74067" lon="1.83098">
        <ele>319.78</ele>
        <time>2020-07-13T09:58:11Z</time>
      </trkpt>
      <trkpt lat="44.74058" lon="1.8308">
        <ele>320.26</ele>
        <time>2020-07-13T09:58:27Z</time>
      </trkpt>
      <trkpt lat="44.74055" lon="1.83076">
        <ele>320.74</ele>
        <time>2020-07-13T09:58:31Z</time>
      </trkpt>
      <trkpt lat="44.74048" lon="1.83053">
        <ele>320.74</ele>
        <time>2020-07-13T09:58:49Z</time>
      </trkpt>
      <trkpt lat="44.74045" lon="1.83045">
        <ele>320.74</ele>
        <time>2020-07-13T09:59:08Z</time>
      </trkpt>
      <trkpt lat="44.74035" lon="1.83049">
        <ele>320.74</ele>
        <time>2020-07-13T09:59:27Z</time>
      </trkpt>
      <trkpt lat="44.74019" lon="1.83051">
        <ele>320.74</ele>
        <time>2020-07-13T09:59:51Z</time>
      </trkpt>
      <trkpt lat="44.74022" lon="1.83053">
        <ele>320.74</ele>
        <time>2020-07-13T10:00:14Z</time>
      </trkpt>
      <trkpt lat="44.74039" lon="1.83051">
        <ele>320.74</ele>
        <time>2020-07-13T10:00:40Z</time>
      </trkpt>
      <trkpt lat="44.7404" lon="1.83044">
        <ele>320.74</ele>
        <time>2020-07-13T10:01:01Z</time>
      </trkpt>
      <trkpt lat="44.74037" lon="1.83044">
        <ele>320.74</ele>
        <time>2020-07-13T10:01:06Z</time>
      </trkpt>
      <trkpt lat="44.74038" lon="1.83048">
        <ele>320.74</ele>
        <time>2020-07-13T10:01:26Z</time>
      </trkpt>
      <trkpt lat="44.74045" lon="1.83053">
        <ele>320.74</ele>
        <time>2020-07-13T10:01:55Z</time>
      </trkpt>
      <trkpt lat="44.74039" lon="1.83054">
        <ele>320.74</ele>
        <time>2020-07-13T10:02:14Z</time>
      </trkpt>
      <trkpt lat="44.7404" lon="1.83043">
        <ele>320.74</ele>
        <time>2020-07-13T10:02:41Z</time>
      </trkpt>
      <trkpt lat="44.74034" lon="1.83044">
        <ele>320.74</ele>
        <time>2020-07-13T10:03:04Z</time>
      </trkpt>
      <trkpt lat="44.74038" lon="1.83043">
        <ele>320.74</ele>
        <time>2020-07-13T10:03:30Z</time>
      </trkpt>
      <trkpt lat="44.74037" lon="1.8304">
        <ele>320.74</ele>
        <time>2020-07-13T10:03:54Z</time>
      </trkpt>
      <trkpt lat="44.74032" lon="1.83041">
        <ele>321.22</ele>
        <time>2020-07-13T10:04:18Z</time>
      </trkpt>
      <trkpt lat="44.74039" lon="1.8305">
        <ele>321.22</ele>
        <time>2020-07-13T10:04:37Z</time>
      </trkpt>
      <trkpt lat="44.74042" lon="1.83046">
        <ele>322.18</ele>
        <time>2020-07-13T10:04:58Z</time>
      </trkpt>
      <trkpt lat="44.74038" lon="1.83043">
        <ele>322.18</ele>
        <time>2020-07-13T10:05:14Z</time>
      </trkpt>
      <trkpt lat="44.7404" lon="1.83045">
        <ele>322.18</ele>
        <time>2020-07-13T10:05:36Z</time>
      </trkpt>
      <trkpt lat="44.74035" lon="1.83042">
        <ele>322.18</ele>
        <time>2020-07-13T10:05:54Z</time>
      </trkpt>
      <trkpt lat="44.74037" lon="1.83031">
        <ele>322.18</ele>
        <time>2020-07-13T10:06:15Z</time>
      </trkpt>
      <trkpt lat="44.74046" lon="1.83024">
        <ele>322.66</ele>
        <time>2020-07-13T10:06:38Z</time>
      </trkpt>
      <trkpt lat="44.74044" lon="1.83011">
        <ele>322.66</ele>
        <time>2020-07-13T10:07:02Z</time>
      </trkpt>
      <trkpt lat="44.74036" lon="1.83008">
        <ele>321.22</ele>
        <time>2020-07-13T10:07:18Z</time>
      </trkpt>
      <trkpt lat="44.74025" lon="1.82995">
        <ele>321.22</ele>
        <time>2020-07-13T10:07:36Z</time>
      </trkpt>
      <trkpt lat="44.7402" lon="1.82976">
        <ele>321.22</ele>
        <time>2020-07-13T10:07:52Z</time>
      </trkpt>
      <trkpt lat="44.74017" lon="1.82966">
        <ele>322.66</ele>
        <time>2020-07-13T10:08:03Z</time>
      </trkpt>
      <trkpt lat="44.74016" lon="1.82964">
        <ele>322.66</ele>
        <time>2020-07-13T10:08:04Z</time>
      </trkpt>
      <trkpt lat="44.73998" lon="1.82938">
        <ele>323.14</ele>
        <time>2020-07-13T10:08:23Z</time>
      </trkpt>
      <trkpt lat="44.73996" lon="1.82923">
        <ele>325.06</ele>
        <time>2020-07-13T10:08:46Z</time>
      </trkpt>
      <trkpt lat="44.73987" lon="1.82897">
        <ele>325.06</ele>
        <time>2020-07-13T10:09:07Z</time>
      </trkpt>
      <trkpt lat="44.73977" lon="1.82872">
        <ele>326.99</ele>
        <time>2020-07-13T10:09:25Z</time>
      </trkpt>
      <trkpt lat="44.73975" lon="1.82872">
        <ele>326.5</ele>
        <time>2020-07-13T10:09:45Z</time>
      </trkpt>
      <trkpt lat="44.73975" lon="1.82865">
        <ele>327.47</ele>
        <time>2020-07-13T10:10:14Z</time>
      </trkpt>
      <trkpt lat="44.73971" lon="1.82841">
        <ele>330.83</ele>
        <time>2020-07-13T10:10:35Z</time>
      </trkpt>
      <trkpt lat="44.73966" lon="1.82813">
        <ele>333.23</ele>
        <time>2020-07-13T10:11:00Z</time>
      </trkpt>
      <trkpt lat="44.73966" lon="1.82805">
        <ele>333.71</ele>
        <time>2020-07-13T10:11:19Z</time>
      </trkpt>
      <trkpt lat="44.73967" lon="1.82799">
        <ele>334.2</ele>
        <time>2020-07-13T10:11:28Z</time>
      </trkpt>
      <trkpt lat="44.73962" lon="1.82777">
        <ele>337.56</ele>
        <time>2020-07-13T10:11:52Z</time>
      </trkpt>
      <trkpt lat="44.73963" lon="1.82776">
        <ele>337.56</ele>
        <time>2020-07-13T10:11:53Z</time>
      </trkpt>
      <trkpt lat="44.73966" lon="1.82755">
        <ele>337.56</ele>
        <time>2020-07-13T10:12:11Z</time>
      </trkpt>
      <trkpt lat="44.73964" lon="1.82742">
        <ele>339</ele>
        <time>2020-07-13T10:12:32Z</time>
      </trkpt>
      <trkpt lat="44.73965" lon="1.8274">
        <ele>339</ele>
        <time>2020-07-13T10:12:55Z</time>
      </trkpt>
      <trkpt lat="44.73967" lon="1.82745">
        <ele>339</ele>
        <time>2020-07-13T10:13:18Z</time>
      </trkpt>
      <trkpt lat="44.73968" lon="1.82741">
        <ele>339.48</ele>
        <time>2020-07-13T10:13:36Z</time>
      </trkpt>
      <trkpt lat="44.73967" lon="1.82737">
        <ele>339.48</ele>
        <time>2020-07-13T10:14:01Z</time>
      </trkpt>
      <trkpt lat="44.7397" lon="1.82725">
        <ele>340.44</ele>
        <time>2020-07-13T10:14:19Z</time>
      </trkpt>
      <trkpt lat="44.73974" lon="1.82718">
        <ele>339.96</ele>
        <time>2020-07-13T10:14:25Z</time>
      </trkpt>
      <trkpt lat="44.73975" lon="1.82716">
        <ele>341.41</ele>
        <time>2020-07-13T10:14:27Z</time>
      </trkpt>
      <trkpt lat="44.73983" lon="1.827">
        <ele>342.37</ele>
        <time>2020-07-13T10:14:44Z</time>
      </trkpt>
      <trkpt lat="44.73989" lon="1.82673">
        <ele>343.33</ele>
        <time>2020-07-13T10:15:04Z</time>
      </trkpt>
      <trkpt lat="44.74004" lon="1.82658">
        <ele>343.81</ele>
        <time>2020-07-13T10:15:19Z</time>
      </trkpt>
      <trkpt lat="44.74017" lon="1.82652">
        <ele>345.73</ele>
        <time>2020-07-13T10:15:34Z</time>
      </trkpt>
      <trkpt lat="44.74039" lon="1.82647">
        <ele>346.69</ele>
        <time>2020-07-13T10:15:54Z</time>
      </trkpt>
      <trkpt lat="44.74043" lon="1.82647">
        <ele>346.69</ele>
        <time>2020-07-13T10:15:58Z</time>
      </trkpt>
      <trkpt lat="44.74062" lon="1.8265">
        <ele>348.62</ele>
        <time>2020-07-13T10:16:16Z</time>
      </trkpt>
      <trkpt lat="44.74068" lon="1.82653">
        <ele>349.1</ele>
        <time>2020-07-13T10:16:34Z</time>
      </trkpt>
      <trkpt lat="44.74076" lon="1.82654">
        <ele>349.58</ele>
        <time>2020-07-13T10:16:55Z</time>
      </trkpt>
      <trkpt lat="44.74099" lon="1.82656">
        <ele>351.02</ele>
        <time>2020-07-13T10:17:19Z</time>
      </trkpt>
      <trkpt lat="44.74118" lon="1.82652">
        <ele>352.46</ele>
        <time>2020-07-13T10:17:39Z</time>
      </trkpt>
      <trkpt lat="44.7414" lon="1.82645">
        <ele>353.42</ele>
        <time>2020-07-13T10:18:02Z</time>
      </trkpt>
      <trkpt lat="44.74161" lon="1.82638">
        <ele>353.9</ele>
        <time>2020-07-13T10:18:21Z</time>
      </trkpt>
      <trkpt lat="44.74184" lon="1.82633">
        <ele>353.9</ele>
        <time>2020-07-13T10:18:41Z</time>
      </trkpt>
      <trkpt lat="44.74204" lon="1.82612">
        <ele>354.38</ele>
        <time>2020-07-13T10:19:03Z</time>
      </trkpt>
      <trkpt lat="44.74211" lon="1.82606">
        <ele>354.86</ele>
        <time>2020-07-13T10:19:21Z</time>
      </trkpt>
      <trkpt lat="44.74221" lon="1.82587">
        <ele>355.83</ele>
        <time>2020-07-13T10:19:41Z</time>
      </trkpt>
      <trkpt lat="44.74241" lon="1.82569">
        <ele>356.79</ele>
        <time>2020-07-13T10:19:59Z</time>
      </trkpt>
      <trkpt lat="44.74262" lon="1.82554">
        <ele>356.79</ele>
        <time>2020-07-13T10:20:16Z</time>
      </trkpt>
      <trkpt lat="44.74277" lon="1.8254">
        <ele>357.27</ele>
        <time>2020-07-13T10:20:37Z</time>
      </trkpt>
      <trkpt lat="44.74301" lon="1.82525">
        <ele>358.23</ele>
        <time>2020-07-13T10:20:59Z</time>
      </trkpt>
      <trkpt lat="44.74319" lon="1.82513">
        <ele>358.71</ele>
        <time>2020-07-13T10:21:18Z</time>
      </trkpt>
      <trkpt lat="44.74336" lon="1.82502">
        <ele>360.15</ele>
        <time>2020-07-13T10:21:39Z</time>
      </trkpt>
      <trkpt lat="44.7436" lon="1.8251">
        <ele>362.55</ele>
        <time>2020-07-13T10:22:01Z</time>
      </trkpt>
      <trkpt lat="44.7438" lon="1.82525">
        <ele>364.48</ele>
        <time>2020-07-13T10:22:24Z</time>
      </trkpt>
      <trkpt lat="44.74399" lon="1.82535">
        <ele>363.52</ele>
        <time>2020-07-13T10:22:44Z</time>
      </trkpt>
      <trkpt lat="44.74416" lon="1.8255">
        <ele>364</ele>
        <time>2020-07-13T10:23:02Z</time>
      </trkpt>
      <trkpt lat="44.7443" lon="1.82565">
        <ele>363.04</ele>
        <time>2020-07-13T10:23:21Z</time>
      </trkpt>
      <trkpt lat="44.74443" lon="1.82579">
        <ele>361.59</ele>
        <time>2020-07-13T10:23:39Z</time>
      </trkpt>
      <trkpt lat="44.7446" lon="1.82587">
        <ele>362.55</ele>
        <time>2020-07-13T10:23:57Z</time>
      </trkpt>
      <trkpt lat="44.74463" lon="1.82588">
        <ele>361.11</ele>
        <time>2020-07-13T10:24:02Z</time>
      </trkpt>
      <trkpt lat="44.74485" lon="1.82593">
        <ele>359.67</ele>
        <time>2020-07-13T10:24:20Z</time>
      </trkpt>
      <trkpt lat="44.74491" lon="1.82592">
        <ele>359.67</ele>
        <time>2020-07-13T10:24:25Z</time>
      </trkpt>
      <trkpt lat="44.74514" lon="1.82594">
        <ele>358.23</ele>
        <time>2020-07-13T10:24:45Z</time>
      </trkpt>
      <trkpt lat="44.74533" lon="1.82587">
        <ele>357.27</ele>
        <time>2020-07-13T10:25:04Z</time>
      </trkpt>
      <trkpt lat="44.74556" lon="1.82578">
        <ele>355.83</ele>
        <time>2020-07-13T10:25:23Z</time>
      </trkpt>
      <trkpt lat="44.74566" lon="1.82576">
        <ele>354.38</ele>
        <time>2020-07-13T10:25:31Z</time>
      </trkpt>
      <trkpt lat="44.74592" lon="1.82567">
        <ele>354.38</ele>
        <time>2020-07-13T10:25:51Z</time>
      </trkpt>
      <trkpt lat="44.74613" lon="1.82566">
        <ele>353.9</ele>
        <time>2020-07-13T10:26:11Z</time>
      </trkpt>
      <trkpt lat="44.74634" lon="1.82551">
        <ele>354.86</ele>
        <time>2020-07-13T10:26:31Z</time>
      </trkpt>
      <trkpt lat="44.74642" lon="1.82545">
        <ele>353.42</ele>
        <time>2020-07-13T10:26:38Z</time>
      </trkpt>
      <trkpt lat="44.74644" lon="1.82544">
        <ele>354.38</ele>
        <time>2020-07-13T10:26:40Z</time>
      </trkpt>
      <trkpt lat="44.74673" lon="1.82534">
        <ele>354.86</ele>
        <time>2020-07-13T10:27:02Z</time>
      </trkpt>
      <trkpt lat="44.74685" lon="1.82529">
        <ele>354.86</ele>
        <time>2020-07-13T10:27:10Z</time>
      </trkpt>
      <trkpt lat="44.74698" lon="1.82521">
        <ele>354.86</ele>
        <time>2020-07-13T10:27:24Z</time>
      </trkpt>
      <trkpt lat="44.74717" lon="1.8251">
        <ele>354.86</ele>
        <time>2020-07-13T10:27:42Z</time>
      </trkpt>
      <trkpt lat="44.7474" lon="1.82493">
        <ele>354.86</ele>
        <time>2020-07-13T10:28:03Z</time>
      </trkpt>
      <trkpt lat="44.74757" lon="1.82482">
        <ele>353.9</ele>
        <time>2020-07-13T10:28:20Z</time>
      </trkpt>
      <trkpt lat="44.7478" lon="1.82473">
        <ele>353.9</ele>
        <time>2020-07-13T10:28:39Z</time>
      </trkpt>
      <trkpt lat="44.74786" lon="1.82472">
        <ele>353.9</ele>
        <time>2020-07-13T10:28:56Z</time>
      </trkpt>
      <trkpt lat="44.74789" lon="1.82464">
        <ele>354.86</ele>
        <time>2020-07-13T10:29:01Z</time>
      </trkpt>
      <trkpt lat="44.74794" lon="1.82453">
        <ele>354.86</ele>
        <time>2020-07-13T10:29:09Z</time>
      </trkpt>
      <trkpt lat="44.74809" lon="1.82436">
        <ele>355.34</ele>
        <time>2020-07-13T10:29:24Z</time>
      </trkpt>
      <trkpt lat="44.74811" lon="1.82434">
        <ele>355.34</ele>
        <time>2020-07-13T10:29:27Z</time>
      </trkpt>
      <trkpt lat="44.74828" lon="1.82416">
        <ele>353.9</ele>
        <time>2020-07-13T10:29:45Z</time>
      </trkpt>
      <trkpt lat="44.74832" lon="1.82409">
        <ele>355.34</ele>
        <time>2020-07-13T10:30:02Z</time>
      </trkpt>
      <trkpt lat="44.74837" lon="1.82405">
        <ele>354.86</ele>
        <time>2020-07-13T10:30:09Z</time>
      </trkpt>
      <trkpt lat="44.7484" lon="1.82402">
        <ele>353.9</ele>
        <time>2020-07-13T10:30:12Z</time>
      </trkpt>
      <trkpt lat="44.74849" lon="1.82387">
        <ele>354.86</ele>
        <time>2020-07-13T10:30:29Z</time>
      </trkpt>
      <trkpt lat="44.74847" lon="1.82379">
        <ele>354.86</ele>
        <time>2020-07-13T10:30:44Z</time>
      </trkpt>
      <trkpt lat="44.74837" lon="1.82369">
        <ele>354.86</ele>
        <time>2020-07-13T10:30:57Z</time>
      </trkpt>
      <trkpt lat="44.74836" lon="1.82367">
        <ele>354.86</ele>
        <time>2020-07-13T10:30:59Z</time>
      </trkpt>
      <trkpt lat="44.74823" lon="1.82349">
        <ele>354.38</ele>
        <time>2020-07-13T10:31:16Z</time>
      </trkpt>
      <trkpt lat="44.74809" lon="1.82337">
        <ele>354.38</ele>
        <time>2020-07-13T10:31:34Z</time>
      </trkpt>
      <trkpt lat="44.74793" lon="1.82319">
        <ele>353.42</ele>
        <time>2020-07-13T10:31:53Z</time>
      </trkpt>
      <trkpt lat="44.74778" lon="1.82302">
        <ele>352.46</ele>
        <time>2020-07-13T10:32:07Z</time>
      </trkpt>
      <trkpt lat="44.74763" lon="1.82281">
        <ele>351.5</ele>
        <time>2020-07-13T10:32:25Z</time>
      </trkpt>
      <trkpt lat="44.74748" lon="1.82255">
        <ele>350.54</ele>
        <time>2020-07-13T10:32:45Z</time>
      </trkpt>
      <trkpt lat="44.74744" lon="1.82223">
        <ele>349.1</ele>
        <time>2020-07-13T10:33:04Z</time>
      </trkpt>
      <trkpt lat="44.74747" lon="1.82194">
        <ele>349.1</ele>
        <time>2020-07-13T10:33:23Z</time>
      </trkpt>
      <trkpt lat="44.74747" lon="1.8219">
        <ele>349.1</ele>
        <time>2020-07-13T10:33:25Z</time>
      </trkpt>
      <trkpt lat="44.7475" lon="1.82154">
        <ele>349.1</ele>
        <time>2020-07-13T10:33:47Z</time>
      </trkpt>
      <trkpt lat="44.74753" lon="1.82145">
        <ele>350.54</ele>
        <time>2020-07-13T10:33:52Z</time>
      </trkpt>
      <trkpt lat="44.74755" lon="1.82131">
        <ele>350.54</ele>
        <time>2020-07-13T10:34:02Z</time>
      </trkpt>
      <trkpt lat="44.74758" lon="1.82106">
        <ele>351.98</ele>
        <time>2020-07-13T10:34:21Z</time>
      </trkpt>
      <trkpt lat="44.74751" lon="1.82075">
        <ele>352.46</ele>
        <time>2020-07-13T10:34:41Z</time>
      </trkpt>
      <trkpt lat="44.7475" lon="1.82059">
        <ele>351.98</ele>
        <time>2020-07-13T10:34:51Z</time>
      </trkpt>
      <trkpt lat="44.74749" lon="1.82046">
        <ele>353.42</ele>
        <time>2020-07-13T10:34:58Z</time>
      </trkpt>
      <trkpt lat="44.74748" lon="1.82039">
        <ele>353.42</ele>
        <time>2020-07-13T10:35:02Z</time>
      </trkpt>
      <trkpt lat="44.74745" lon="1.82032">
        <ele>351.98</ele>
        <time>2020-07-13T10:35:06Z</time>
      </trkpt>
      <trkpt lat="44.74744" lon="1.82028">
        <ele>353.42</ele>
        <time>2020-07-13T10:35:08Z</time>
      </trkpt>
      <trkpt lat="44.74734" lon="1.8201">
        <ele>351.98</ele>
        <time>2020-07-13T10:35:23Z</time>
      </trkpt>
      <trkpt lat="44.74716" lon="1.81985">
        <ele>351.5</ele>
        <time>2020-07-13T10:35:44Z</time>
      </trkpt>
      <trkpt lat="44.74704" lon="1.81956">
        <ele>350.06</ele>
        <time>2020-07-13T10:36:04Z</time>
      </trkpt>
      <trkpt lat="44.74699" lon="1.81945">
        <ele>349.1</ele>
        <time>2020-07-13T10:36:11Z</time>
      </trkpt>
      <trkpt lat="44.74688" lon="1.81914">
        <ele>348.62</ele>
        <time>2020-07-13T10:36:31Z</time>
      </trkpt>
      <trkpt lat="44.74688" lon="1.81912">
        <ele>348.62</ele>
        <time>2020-07-13T10:36:32Z</time>
      </trkpt>
      <trkpt lat="44.74687" lon="1.81881">
        <ele>346.69</ele>
        <time>2020-07-13T10:36:50Z</time>
      </trkpt>
      <trkpt lat="44.74688" lon="1.81858">
        <ele>346.21</ele>
        <time>2020-07-13T10:37:10Z</time>
      </trkpt>
      <trkpt lat="44.74689" lon="1.81857">
        <ele>345.73</ele>
        <time>2020-07-13T10:37:11Z</time>
      </trkpt>
      <trkpt lat="44.74692" lon="1.8183">
        <ele>345.73</ele>
        <time>2020-07-13T10:37:29Z</time>
      </trkpt>
      <trkpt lat="44.74697" lon="1.81815">
        <ele>343.81</ele>
        <time>2020-07-13T10:37:38Z</time>
      </trkpt>
      <trkpt lat="44.74705" lon="1.81778">
        <ele>342.85</ele>
        <time>2020-07-13T10:38:00Z</time>
      </trkpt>
      <trkpt lat="44.74706" lon="1.81774">
        <ele>343.81</ele>
        <time>2020-07-13T10:38:02Z</time>
      </trkpt>
      <trkpt lat="44.74707" lon="1.81771">
        <ele>342.37</ele>
        <time>2020-07-13T10:38:04Z</time>
      </trkpt>
      <trkpt lat="44.74708" lon="1.81761">
        <ele>343.81</ele>
        <time>2020-07-13T10:38:10Z</time>
      </trkpt>
      <trkpt lat="44.74708" lon="1.81756">
        <ele>342.37</ele>
        <time>2020-07-13T10:38:13Z</time>
      </trkpt>
      <trkpt lat="44.74712" lon="1.81726">
        <ele>343.81</ele>
        <time>2020-07-13T10:38:31Z</time>
      </trkpt>
      <trkpt lat="44.74717" lon="1.81691">
        <ele>343.81</ele>
        <time>2020-07-13T10:38:50Z</time>
      </trkpt>
      <trkpt lat="44.7472" lon="1.81663">
        <ele>343.81</ele>
        <time>2020-07-13T10:39:09Z</time>
      </trkpt>
      <trkpt lat="44.74721" lon="1.81656">
        <ele>343.81</ele>
        <time>2020-07-13T10:39:30Z</time>
      </trkpt>
      <trkpt lat="44.74724" lon="1.81641">
        <ele>344.29</ele>
        <time>2020-07-13T10:39:48Z</time>
      </trkpt>
      <trkpt lat="44.74728" lon="1.81618">
        <ele>343.33</ele>
        <time>2020-07-13T10:40:05Z</time>
      </trkpt>
      <trkpt lat="44.7473" lon="1.81596">
        <ele>344.77</ele>
        <time>2020-07-13T10:40:15Z</time>
      </trkpt>
      <trkpt lat="44.74735" lon="1.81582">
        <ele>344.77</ele>
        <time>2020-07-13T10:40:24Z</time>
      </trkpt>
      <trkpt lat="44.74745" lon="1.81572">
        <ele>344.77</ele>
        <time>2020-07-13T10:40:38Z</time>
      </trkpt>
      <trkpt lat="44.7475" lon="1.81566">
        <ele>344.77</ele>
        <time>2020-07-13T10:40:46Z</time>
      </trkpt>
      <trkpt lat="44.74762" lon="1.81561">
        <ele>345.25</ele>
        <time>2020-07-13T10:40:58Z</time>
      </trkpt>
      <trkpt lat="44.74765" lon="1.81558">
        <ele>345.73</ele>
        <time>2020-07-13T10:41:15Z</time>
      </trkpt>
      <trkpt lat="44.74766" lon="1.81559">
        <ele>345.73</ele>
        <time>2020-07-13T10:41:35Z</time>
      </trkpt>
      <trkpt lat="44.74766" lon="1.81559">
        <ele>345.73</ele>
        <time>2020-07-13T10:41:54Z</time>
      </trkpt>
      <trkpt lat="44.74767" lon="1.81559">
        <ele>345.25</ele>
        <time>2020-07-13T10:42:23Z</time>
      </trkpt>
      <trkpt lat="44.74768" lon="1.81559">
        <ele>345.25</ele>
        <time>2020-07-13T10:42:50Z</time>
      </trkpt>
      <trkpt lat="44.74769" lon="1.81561">
        <ele>345.25</ele>
        <time>2020-07-13T10:43:13Z</time>
      </trkpt>
      <trkpt lat="44.74767" lon="1.81562">
        <ele>343.81</ele>
        <time>2020-07-13T10:43:43Z</time>
      </trkpt>
      <trkpt lat="44.74771" lon="1.81562">
        <ele>343.81</ele>
        <time>2020-07-13T10:44:23Z</time>
      </trkpt>
      <trkpt lat="44.74771" lon="1.81562">
        <ele>343.81</ele>
        <time>2020-07-13T10:44:58Z</time>
      </trkpt>
      <trkpt lat="44.7477" lon="1.81565">
        <ele>343.81</ele>
        <time>2020-07-13T10:45:31Z</time>
      </trkpt>
      <trkpt lat="44.74771" lon="1.81565">
        <ele>343.81</ele>
        <time>2020-07-13T10:46:03Z</time>
      </trkpt>
      <trkpt lat="44.74771" lon="1.8156">
        <ele>344.77</ele>
        <time>2020-07-13T10:46:21Z</time>
      </trkpt>
      <trkpt lat="44.74768" lon="1.81559">
        <ele>344.77</ele>
        <time>2020-07-13T10:46:54Z</time>
      </trkpt>
      <trkpt lat="44.74769" lon="1.8156">
        <ele>344.77</ele>
        <time>2020-07-13T10:47:15Z</time>
      </trkpt>
      <trkpt lat="44.7477" lon="1.81562">
        <ele>344.77</ele>
        <time>2020-07-13T10:47:33Z</time>
      </trkpt>
      <trkpt lat="44.74771" lon="1.81561">
        <ele>344.77</ele>
        <time>2020-07-13T10:48:06Z</time>
      </trkpt>
      <trkpt lat="44.74768" lon="1.81561">
        <ele>344.77</ele>
        <time>2020-07-13T10:48:37Z</time>
      </trkpt>
      <trkpt lat="44.74769" lon="1.81559">
        <ele>344.77</ele>
        <time>2020-07-13T10:48:59Z</time>
      </trkpt>
      <trkpt lat="44.74769" lon="1.81556">
        <ele>344.29</ele>
        <time>2020-07-13T10:49:32Z</time>
      </trkpt>
      <trkpt lat="44.74765" lon="1.81555">
        <ele>344.29</ele>
        <time>2020-07-13T10:50:05Z</time>
      </trkpt>
      <trkpt lat="44.74768" lon="1.81561">
        <ele>344.29</ele>
        <time>2020-07-13T10:50:37Z</time>
      </trkpt>
      <trkpt lat="44.74767" lon="1.8156">
        <ele>344.29</ele>
        <time>2020-07-13T10:51:08Z</time>
      </trkpt>
      <trkpt lat="44.7477" lon="1.81563">
        <ele>344.29</ele>
        <time>2020-07-13T10:51:35Z</time>
      </trkpt>
      <trkpt lat="44.74765" lon="1.81557">
        <ele>344.29</ele>
        <time>2020-07-13T10:52:09Z</time>
      </trkpt>
      <trkpt lat="44.74765" lon="1.81551">
        <ele>344.29</ele>
        <time>2020-07-13T10:52:43Z</time>
      </trkpt>
      <trkpt lat="44.74768" lon="1.81556">
        <ele>344.29</ele>
        <time>2020-07-13T10:53:09Z</time>
      </trkpt>
      <trkpt lat="44.74767" lon="1.81558">
        <ele>344.29</ele>
        <time>2020-07-13T10:53:40Z</time>
      </trkpt>
      <trkpt lat="44.74767" lon="1.81553">
        <ele>344.29</ele>
        <time>2020-07-13T10:54:06Z</time>
      </trkpt>
      <trkpt lat="44.74763" lon="1.81553">
        <ele>344.29</ele>
        <time>2020-07-13T10:54:36Z</time>
      </trkpt>
      <trkpt lat="44.74768" lon="1.81556">
        <ele>344.77</ele>
        <time>2020-07-13T10:55:05Z</time>
      </trkpt>
      <trkpt lat="44.74765" lon="1.81558">
        <ele>344.77</ele>
        <time>2020-07-13T10:55:40Z</time>
      </trkpt>
      <trkpt lat="44.74767" lon="1.81558">
        <ele>344.77</ele>
        <time>2020-07-13T10:56:17Z</time>
      </trkpt>
      <trkpt lat="44.74768" lon="1.8156">
        <ele>344.77</ele>
        <time>2020-07-13T10:57:02Z</time>
      </trkpt>
      <trkpt lat="44.74766" lon="1.81563">
        <ele>344.29</ele>
        <time>2020-07-13T10:57:41Z</time>
      </trkpt>
      <trkpt lat="44.74767" lon="1.81563">
        <ele>344.29</ele>
        <time>2020-07-13T10:58:23Z</time>
      </trkpt>
      <trkpt lat="44.7477" lon="1.81561">
        <ele>344.29</ele>
        <time>2020-07-13T10:59:04Z</time>
      </trkpt>
      <trkpt lat="44.74772" lon="1.8156">
        <ele>344.29</ele>
        <time>2020-07-13T10:59:47Z</time>
      </trkpt>
      <trkpt lat="44.74769" lon="1.81561">
        <ele>344.29</ele>
        <time>2020-07-13T11:00:19Z</time>
      </trkpt>
      <trkpt lat="44.74769" lon="1.8156">
        <ele>344.29</ele>
        <time>2020-07-13T11:00:54Z</time>
      </trkpt>
      <trkpt lat="44.74767" lon="1.81562">
        <ele>344.29</ele>
        <time>2020-07-13T11:01:26Z</time>
      </trkpt>
      <trkpt lat="44.74763" lon="1.81563">
        <ele>344.29</ele>
        <time>2020-07-13T11:01:50Z</time>
      </trkpt>
      <trkpt lat="44.74765" lon="1.81562">
        <ele>344.77</ele>
        <time>2020-07-13T11:02:22Z</time>
      </trkpt>
      <trkpt lat="44.74766" lon="1.81563">
        <ele>344.77</ele>
        <time>2020-07-13T11:02:55Z</time>
      </trkpt>
      <trkpt lat="44.74765" lon="1.81566">
        <ele>344.77</ele>
        <time>2020-07-13T11:03:23Z</time>
      </trkpt>
      <trkpt lat="44.74765" lon="1.81565">
        <ele>344.77</ele>
        <time>2020-07-13T11:03:57Z</time>
      </trkpt>
      <trkpt lat="44.74768" lon="1.81565">
        <ele>344.77</ele>
        <time>2020-07-13T11:04:25Z</time>
      </trkpt>
      <trkpt lat="44.74768" lon="1.81562">
        <ele>344.77</ele>
        <time>2020-07-13T11:04:59Z</time>
      </trkpt>
      <trkpt lat="44.74764" lon="1.81563">
        <ele>344.77</ele>
        <time>2020-07-13T11:05:31Z</time>
      </trkpt>
      <trkpt lat="44.74764" lon="1.81561">
        <ele>344.77</ele>
        <time>2020-07-13T11:06:07Z</time>
      </trkpt>
      <trkpt lat="44.74767" lon="1.81565">
        <ele>344.77</ele>
        <time>2020-07-13T11:06:51Z</time>
      </trkpt>
      <trkpt lat="44.74766" lon="1.81563">
        <ele>344.77</ele>
        <time>2020-07-13T11:07:33Z</time>
      </trkpt>
      <trkpt lat="44.74765" lon="1.81564">
        <ele>344.77</ele>
        <time>2020-07-13T11:08:06Z</time>
      </trkpt>
      <trkpt lat="44.74766" lon="1.81564">
        <ele>344.77</ele>
        <time>2020-07-13T11:08:42Z</time>
      </trkpt>
      <trkpt lat="44.74767" lon="1.81566">
        <ele>344.77</ele>
        <time>2020-07-13T11:09:11Z</time>
      </trkpt>
      <trkpt lat="44.74766" lon="1.81565">
        <ele>344.77</ele>
        <time>2020-07-13T11:09:45Z</time>
      </trkpt>
      <trkpt lat="44.74766" lon="1.81567">
        <ele>344.29</ele>
        <time>2020-07-13T11:10:17Z</time>
      </trkpt>
      <trkpt lat="44.74765" lon="1.81567">
        <ele>344.29</ele>
        <time>2020-07-13T11:10:46Z</time>
      </trkpt>
      <trkpt lat="44.7476" lon="1.8156">
        <ele>344.29</ele>
        <time>2020-07-13T11:11:20Z</time>
      </trkpt>
      <trkpt lat="44.74763" lon="1.8156">
        <ele>344.29</ele>
        <time>2020-07-13T11:11:58Z</time>
      </trkpt>
      <trkpt lat="44.74765" lon="1.81562">
        <ele>344.29</ele>
        <time>2020-07-13T11:12:35Z</time>
      </trkpt>
      <trkpt lat="44.74763" lon="1.81563">
        <ele>344.29</ele>
        <time>2020-07-13T11:13:09Z</time>
      </trkpt>
      <trkpt lat="44.74767" lon="1.81561">
        <ele>344.29</ele>
        <time>2020-07-13T11:13:48Z</time>
      </trkpt>
      <trkpt lat="44.74764" lon="1.81562">
        <ele>344.29</ele>
        <time>2020-07-13T11:14:32Z</time>
      </trkpt>
      <trkpt lat="44.74765" lon="1.81563">
        <ele>344.29</ele>
        <time>2020-07-13T11:15:08Z</time>
      </trkpt>
      <trkpt lat="44.74762" lon="1.81563">
        <ele>344.29</ele>
        <time>2020-07-13T11:15:46Z</time>
      </trkpt>
      <trkpt lat="44.74763" lon="1.81559">
        <ele>344.29</ele>
        <time>2020-07-13T11:16:17Z</time>
      </trkpt>
      <trkpt lat="44.74762" lon="1.81563">
        <ele>344.77</ele>
        <time>2020-07-13T11:16:59Z</time>
      </trkpt>
      <trkpt lat="44.74765" lon="1.81563">
        <ele>344.77</ele>
        <time>2020-07-13T11:17:36Z</time>
      </trkpt>
      <trkpt lat="44.74764" lon="1.8156">
        <ele>344.77</ele>
        <time>2020-07-13T11:18:02Z</time>
      </trkpt>
      <trkpt lat="44.74763" lon="1.81563">
        <ele>344.77</ele>
        <time>2020-07-13T11:18:27Z</time>
      </trkpt>
      <trkpt lat="44.74766" lon="1.81563">
        <ele>344.77</ele>
        <time>2020-07-13T11:18:54Z</time>
      </trkpt>
      <trkpt lat="44.74767" lon="1.81566">
        <ele>344.77</ele>
        <time>2020-07-13T11:19:18Z</time>
      </trkpt>
      <trkpt lat="44.74765" lon="1.81565">
        <ele>344.77</ele>
        <time>2020-07-13T11:19:50Z</time>
      </trkpt>
      <trkpt lat="44.74761" lon="1.81563">
        <ele>344.77</ele>
        <time>2020-07-13T11:20:21Z</time>
      </trkpt>
      <trkpt lat="44.74765" lon="1.81561">
        <ele>344.77</ele>
        <time>2020-07-13T11:20:49Z</time>
      </trkpt>
      <trkpt lat="44.74766" lon="1.81564">
        <ele>344.77</ele>
        <time>2020-07-13T11:21:27Z</time>
      </trkpt>
      <trkpt lat="44.74764" lon="1.81567">
        <ele>344.77</ele>
        <time>2020-07-13T11:22:00Z</time>
      </trkpt>
      <trkpt lat="44.74765" lon="1.81563">
        <ele>345.25</ele>
        <time>2020-07-13T11:22:34Z</time>
      </trkpt>
      <trkpt lat="44.74765" lon="1.8156">
        <ele>345.25</ele>
        <time>2020-07-13T11:23:08Z</time>
      </trkpt>
      <trkpt lat="44.74768" lon="1.81562">
        <ele>345.25</ele>
        <time>2020-07-13T11:23:51Z</time>
      </trkpt>
      <trkpt lat="44.74766" lon="1.81565">
        <ele>345.25</ele>
        <time>2020-07-13T11:24:37Z</time>
      </trkpt>
      <trkpt lat="44.74765" lon="1.81563">
        <ele>345.25</ele>
        <time>2020-07-13T11:25:18Z</time>
      </trkpt>
      <trkpt lat="44.74766" lon="1.81564">
        <ele>345.73</ele>
        <time>2020-07-13T11:25:56Z</time>
      </trkpt>
      <trkpt lat="44.74765" lon="1.81562">
        <ele>345.73</ele>
        <time>2020-07-13T11:26:24Z</time>
      </trkpt>
      <trkpt lat="44.74765" lon="1.81565">
        <ele>345.73</ele>
        <time>2020-07-13T11:26:49Z</time>
      </trkpt>
      <trkpt lat="44.74766" lon="1.81565">
        <ele>345.73</ele>
        <time>2020-07-13T11:27:15Z</time>
      </trkpt>
      <trkpt lat="44.74766" lon="1.81563">
        <ele>345.73</ele>
        <time>2020-07-13T11:27:46Z</time>
      </trkpt>
      <trkpt lat="44.74766" lon="1.81564">
        <ele>345.25</ele>
        <time>2020-07-13T11:28:14Z</time>
      </trkpt>
      <trkpt lat="44.74766" lon="1.81562">
        <ele>345.25</ele>
        <time>2020-07-13T11:28:45Z</time>
      </trkpt>
      <trkpt lat="44.74766" lon="1.81558">
        <ele>345.73</ele>
        <time>2020-07-13T11:29:20Z</time>
      </trkpt>
      <trkpt lat="44.74767" lon="1.81564">
        <ele>345.73</ele>
        <time>2020-07-13T11:29:49Z</time>
      </trkpt>
      <trkpt lat="44.74766" lon="1.81563">
        <ele>345.73</ele>
        <time>2020-07-13T11:30:19Z</time>
      </trkpt>
      <trkpt lat="44.74764" lon="1.81566">
        <ele>345.73</ele>
        <time>2020-07-13T11:30:47Z</time>
      </trkpt>
      <trkpt lat="44.74762" lon="1.81566">
        <ele>345.73</ele>
        <time>2020-07-13T11:31:16Z</time>
      </trkpt>
      <trkpt lat="44.74765" lon="1.81563">
        <ele>345.73</ele>
        <time>2020-07-13T11:31:55Z</time>
      </trkpt>
      <trkpt lat="44.74763" lon="1.81563">
        <ele>345.73</ele>
        <time>2020-07-13T11:32:21Z</time>
      </trkpt>
      <trkpt lat="44.74764" lon="1.81562">
        <ele>345.25</ele>
        <time>2020-07-13T11:32:59Z</time>
      </trkpt>
      <trkpt lat="44.74765" lon="1.81561">
        <ele>345.25</ele>
        <time>2020-07-13T11:33:30Z</time>
      </trkpt>
      <trkpt lat="44.74764" lon="1.81561">
        <ele>345.25</ele>
        <time>2020-07-13T11:34:00Z</time>
      </trkpt>
      <trkpt lat="44.74766" lon="1.81564">
        <ele>345.25</ele>
        <time>2020-07-13T11:34:24Z</time>
      </trkpt>
      <trkpt lat="44.74766" lon="1.81563">
        <ele>345.25</ele>
        <time>2020-07-13T11:34:52Z</time>
      </trkpt>
      <trkpt lat="44.74763" lon="1.81562">
        <ele>345.25</ele>
        <time>2020-07-13T11:35:17Z</time>
      </trkpt>
      <trkpt lat="44.74764" lon="1.81563">
        <ele>345.25</ele>
        <time>2020-07-13T11:35:46Z</time>
      </trkpt>
      <trkpt lat="44.74768" lon="1.81563">
        <ele>345.25</ele>
        <time>2020-07-13T11:36:21Z</time>
      </trkpt>
      <trkpt lat="44.74768" lon="1.81561">
        <ele>344.77</ele>
        <time>2020-07-13T11:36:57Z</time>
      </trkpt>
      <trkpt lat="44.74768" lon="1.8156">
        <ele>344.77</ele>
        <time>2020-07-13T11:37:19Z</time>
      </trkpt>
      <trkpt lat="44.74767" lon="1.81562">
        <ele>344.77</ele>
        <time>2020-07-13T11:37:50Z</time>
      </trkpt>
      <trkpt lat="44.74763" lon="1.81564">
        <ele>344.77</ele>
        <time>2020-07-13T11:38:26Z</time>
      </trkpt>
      <trkpt lat="44.74765" lon="1.81565">
        <ele>344.77</ele>
        <time>2020-07-13T11:39:01Z</time>
      </trkpt>
      <trkpt lat="44.74766" lon="1.81563">
        <ele>344.77</ele>
        <time>2020-07-13T11:39:36Z</time>
      </trkpt>
      <trkpt lat="44.74764" lon="1.81564">
        <ele>344.77</ele>
        <time>2020-07-13T11:40:05Z</time>
      </trkpt>
      <trkpt lat="44.74765" lon="1.81563">
        <ele>344.77</ele>
        <time>2020-07-13T11:40:34Z</time>
      </trkpt>
      <trkpt lat="44.74766" lon="1.81564">
        <ele>344.29</ele>
        <time>2020-07-13T11:41:09Z</time>
      </trkpt>
      <trkpt lat="44.74763" lon="1.81565">
        <ele>344.29</ele>
        <time>2020-07-13T11:41:43Z</time>
      </trkpt>
      <trkpt lat="44.74765" lon="1.81565">
        <ele>344.29</ele>
        <time>2020-07-13T11:42:18Z</time>
      </trkpt>
      <trkpt lat="44.74763" lon="1.81567">
        <ele>344.29</ele>
        <time>2020-07-13T11:42:54Z</time>
      </trkpt>
      <trkpt lat="44.74763" lon="1.81563">
        <ele>344.29</ele>
        <time>2020-07-13T11:43:22Z</time>
      </trkpt>
      <trkpt lat="44.74764" lon="1.81563">
        <ele>344.29</ele>
        <time>2020-07-13T11:43:50Z</time>
      </trkpt>
      <trkpt lat="44.74765" lon="1.81563">
        <ele>344.29</ele>
        <time>2020-07-13T11:44:12Z</time>
      </trkpt>
      <trkpt lat="44.74764" lon="1.81561">
        <ele>344.29</ele>
        <time>2020-07-13T11:44:37Z</time>
      </trkpt>
      <trkpt lat="44.74764" lon="1.81562">
        <ele>344.29</ele>
        <time>2020-07-13T11:45:04Z</time>
      </trkpt>
      <trkpt lat="44.74765" lon="1.81563">
        <ele>344.29</ele>
        <time>2020-07-13T11:45:36Z</time>
      </trkpt>
      <trkpt lat="44.74764" lon="1.81564">
        <ele>344.29</ele>
        <time>2020-07-13T11:46:12Z</time>
      </trkpt>
      <trkpt lat="44.74767" lon="1.81563">
        <ele>344.29</ele>
        <time>2020-07-13T11:46:37Z</time>
      </trkpt>
      <trkpt lat="44.74764" lon="1.81561">
        <ele>343.81</ele>
        <time>2020-07-13T11:47:10Z</time>
      </trkpt>
      <trkpt lat="44.74764" lon="1.81566">
        <ele>343.81</ele>
        <time>2020-07-13T11:47:47Z</time>
      </trkpt>
      <trkpt lat="44.74765" lon="1.81565">
        <ele>343.81</ele>
        <time>2020-07-13T11:48:29Z</time>
      </trkpt>
      <trkpt lat="44.74766" lon="1.81563">
        <ele>343.81</ele>
        <time>2020-07-13T11:49:07Z</time>
      </trkpt>
      <trkpt lat="44.74767" lon="1.81563">
        <ele>343.81</ele>
        <time>2020-07-13T11:49:33Z</time>
      </trkpt>
      <trkpt lat="44.74765" lon="1.81564">
        <ele>343.81</ele>
        <time>2020-07-13T11:50:01Z</time>
      </trkpt>
      <trkpt lat="44.74765" lon="1.81563">
        <ele>343.81</ele>
        <time>2020-07-13T11:50:27Z</time>
      </trkpt>
      <trkpt lat="44.74766" lon="1.81563">
        <ele>343.81</ele>
        <time>2020-07-13T11:50:59Z</time>
      </trkpt>
      <trkpt lat="44.74766" lon="1.81563">
        <ele>343.81</ele>
        <time>2020-07-13T11:51:30Z</time>
      </trkpt>
      <trkpt lat="44.74765" lon="1.81568">
        <ele>343.81</ele>
        <time>2020-07-13T11:52:05Z</time>
      </trkpt>
      <trkpt lat="44.74766" lon="1.81566">
        <ele>343.81</ele>
        <time>2020-07-13T11:52:48Z</time>
      </trkpt>
      <trkpt lat="44.74765" lon="1.81564">
        <ele>343.81</ele>
        <time>2020-07-13T11:53:13Z</time>
      </trkpt>
      <trkpt lat="44.74764" lon="1.81562">
        <ele>343.81</ele>
        <time>2020-07-13T11:53:53Z</time>
      </trkpt>
      <trkpt lat="44.74765" lon="1.81564">
        <ele>343.81</ele>
        <time>2020-07-13T11:54:23Z</time>
      </trkpt>
      <trkpt lat="44.74765" lon="1.81562">
        <ele>343.81</ele>
        <time>2020-07-13T11:54:56Z</time>
      </trkpt>
      <trkpt lat="44.74763" lon="1.81562">
        <ele>343.81</ele>
        <time>2020-07-13T11:55:26Z</time>
      </trkpt>
      <trkpt lat="44.74766" lon="1.81563">
        <ele>344.29</ele>
        <time>2020-07-13T11:56:01Z</time>
      </trkpt>
      <trkpt lat="44.74769" lon="1.81563">
        <ele>344.29</ele>
        <time>2020-07-13T11:56:33Z</time>
      </trkpt>
      <trkpt lat="44.74765" lon="1.81564">
        <ele>344.29</ele>
        <time>2020-07-13T11:57:05Z</time>
      </trkpt>
      <trkpt lat="44.74765" lon="1.81569">
        <ele>344.29</ele>
        <time>2020-07-13T11:57:29Z</time>
      </trkpt>
      <trkpt lat="44.74764" lon="1.81569">
        <ele>344.29</ele>
        <time>2020-07-13T11:57:58Z</time>
      </trkpt>
      <trkpt lat="44.74763" lon="1.81565">
        <ele>344.29</ele>
        <time>2020-07-13T11:58:27Z</time>
      </trkpt>
      <trkpt lat="44.74766" lon="1.81561">
        <ele>344.29</ele>
        <time>2020-07-13T11:59:09Z</time>
      </trkpt>
      <trkpt lat="44.74764" lon="1.81563">
        <ele>344.29</ele>
        <time>2020-07-13T11:59:49Z</time>
      </trkpt>
      <trkpt lat="44.74766" lon="1.81565">
        <ele>344.29</ele>
        <time>2020-07-13T12:00:35Z</time>
      </trkpt>
      <trkpt lat="44.74766" lon="1.81563">
        <ele>344.29</ele>
        <time>2020-07-13T12:01:09Z</time>
      </trkpt>
      <trkpt lat="44.74764" lon="1.81564">
        <ele>344.29</ele>
        <time>2020-07-13T12:01:52Z</time>
      </trkpt>
      <trkpt lat="44.74763" lon="1.81564">
        <ele>344.29</ele>
        <time>2020-07-13T12:02:25Z</time>
      </trkpt>
      <trkpt lat="44.74764" lon="1.81564">
        <ele>344.29</ele>
        <time>2020-07-13T12:02:57Z</time>
      </trkpt>
      <trkpt lat="44.74766" lon="1.81564">
        <ele>344.29</ele>
        <time>2020-07-13T12:03:32Z</time>
      </trkpt>
      <trkpt lat="44.74765" lon="1.81562">
        <ele>343.81</ele>
        <time>2020-07-13T12:04:09Z</time>
      </trkpt>
      <trkpt lat="44.74765" lon="1.81563">
        <ele>343.81</ele>
        <time>2020-07-13T12:04:39Z</time>
      </trkpt>
      <trkpt lat="44.74765" lon="1.81564">
        <ele>343.81</ele>
        <time>2020-07-13T12:05:11Z</time>
      </trkpt>
      <trkpt lat="44.74763" lon="1.81562">
        <ele>343.81</ele>
        <time>2020-07-13T12:05:47Z</time>
      </trkpt>
      <trkpt lat="44.74765" lon="1.8156">
        <ele>343.81</ele>
        <time>2020-07-13T12:06:12Z</time>
      </trkpt>
      <trkpt lat="44.74765" lon="1.81561">
        <ele>343.81</ele>
        <time>2020-07-13T12:06:42Z</time>
      </trkpt>
      <trkpt lat="44.74764" lon="1.81564">
        <ele>343.81</ele>
        <time>2020-07-13T12:07:15Z</time>
      </trkpt>
      <trkpt lat="44.74763" lon="1.81563">
        <ele>343.81</ele>
        <time>2020-07-13T12:07:44Z</time>
      </trkpt>
      <trkpt lat="44.74763" lon="1.81561">
        <ele>343.81</ele>
        <time>2020-07-13T12:08:07Z</time>
      </trkpt>
      <trkpt lat="44.74764" lon="1.81561">
        <ele>343.81</ele>
        <time>2020-07-13T12:08:28Z</time>
      </trkpt>
      <trkpt lat="44.74766" lon="1.81564">
        <ele>343.81</ele>
        <time>2020-07-13T12:08:58Z</time>
      </trkpt>
      <trkpt lat="44.74764" lon="1.81563">
        <ele>343.81</ele>
        <time>2020-07-13T12:09:29Z</time>
      </trkpt>
      <trkpt lat="44.74765" lon="1.81562">
        <ele>343.81</ele>
        <time>2020-07-13T12:09:56Z</time>
      </trkpt>
      <trkpt lat="44.74765" lon="1.8156">
        <ele>343.81</ele>
        <time>2020-07-13T12:10:26Z</time>
      </trkpt>
      <trkpt lat="44.74765" lon="1.81562">
        <ele>343.81</ele>
        <time>2020-07-13T12:10:50Z</time>
      </trkpt>
      <trkpt lat="44.74765" lon="1.81563">
        <ele>344.29</ele>
        <time>2020-07-13T12:11:11Z</time>
      </trkpt>
      <trkpt lat="44.74764" lon="1.81566">
        <ele>344.29</ele>
        <time>2020-07-13T12:11:36Z</time>
      </trkpt>
      <trkpt lat="44.74766" lon="1.81565">
        <ele>344.29</ele>
        <time>2020-07-13T12:12:13Z</time>
      </trkpt>
      <trkpt lat="44.74764" lon="1.81566">
        <ele>343.81</ele>
        <time>2020-07-13T12:12:46Z</time>
      </trkpt>
      <trkpt lat="44.74762" lon="1.81562">
        <ele>344.29</ele>
        <time>2020-07-13T12:13:09Z</time>
      </trkpt>
      <trkpt lat="44.74764" lon="1.81569">
        <ele>344.29</ele>
        <time>2020-07-13T12:13:44Z</time>
      </trkpt>
      <trkpt lat="44.74765" lon="1.81564">
        <ele>344.29</ele>
        <time>2020-07-13T12:14:17Z</time>
      </trkpt>
      <trkpt lat="44.74765" lon="1.81563">
        <ele>344.29</ele>
        <time>2020-07-13T12:14:59Z</time>
      </trkpt>
      <trkpt lat="44.74764" lon="1.81562">
        <ele>344.77</ele>
        <time>2020-07-13T12:15:23Z</time>
      </trkpt>
      <trkpt lat="44.74765" lon="1.81561">
        <ele>344.29</ele>
        <time>2020-07-13T12:15:47Z</time>
      </trkpt>
      <trkpt lat="44.74766" lon="1.81562">
        <ele>344.29</ele>
        <time>2020-07-13T12:16:08Z</time>
      </trkpt>
      <trkpt lat="44.74766" lon="1.81562">
        <ele>344.29</ele>
        <time>2020-07-13T12:16:33Z</time>
      </trkpt>
      <trkpt lat="44.74765" lon="1.81563">
        <ele>344.77</ele>
        <time>2020-07-13T12:16:53Z</time>
      </trkpt>
      <trkpt lat="44.74765" lon="1.81561">
        <ele>344.77</ele>
        <time>2020-07-13T12:17:23Z</time>
      </trkpt>
      <trkpt lat="44.74766" lon="1.81561">
        <ele>344.77</ele>
        <time>2020-07-13T12:17:47Z</time>
      </trkpt>
      <trkpt lat="44.74768" lon="1.81563">
        <ele>344.77</ele>
        <time>2020-07-13T12:18:19Z</time>
      </trkpt>
      <trkpt lat="44.74766" lon="1.81559">
        <ele>344.77</ele>
        <time>2020-07-13T12:18:56Z</time>
      </trkpt>
      <trkpt lat="44.74765" lon="1.81549">
        <ele>342.85</ele>
        <time>2020-07-13T12:19:12Z</time>
      </trkpt>
      <trkpt lat="44.74767" lon="1.81543">
        <ele>344.29</ele>
        <time>2020-07-13T12:19:18Z</time>
      </trkpt>
      <trkpt lat="44.74776" lon="1.81532">
        <ele>344.29</ele>
        <time>2020-07-13T12:19:30Z</time>
      </trkpt>
      <trkpt lat="44.74786" lon="1.81507">
        <ele>344.29</ele>
        <time>2020-07-13T12:19:51Z</time>
      </trkpt>
      <trkpt lat="44.7479" lon="1.81496">
        <ele>342.85</ele>
        <time>2020-07-13T12:19:59Z</time>
      </trkpt>
      <trkpt lat="44.74795" lon="1.81489">
        <ele>342.85</ele>
        <time>2020-07-13T12:20:03Z</time>
      </trkpt>
      <trkpt lat="44.74809" lon="1.81468">
        <ele>342.85</ele>
        <time>2020-07-13T12:20:20Z</time>
      </trkpt>
      <trkpt lat="44.74808" lon="1.81462">
        <ele>341.89</ele>
        <time>2020-07-13T12:20:37Z</time>
      </trkpt>
      <trkpt lat="44.74811" lon="1.8143">
        <ele>342.37</ele>
        <time>2020-07-13T12:20:59Z</time>
      </trkpt>
      <trkpt lat="44.74805" lon="1.81407">
        <ele>341.89</ele>
        <time>2020-07-13T12:21:14Z</time>
      </trkpt>
      <trkpt lat="44.74794" lon="1.81396">
        <ele>341.41</ele>
        <time>2020-07-13T12:21:30Z</time>
      </trkpt>
      <trkpt lat="44.74783" lon="1.81387">
        <ele>342.37</ele>
        <time>2020-07-13T12:21:48Z</time>
      </trkpt>
      <trkpt lat="44.74783" lon="1.81386">
        <ele>342.37</ele>
        <time>2020-07-13T12:22:13Z</time>
      </trkpt>
      <trkpt lat="44.7477" lon="1.81379">
        <ele>341.89</ele>
        <time>2020-07-13T12:22:32Z</time>
      </trkpt>
      <trkpt lat="44.74769" lon="1.81378">
        <ele>341.89</ele>
        <time>2020-07-13T12:22:33Z</time>
      </trkpt>
      <trkpt lat="44.74757" lon="1.81365">
        <ele>341.89</ele>
        <time>2020-07-13T12:22:48Z</time>
      </trkpt>
      <trkpt lat="44.74753" lon="1.8136">
        <ele>340.92</ele>
        <time>2020-07-13T12:22:53Z</time>
      </trkpt>
      <trkpt lat="44.74738" lon="1.81337">
        <ele>339.96</ele>
        <time>2020-07-13T12:23:14Z</time>
      </trkpt>
      <trkpt lat="44.74718" lon="1.81316">
        <ele>340.92</ele>
        <time>2020-07-13T12:23:36Z</time>
      </trkpt>
      <trkpt lat="44.74716" lon="1.81313">
        <ele>339</ele>
        <time>2020-07-13T12:23:45Z</time>
      </trkpt>
      <trkpt lat="44.74708" lon="1.81304">
        <ele>340.44</ele>
        <time>2020-07-13T12:24:02Z</time>
      </trkpt>
      <trkpt lat="44.74706" lon="1.81304">
        <ele>340.44</ele>
        <time>2020-07-13T12:24:05Z</time>
      </trkpt>
      <trkpt lat="44.74692" lon="1.81296">
        <ele>340.44</ele>
        <time>2020-07-13T12:24:17Z</time>
      </trkpt>
      <trkpt lat="44.74687" lon="1.81284">
        <ele>339</ele>
        <time>2020-07-13T12:24:25Z</time>
      </trkpt>
      <trkpt lat="44.74681" lon="1.8127">
        <ele>340.44</ele>
        <time>2020-07-13T12:24:33Z</time>
      </trkpt>
      <trkpt lat="44.74674" lon="1.81255">
        <ele>339.48</ele>
        <time>2020-07-13T12:24:44Z</time>
      </trkpt>
      <trkpt lat="44.7467" lon="1.81243">
        <ele>339</ele>
        <time>2020-07-13T12:24:54Z</time>
      </trkpt>
      <trkpt lat="44.74663" lon="1.81222">
        <ele>338.52</ele>
        <time>2020-07-13T12:25:12Z</time>
      </trkpt>
      <trkpt lat="44.74666" lon="1.81203">
        <ele>337.56</ele>
        <time>2020-07-13T12:25:33Z</time>
      </trkpt>
      <trkpt lat="44.74666" lon="1.81194">
        <ele>337.08</ele>
        <time>2020-07-13T12:25:50Z</time>
      </trkpt>
      <trkpt lat="44.74684" lon="1.81189">
        <ele>334.2</ele>
        <time>2020-07-13T12:26:09Z</time>
      </trkpt>
      <trkpt lat="44.74697" lon="1.81194">
        <ele>332.75</ele>
        <time>2020-07-13T12:26:25Z</time>
      </trkpt>
      <trkpt lat="44.74703" lon="1.81182">
        <ele>329.39</ele>
        <time>2020-07-13T12:26:38Z</time>
      </trkpt>
      <trkpt lat="44.74693" lon="1.81149">
        <ele>326.5</ele>
        <time>2020-07-13T12:27:00Z</time>
      </trkpt>
      <trkpt lat="44.74698" lon="1.81119">
        <ele>323.62</ele>
        <time>2020-07-13T12:27:19Z</time>
      </trkpt>
      <trkpt lat="44.74702" lon="1.81119">
        <ele>323.62</ele>
        <time>2020-07-13T12:27:39Z</time>
      </trkpt>
      <trkpt lat="44.74709" lon="1.8111">
        <ele>323.62</ele>
        <time>2020-07-13T12:28:02Z</time>
      </trkpt>
      <trkpt lat="44.7473" lon="1.81123">
        <ele>323.62</ele>
        <time>2020-07-13T12:28:21Z</time>
      </trkpt>
      <trkpt lat="44.74742" lon="1.81128">
        <ele>322.66</ele>
        <time>2020-07-13T12:28:32Z</time>
      </trkpt>
      <trkpt lat="44.74753" lon="1.81123">
        <ele>323.62</ele>
        <time>2020-07-13T12:28:41Z</time>
      </trkpt>
      <trkpt lat="44.74759" lon="1.81119">
        <ele>322.18</ele>
        <time>2020-07-13T12:28:46Z</time>
      </trkpt>
      <trkpt lat="44.74761" lon="1.81118">
        <ele>323.62</ele>
        <time>2020-07-13T12:28:48Z</time>
      </trkpt>
      <trkpt lat="44.74774" lon="1.811">
        <ele>326.02</ele>
        <time>2020-07-13T12:29:06Z</time>
      </trkpt>
      <trkpt lat="44.7477" lon="1.81072">
        <ele>329.39</ele>
        <time>2020-07-13T12:29:26Z</time>
      </trkpt>
      <trkpt lat="44.74769" lon="1.81043">
        <ele>331.79</ele>
        <time>2020-07-13T12:29:47Z</time>
      </trkpt>
      <trkpt lat="44.74774" lon="1.81024">
        <ele>332.75</ele>
        <time>2020-07-13T12:30:04Z</time>
      </trkpt>
      <trkpt lat="44.74784" lon="1.8101">
        <ele>333.71</ele>
        <time>2020-07-13T12:30:21Z</time>
      </trkpt>
      <trkpt lat="44.74801" lon="1.81003">
        <ele>336.6</ele>
        <time>2020-07-13T12:30:40Z</time>
      </trkpt>
      <trkpt lat="44.74812" lon="1.81">
        <ele>337.08</ele>
        <time>2020-07-13T12:30:58Z</time>
      </trkpt>
      <trkpt lat="44.74818" lon="1.80992">
        <ele>337.56</ele>
        <time>2020-07-13T12:31:14Z</time>
      </trkpt>
      <trkpt lat="44.74831" lon="1.80999">
        <ele>337.56</ele>
        <time>2020-07-13T12:31:31Z</time>
      </trkpt>
      <trkpt lat="44.74839" lon="1.80981">
        <ele>338.04</ele>
        <time>2020-07-13T12:31:48Z</time>
      </trkpt>
      <trkpt lat="44.74845" lon="1.80953">
        <ele>335.64</ele>
        <time>2020-07-13T12:32:07Z</time>
      </trkpt>
      <trkpt lat="44.74845" lon="1.80941">
        <ele>335.64</ele>
        <time>2020-07-13T12:32:27Z</time>
      </trkpt>
      <trkpt lat="44.7485" lon="1.80935">
        <ele>335.64</ele>
        <time>2020-07-13T12:32:52Z</time>
      </trkpt>
      <trkpt lat="44.74845" lon="1.80943">
        <ele>335.64</ele>
        <time>2020-07-13T12:33:20Z</time>
      </trkpt>
      <trkpt lat="44.74848" lon="1.80939">
        <ele>335.64</ele>
        <time>2020-07-13T12:33:52Z</time>
      </trkpt>
      <trkpt lat="44.74851" lon="1.80929">
        <ele>335.16</ele>
        <time>2020-07-13T12:34:14Z</time>
      </trkpt>
      <trkpt lat="44.74856" lon="1.80902">
        <ele>334.2</ele>
        <time>2020-07-13T12:34:35Z</time>
      </trkpt>
      <trkpt lat="44.74865" lon="1.80868">
        <ele>335.16</ele>
        <time>2020-07-13T12:34:56Z</time>
      </trkpt>
      <trkpt lat="44.74868" lon="1.8086">
        <ele>334.68</ele>
        <time>2020-07-13T12:35:01Z</time>
      </trkpt>
      <trkpt lat="44.74871" lon="1.80835">
        <ele>335.16</ele>
        <time>2020-07-13T12:35:18Z</time>
      </trkpt>
      <trkpt lat="44.7487" lon="1.80814">
        <ele>333.71</ele>
        <time>2020-07-13T12:35:29Z</time>
      </trkpt>
      <trkpt lat="44.7487" lon="1.8081">
        <ele>335.16</ele>
        <time>2020-07-13T12:35:33Z</time>
      </trkpt>
      <trkpt lat="44.74868" lon="1.80802">
        <ele>335.64</ele>
        <time>2020-07-13T12:35:38Z</time>
      </trkpt>
      <trkpt lat="44.74855" lon="1.80769">
        <ele>337.56</ele>
        <time>2020-07-13T12:36:01Z</time>
      </trkpt>
      <trkpt lat="44.74848" lon="1.80734">
        <ele>337.56</ele>
        <time>2020-07-13T12:36:24Z</time>
      </trkpt>
      <trkpt lat="44.74848" lon="1.80732">
        <ele>337.56</ele>
        <time>2020-07-13T12:36:25Z</time>
      </trkpt>
      <trkpt lat="44.74848" lon="1.80728">
        <ele>339</ele>
        <time>2020-07-13T12:36:27Z</time>
      </trkpt>
      <trkpt lat="44.74847" lon="1.80721">
        <ele>338.04</ele>
        <time>2020-07-13T12:36:31Z</time>
      </trkpt>
      <trkpt lat="44.74848" lon="1.807">
        <ele>338.04</ele>
        <time>2020-07-13T12:36:44Z</time>
      </trkpt>
      <trkpt lat="44.74847" lon="1.80667">
        <ele>337.08</ele>
        <time>2020-07-13T12:37:04Z</time>
      </trkpt>
      <trkpt lat="44.74847" lon="1.80641">
        <ele>338.52</ele>
        <time>2020-07-13T12:37:20Z</time>
      </trkpt>
      <trkpt lat="44.74848" lon="1.80601">
        <ele>339.48</ele>
        <time>2020-07-13T12:37:40Z</time>
      </trkpt>
      <trkpt lat="44.74852" lon="1.80586">
        <ele>338.04</ele>
        <time>2020-07-13T12:37:52Z</time>
      </trkpt>
      <trkpt lat="44.74853" lon="1.80582">
        <ele>338.04</ele>
        <time>2020-07-13T12:37:54Z</time>
      </trkpt>
      <trkpt lat="44.74864" lon="1.80552">
        <ele>336.6</ele>
        <time>2020-07-13T12:38:12Z</time>
      </trkpt>
      <trkpt lat="44.74868" lon="1.80528">
        <ele>333.71</ele>
        <time>2020-07-13T12:38:28Z</time>
      </trkpt>
      <trkpt lat="44.74869" lon="1.8051">
        <ele>330.35</ele>
        <time>2020-07-13T12:38:39Z</time>
      </trkpt>
      <trkpt lat="44.74868" lon="1.80468">
        <ele>328.43</ele>
        <time>2020-07-13T12:38:59Z</time>
      </trkpt>
      <trkpt lat="44.7486" lon="1.80435">
        <ele>327.47</ele>
        <time>2020-07-13T12:39:20Z</time>
      </trkpt>
      <trkpt lat="44.74848" lon="1.80404">
        <ele>328.43</ele>
        <time>2020-07-13T12:39:41Z</time>
      </trkpt>
      <trkpt lat="44.74845" lon="1.804">
        <ele>328.91</ele>
        <time>2020-07-13T12:39:44Z</time>
      </trkpt>
      <trkpt lat="44.74822" lon="1.80386">
        <ele>328.91</ele>
        <time>2020-07-13T12:40:04Z</time>
      </trkpt>
      <trkpt lat="44.74802" lon="1.80363">
        <ele>331.31</ele>
        <time>2020-07-13T12:40:25Z</time>
      </trkpt>
      <trkpt lat="44.74784" lon="1.80338">
        <ele>333.23</ele>
        <time>2020-07-13T12:40:46Z</time>
      </trkpt>
      <trkpt lat="44.74782" lon="1.80321">
        <ele>334.2</ele>
        <time>2020-07-13T12:41:03Z</time>
      </trkpt>
      <trkpt lat="44.7478" lon="1.80324">
        <ele>334.2</ele>
        <time>2020-07-13T12:41:29Z</time>
      </trkpt>
      <trkpt lat="44.74786" lon="1.80313">
        <ele>334.68</ele>
        <time>2020-07-13T12:41:49Z</time>
      </trkpt>
      <trkpt lat="44.74783" lon="1.80279">
        <ele>334.68</ele>
        <time>2020-07-13T12:42:08Z</time>
      </trkpt>
      <trkpt lat="44.7478" lon="1.80274">
        <ele>332.75</ele>
        <time>2020-07-13T12:42:11Z</time>
      </trkpt>
      <trkpt lat="44.74777" lon="1.80265">
        <ele>332.27</ele>
        <time>2020-07-13T12:42:18Z</time>
      </trkpt>
      <trkpt lat="44.74786" lon="1.80249">
        <ele>332.75</ele>
        <time>2020-07-13T12:42:32Z</time>
      </trkpt>
      <trkpt lat="44.74787" lon="1.80247">
        <ele>331.79</ele>
        <time>2020-07-13T12:42:34Z</time>
      </trkpt>
      <trkpt lat="44.74794" lon="1.80225">
        <ele>331.79</ele>
        <time>2020-07-13T12:42:52Z</time>
      </trkpt>
      <trkpt lat="44.748" lon="1.80216">
        <ele>331.31</ele>
        <time>2020-07-13T12:43:00Z</time>
      </trkpt>
      <trkpt lat="44.74818" lon="1.80191">
        <ele>332.27</ele>
        <time>2020-07-13T12:43:20Z</time>
      </trkpt>
      <trkpt lat="44.74834" lon="1.80174">
        <ele>332.27</ele>
        <time>2020-07-13T12:43:40Z</time>
      </trkpt>
      <trkpt lat="44.74854" lon="1.80155">
        <ele>331.79</ele>
        <time>2020-07-13T12:44:01Z</time>
      </trkpt>
      <trkpt lat="44.74865" lon="1.80144">
        <ele>331.79</ele>
        <time>2020-07-13T12:44:12Z</time>
      </trkpt>
      <trkpt lat="44.74869" lon="1.80138">
        <ele>333.23</ele>
        <time>2020-07-13T12:44:17Z</time>
      </trkpt>
      <trkpt lat="44.74868" lon="1.80122">
        <ele>331.31</ele>
        <time>2020-07-13T12:44:27Z</time>
      </trkpt>
      <trkpt lat="44.74861" lon="1.8011">
        <ele>332.75</ele>
        <time>2020-07-13T12:44:36Z</time>
      </trkpt>
      <trkpt lat="44.74848" lon="1.80083">
        <ele>332.27</ele>
        <time>2020-07-13T12:44:56Z</time>
      </trkpt>
      <trkpt lat="44.74845" lon="1.80076">
        <ele>330.83</ele>
        <time>2020-07-13T12:45:01Z</time>
      </trkpt>
      <trkpt lat="44.74838" lon="1.80068">
        <ele>332.27</ele>
        <time>2020-07-13T12:45:08Z</time>
      </trkpt>
      <trkpt lat="44.74824" lon="1.80042">
        <ele>333.23</ele>
        <time>2020-07-13T12:45:28Z</time>
      </trkpt>
      <trkpt lat="44.74808" lon="1.80015">
        <ele>333.71</ele>
        <time>2020-07-13T12:45:48Z</time>
      </trkpt>
      <trkpt lat="44.74801" lon="1.79999">
        <ele>332.75</ele>
        <time>2020-07-13T12:45:59Z</time>
      </trkpt>
      <trkpt lat="44.74788" lon="1.79976">
        <ele>334.2</ele>
        <time>2020-07-13T12:46:17Z</time>
      </trkpt>
      <trkpt lat="44.74781" lon="1.79963">
        <ele>335.16</ele>
        <time>2020-07-13T12:46:27Z</time>
      </trkpt>
      <trkpt lat="44.74783" lon="1.79953">
        <ele>333.71</ele>
        <time>2020-07-13T12:46:43Z</time>
      </trkpt>
      <trkpt lat="44.74789" lon="1.79949">
        <ele>334.68</ele>
        <time>2020-07-13T12:47:03Z</time>
      </trkpt>
      <trkpt lat="44.7479" lon="1.79947">
        <ele>334.68</ele>
        <time>2020-07-13T12:47:05Z</time>
      </trkpt>
      <trkpt lat="44.74802" lon="1.79933">
        <ele>334.68</ele>
        <time>2020-07-13T12:47:19Z</time>
      </trkpt>
      <trkpt lat="44.74815" lon="1.79912">
        <ele>334.68</ele>
        <time>2020-07-13T12:47:36Z</time>
      </trkpt>
      <trkpt lat="44.74824" lon="1.79888">
        <ele>334.68</ele>
        <time>2020-07-13T12:47:53Z</time>
      </trkpt>
      <trkpt lat="44.74826" lon="1.79883">
        <ele>335.16</ele>
        <time>2020-07-13T12:47:57Z</time>
      </trkpt>
      <trkpt lat="44.74831" lon="1.79864">
        <ele>336.12</ele>
        <time>2020-07-13T12:48:12Z</time>
      </trkpt>
      <trkpt lat="44.74833" lon="1.79859">
        <ele>336.12</ele>
        <time>2020-07-13T12:48:16Z</time>
      </trkpt>
      <trkpt lat="44.74834" lon="1.79857">
        <ele>336.12</ele>
        <time>2020-07-13T12:48:18Z</time>
      </trkpt>
      <trkpt lat="44.74843" lon="1.79842">
        <ele>337.08</ele>
        <time>2020-07-13T12:48:32Z</time>
      </trkpt>
      <trkpt lat="44.74847" lon="1.79835">
        <ele>337.08</ele>
        <time>2020-07-13T12:48:37Z</time>
      </trkpt>
      <trkpt lat="44.74849" lon="1.7983">
        <ele>337.08</ele>
        <time>2020-07-13T12:48:41Z</time>
      </trkpt>
      <trkpt lat="44.7485" lon="1.79827">
        <ele>337.56</ele>
        <time>2020-07-13T12:48:43Z</time>
      </trkpt>
      <trkpt lat="44.74853" lon="1.7982">
        <ele>337.56</ele>
        <time>2020-07-13T12:48:59Z</time>
      </trkpt>
      <trkpt lat="44.74864" lon="1.79819">
        <ele>337.56</ele>
        <time>2020-07-13T12:49:11Z</time>
      </trkpt>
      <trkpt lat="44.74867" lon="1.79813">
        <ele>337.56</ele>
        <time>2020-07-13T12:49:16Z</time>
      </trkpt>
      <trkpt lat="44.74877" lon="1.79806">
        <ele>337.56</ele>
        <time>2020-07-13T12:49:29Z</time>
      </trkpt>
      <trkpt lat="44.74896" lon="1.79786">
        <ele>338.04</ele>
        <time>2020-07-13T12:49:50Z</time>
      </trkpt>
      <trkpt lat="44.74904" lon="1.79774">
        <ele>338.52</ele>
        <time>2020-07-13T12:50:02Z</time>
      </trkpt>
      <trkpt lat="44.74918" lon="1.79758">
        <ele>339</ele>
        <time>2020-07-13T12:50:15Z</time>
      </trkpt>
      <trkpt lat="44.74936" lon="1.79742">
        <ele>339.48</ele>
        <time>2020-07-13T12:50:34Z</time>
      </trkpt>
      <trkpt lat="44.74956" lon="1.7973">
        <ele>340.44</ele>
        <time>2020-07-13T12:50:52Z</time>
      </trkpt>
      <trkpt lat="44.74963" lon="1.79727">
        <ele>340.44</ele>
        <time>2020-07-13T12:50:58Z</time>
      </trkpt>
      <trkpt lat="44.74965" lon="1.79721">
        <ele>341.41</ele>
        <time>2020-07-13T12:51:13Z</time>
      </trkpt>
      <trkpt lat="44.74962" lon="1.79721">
        <ele>341.41</ele>
        <time>2020-07-13T12:51:38Z</time>
      </trkpt>
      <trkpt lat="44.74968" lon="1.797">
        <ele>341.89</ele>
        <time>2020-07-13T12:51:50Z</time>
      </trkpt>
      <trkpt lat="44.74962" lon="1.79667">
        <ele>342.85</ele>
        <time>2020-07-13T12:52:11Z</time>
      </trkpt>
      <trkpt lat="44.74962" lon="1.79658">
        <ele>343.81</ele>
        <time>2020-07-13T12:52:16Z</time>
      </trkpt>
      <trkpt lat="44.7496" lon="1.79652">
        <ele>343.81</ele>
        <time>2020-07-13T12:52:28Z</time>
      </trkpt>
      <trkpt lat="44.74962" lon="1.79641">
        <ele>344.29</ele>
        <time>2020-07-13T12:52:45Z</time>
      </trkpt>
      <trkpt lat="44.74961" lon="1.79638">
        <ele>344.29</ele>
        <time>2020-07-13T12:53:09Z</time>
      </trkpt>
      <trkpt lat="44.74962" lon="1.79636">
        <ele>344.29</ele>
        <time>2020-07-13T12:53:37Z</time>
      </trkpt>
      <trkpt lat="44.74959" lon="1.79638">
        <ele>344.29</ele>
        <time>2020-07-13T12:54:05Z</time>
      </trkpt>
      <trkpt lat="44.74958" lon="1.7964">
        <ele>344.77</ele>
        <time>2020-07-13T12:54:36Z</time>
      </trkpt>
      <trkpt lat="44.74958" lon="1.79639">
        <ele>344.77</ele>
        <time>2020-07-13T12:55:00Z</time>
      </trkpt>
      <trkpt lat="44.74961" lon="1.79641">
        <ele>344.77</ele>
        <time>2020-07-13T12:55:33Z</time>
      </trkpt>
      <trkpt lat="44.74959" lon="1.79636">
        <ele>345.25</ele>
        <time>2020-07-13T12:55:59Z</time>
      </trkpt>
      <trkpt lat="44.74962" lon="1.79615">
        <ele>345.25</ele>
        <time>2020-07-13T12:56:16Z</time>
      </trkpt>
      <trkpt lat="44.74966" lon="1.79601">
        <ele>345.25</ele>
        <time>2020-07-13T12:56:36Z</time>
      </trkpt>
      <trkpt lat="44.74956" lon="1.79587">
        <ele>344.29</ele>
        <time>2020-07-13T12:56:50Z</time>
      </trkpt>
      <trkpt lat="44.7494" lon="1.79573">
        <ele>344.77</ele>
        <time>2020-07-13T12:57:08Z</time>
      </trkpt>
      <trkpt lat="44.7494" lon="1.79571">
        <ele>344.77</ele>
        <time>2020-07-13T12:57:13Z</time>
      </trkpt>
      <trkpt lat="44.74934" lon="1.79565">
        <ele>344.29</ele>
        <time>2020-07-13T12:57:19Z</time>
      </trkpt>
      <trkpt lat="44.74932" lon="1.79562">
        <ele>344.29</ele>
        <time>2020-07-13T12:57:22Z</time>
      </trkpt>
      <trkpt lat="44.74929" lon="1.79558">
        <ele>344.29</ele>
        <time>2020-07-13T12:57:25Z</time>
      </trkpt>
      <trkpt lat="44.74924" lon="1.7955">
        <ele>343.33</ele>
        <time>2020-07-13T12:57:37Z</time>
      </trkpt>
      <trkpt lat="44.74917" lon="1.79544">
        <ele>343.33</ele>
        <time>2020-07-13T12:57:45Z</time>
      </trkpt>
      <trkpt lat="44.749" lon="1.79523">
        <ele>342.37</ele>
        <time>2020-07-13T12:58:05Z</time>
      </trkpt>
      <trkpt lat="44.74903" lon="1.79524">
        <ele>342.37</ele>
        <time>2020-07-13T12:58:29Z</time>
      </trkpt>
      <trkpt lat="44.74898" lon="1.79518">
        <ele>342.37</ele>
        <time>2020-07-13T12:58:51Z</time>
      </trkpt>
      <trkpt lat="44.74889" lon="1.7951">
        <ele>342.37</ele>
        <time>2020-07-13T12:59:13Z</time>
      </trkpt>
      <trkpt lat="44.74882" lon="1.79503">
        <ele>341.89</ele>
        <time>2020-07-13T12:59:27Z</time>
      </trkpt>
      <trkpt lat="44.74894" lon="1.79513">
        <ele>341.41</ele>
        <time>2020-07-13T12:59:40Z</time>
      </trkpt>
      <trkpt lat="44.74897" lon="1.79514">
        <ele>342.85</ele>
        <time>2020-07-13T12:59:42Z</time>
      </trkpt>
      <trkpt lat="44.74903" lon="1.79523">
        <ele>342.85</ele>
        <time>2020-07-13T12:59:58Z</time>
      </trkpt>
      <trkpt lat="44.74885" lon="1.79507">
        <ele>342.37</ele>
        <time>2020-07-13T13:00:18Z</time>
      </trkpt>
      <trkpt lat="44.74884" lon="1.79506">
        <ele>342.37</ele>
        <time>2020-07-13T13:00:19Z</time>
      </trkpt>
      <trkpt lat="44.74875" lon="1.79498">
        <ele>340.44</ele>
        <time>2020-07-13T13:00:28Z</time>
      </trkpt>
      <trkpt lat="44.74871" lon="1.79493">
        <ele>341.89</ele>
        <time>2020-07-13T13:00:33Z</time>
      </trkpt>
      <trkpt lat="44.74859" lon="1.79479">
        <ele>340.92</ele>
        <time>2020-07-13T13:00:45Z</time>
      </trkpt>
      <trkpt lat="44.74842" lon="1.79462">
        <ele>339.96</ele>
        <time>2020-07-13T13:01:02Z</time>
      </trkpt>
      <trkpt lat="44.74836" lon="1.79456">
        <ele>341.41</ele>
        <time>2020-07-13T13:01:07Z</time>
      </trkpt>
      <trkpt lat="44.74833" lon="1.79452">
        <ele>339.96</ele>
        <time>2020-07-13T13:01:10Z</time>
      </trkpt>
      <trkpt lat="44.74825" lon="1.79444">
        <ele>339.48</ele>
        <time>2020-07-13T13:01:18Z</time>
      </trkpt>
      <trkpt lat="44.74813" lon="1.79432">
        <ele>339.96</ele>
        <time>2020-07-13T13:01:29Z</time>
      </trkpt>
      <trkpt lat="44.7479" lon="1.79417">
        <ele>338.52</ele>
        <time>2020-07-13T13:01:49Z</time>
      </trkpt>
      <trkpt lat="44.74782" lon="1.79412">
        <ele>339.96</ele>
        <time>2020-07-13T13:01:55Z</time>
      </trkpt>
      <trkpt lat="44.74778" lon="1.79409">
        <ele>339.96</ele>
        <time>2020-07-13T13:01:58Z</time>
      </trkpt>
      <trkpt lat="44.74769" lon="1.79405">
        <ele>339.96</ele>
        <time>2020-07-13T13:02:06Z</time>
      </trkpt>
      <trkpt lat="44.74767" lon="1.79403">
        <ele>338.52</ele>
        <time>2020-07-13T13:02:08Z</time>
      </trkpt>
      <trkpt lat="44.74763" lon="1.79401">
        <ele>340.44</ele>
        <time>2020-07-13T13:02:12Z</time>
      </trkpt>
      <trkpt lat="44.7474" lon="1.7939">
        <ele>341.41</ele>
        <time>2020-07-13T13:02:32Z</time>
      </trkpt>
      <trkpt lat="44.74728" lon="1.79377">
        <ele>341.89</ele>
        <time>2020-07-13T13:02:50Z</time>
      </trkpt>
      <trkpt lat="44.74724" lon="1.79377">
        <ele>342.37</ele>
        <time>2020-07-13T13:03:11Z</time>
      </trkpt>
      <trkpt lat="44.74722" lon="1.79379">
        <ele>342.37</ele>
        <time>2020-07-13T13:03:36Z</time>
      </trkpt>
      <trkpt lat="44.74717" lon="1.7937">
        <ele>342.85</ele>
        <time>2020-07-13T13:04:04Z</time>
      </trkpt>
      <trkpt lat="44.74699" lon="1.79345">
        <ele>340.92</ele>
        <time>2020-07-13T13:04:25Z</time>
      </trkpt>
      <trkpt lat="44.74696" lon="1.79342">
        <ele>342.37</ele>
        <time>2020-07-13T13:04:28Z</time>
      </trkpt>
      <trkpt lat="44.74679" lon="1.7933">
        <ele>342.37</ele>
        <time>2020-07-13T13:04:43Z</time>
      </trkpt>
      <trkpt lat="44.74657" lon="1.79319">
        <ele>342.85</ele>
        <time>2020-07-13T13:05:02Z</time>
      </trkpt>
      <trkpt lat="44.74637" lon="1.79313">
        <ele>343.81</ele>
        <time>2020-07-13T13:05:19Z</time>
      </trkpt>
      <trkpt lat="44.7461" lon="1.79303">
        <ele>346.21</ele>
        <time>2020-07-13T13:05:41Z</time>
      </trkpt>
      <trkpt lat="44.7459" lon="1.79287">
        <ele>346.21</ele>
        <time>2020-07-13T13:06:00Z</time>
      </trkpt>
      <trkpt lat="44.74581" lon="1.79277">
        <ele>348.13</ele>
        <time>2020-07-13T13:06:10Z</time>
      </trkpt>
      <trkpt lat="44.74565" lon="1.7926">
        <ele>348.13</ele>
        <time>2020-07-13T13:06:25Z</time>
      </trkpt>
      <trkpt lat="44.7455" lon="1.79239">
        <ele>348.62</ele>
        <time>2020-07-13T13:06:42Z</time>
      </trkpt>
      <trkpt lat="44.7454" lon="1.7923">
        <ele>348.62</ele>
        <time>2020-07-13T13:06:51Z</time>
      </trkpt>
      <trkpt lat="44.74536" lon="1.79225">
        <ele>349.1</ele>
        <time>2020-07-13T13:06:55Z</time>
      </trkpt>
      <trkpt lat="44.74522" lon="1.79204">
        <ele>349.58</ele>
        <time>2020-07-13T13:07:11Z</time>
      </trkpt>
      <trkpt lat="44.74502" lon="1.79183">
        <ele>350.54</ele>
        <time>2020-07-13T13:07:31Z</time>
      </trkpt>
      <trkpt lat="44.74488" lon="1.79159">
        <ele>350.54</ele>
        <time>2020-07-13T13:07:47Z</time>
      </trkpt>
      <trkpt lat="44.74482" lon="1.79149">
        <ele>349.1</ele>
        <time>2020-07-13T13:07:54Z</time>
      </trkpt>
      <trkpt lat="44.74478" lon="1.79138">
        <ele>349.1</ele>
        <time>2020-07-13T13:08:01Z</time>
      </trkpt>
      <trkpt lat="44.74476" lon="1.79135">
        <ele>351.02</ele>
        <time>2020-07-13T13:08:03Z</time>
      </trkpt>
      <trkpt lat="44.74475" lon="1.79133">
        <ele>349.1</ele>
        <time>2020-07-13T13:08:05Z</time>
      </trkpt>
      <trkpt lat="44.74465" lon="1.79109">
        <ele>349.58</ele>
        <time>2020-07-13T13:08:20Z</time>
      </trkpt>
      <trkpt lat="44.74463" lon="1.79102">
        <ele>348.13</ele>
        <time>2020-07-13T13:08:24Z</time>
      </trkpt>
      <trkpt lat="44.74458" lon="1.7909">
        <ele>349.1</ele>
        <time>2020-07-13T13:08:31Z</time>
      </trkpt>
      <trkpt lat="44.74447" lon="1.79069">
        <ele>348.13</ele>
        <time>2020-07-13T13:08:45Z</time>
      </trkpt>
      <trkpt lat="44.74444" lon="1.79063">
        <ele>346.21</ele>
        <time>2020-07-13T13:08:50Z</time>
      </trkpt>
      <trkpt lat="44.74437" lon="1.79044">
        <ele>346.69</ele>
        <time>2020-07-13T13:09:02Z</time>
      </trkpt>
      <trkpt lat="44.74428" lon="1.79024">
        <ele>344.77</ele>
        <time>2020-07-13T13:09:20Z</time>
      </trkpt>
      <trkpt lat="44.74424" lon="1.79007">
        <ele>343.33</ele>
        <time>2020-07-13T13:09:36Z</time>
      </trkpt>
      <trkpt lat="44.74423" lon="1.79004">
        <ele>344.77</ele>
        <time>2020-07-13T13:09:38Z</time>
      </trkpt>
      <trkpt lat="44.7442" lon="1.78995">
        <ele>343.33</ele>
        <time>2020-07-13T13:09:43Z</time>
      </trkpt>
      <trkpt lat="44.74415" lon="1.78985">
        <ele>343.33</ele>
        <time>2020-07-13T13:10:01Z</time>
      </trkpt>
      <trkpt lat="44.74413" lon="1.78982">
        <ele>343.33</ele>
        <time>2020-07-13T13:10:32Z</time>
      </trkpt>
      <trkpt lat="44.7441" lon="1.78974">
        <ele>342.85</ele>
        <time>2020-07-13T13:10:58Z</time>
      </trkpt>
      <trkpt lat="44.74401" lon="1.78952">
        <ele>341.89</ele>
        <time>2020-07-13T13:11:15Z</time>
      </trkpt>
      <trkpt lat="44.74397" lon="1.78919">
        <ele>341.89</ele>
        <time>2020-07-13T13:11:34Z</time>
      </trkpt>
      <trkpt lat="44.74397" lon="1.78917">
        <ele>341.89</ele>
        <time>2020-07-13T13:11:35Z</time>
      </trkpt>
      <trkpt lat="44.74398" lon="1.78914">
        <ele>339.96</ele>
        <time>2020-07-13T13:11:37Z</time>
      </trkpt>
      <trkpt lat="44.74398" lon="1.78908">
        <ele>341.41</ele>
        <time>2020-07-13T13:11:41Z</time>
      </trkpt>
      <trkpt lat="44.74398" lon="1.78902">
        <ele>339.96</ele>
        <time>2020-07-13T13:11:45Z</time>
      </trkpt>
      <trkpt lat="44.74402" lon="1.78873">
        <ele>339.96</ele>
        <time>2020-07-13T13:12:03Z</time>
      </trkpt>
      <trkpt lat="44.74403" lon="1.78868">
        <ele>338.52</ele>
        <time>2020-07-13T13:12:06Z</time>
      </trkpt>
      <trkpt lat="44.7441" lon="1.7884">
        <ele>338.04</ele>
        <time>2020-07-13T13:12:22Z</time>
      </trkpt>
      <trkpt lat="44.74411" lon="1.78832">
        <ele>339</ele>
        <time>2020-07-13T13:12:26Z</time>
      </trkpt>
      <trkpt lat="44.74415" lon="1.78822">
        <ele>339</ele>
        <time>2020-07-13T13:12:35Z</time>
      </trkpt>
      <trkpt lat="44.74414" lon="1.78815">
        <ele>339</ele>
        <time>2020-07-13T13:12:39Z</time>
      </trkpt>
      <trkpt lat="44.74414" lon="1.78805">
        <ele>338.04</ele>
        <time>2020-07-13T13:12:45Z</time>
      </trkpt>
      <trkpt lat="44.7441" lon="1.78791">
        <ele>338.04</ele>
        <time>2020-07-13T13:12:53Z</time>
      </trkpt>
      <trkpt lat="44.74408" lon="1.78785">
        <ele>336.6</ele>
        <time>2020-07-13T13:12:58Z</time>
      </trkpt>
      <trkpt lat="44.74407" lon="1.78783">
        <ele>336.6</ele>
        <time>2020-07-13T13:13:00Z</time>
      </trkpt>
      <trkpt lat="44.744" lon="1.7877">
        <ele>336.6</ele>
        <time>2020-07-13T13:13:17Z</time>
      </trkpt>
      <trkpt lat="44.74399" lon="1.78768">
        <ele>336.6</ele>
        <time>2020-07-13T13:13:41Z</time>
      </trkpt>
      <trkpt lat="44.74396" lon="1.78772">
        <ele>336.6</ele>
        <time>2020-07-13T13:14:00Z</time>
      </trkpt>
      <trkpt lat="44.74392" lon="1.78773">
        <ele>336.6</ele>
        <time>2020-07-13T13:14:18Z</time>
      </trkpt>
      <trkpt lat="44.74392" lon="1.78772">
        <ele>336.6</ele>
        <time>2020-07-13T13:14:46Z</time>
      </trkpt>
      <trkpt lat="44.74384" lon="1.78769">
        <ele>337.56</ele>
        <time>2020-07-13T13:15:13Z</time>
      </trkpt>
      <trkpt lat="44.74368" lon="1.78761">
        <ele>337.56</ele>
        <time>2020-07-13T13:15:31Z</time>
      </trkpt>
      <trkpt lat="44.74367" lon="1.7876">
        <ele>337.56</ele>
        <time>2020-07-13T13:15:32Z</time>
      </trkpt>
      <trkpt lat="44.74343" lon="1.7875">
        <ele>337.56</ele>
        <time>2020-07-13T13:15:52Z</time>
      </trkpt>
      <trkpt lat="44.74324" lon="1.78734">
        <ele>338.52</ele>
        <time>2020-07-13T13:16:10Z</time>
      </trkpt>
      <trkpt lat="44.74303" lon="1.78721">
        <ele>339.48</ele>
        <time>2020-07-13T13:16:28Z</time>
      </trkpt>
      <trkpt lat="44.74285" lon="1.78715">
        <ele>340.44</ele>
        <time>2020-07-13T13:16:44Z</time>
      </trkpt>
      <trkpt lat="44.74279" lon="1.78711">
        <ele>340.44</ele>
        <time>2020-07-13T13:16:50Z</time>
      </trkpt>
      <trkpt lat="44.74279" lon="1.78704">
        <ele>340.44</ele>
        <time>2020-07-13T13:17:09Z</time>
      </trkpt>
      <trkpt lat="44.74282" lon="1.78706">
        <ele>340.44</ele>
        <time>2020-07-13T13:17:18Z</time>
      </trkpt>
      <trkpt lat="44.74289" lon="1.78697">
        <ele>340.44</ele>
        <time>2020-07-13T13:17:41Z</time>
      </trkpt>
      <trkpt lat="44.74279" lon="1.78688">
        <ele>341.89</ele>
        <time>2020-07-13T13:17:48Z</time>
      </trkpt>
      <trkpt lat="44.74275" lon="1.78684">
        <ele>342.37</ele>
        <time>2020-07-13T13:18:02Z</time>
      </trkpt>
      <trkpt lat="44.74267" lon="1.78663">
        <ele>342.85</ele>
        <time>2020-07-13T13:18:15Z</time>
      </trkpt>
      <trkpt lat="44.74248" lon="1.78654">
        <ele>344.29</ele>
        <time>2020-07-13T13:18:32Z</time>
      </trkpt>
      <trkpt lat="44.74248" lon="1.78659">
        <ele>344.29</ele>
        <time>2020-07-13T13:18:47Z</time>
      </trkpt>
      <trkpt lat="44.74241" lon="1.78668">
        <ele>344.29</ele>
        <time>2020-07-13T13:19:10Z</time>
      </trkpt>
      <trkpt lat="44.7424" lon="1.78685">
        <ele>344.29</ele>
        <time>2020-07-13T13:19:37Z</time>
      </trkpt>
      <trkpt lat="44.74248" lon="1.78665">
        <ele>344.29</ele>
        <time>2020-07-13T13:20:00Z</time>
      </trkpt>
      <trkpt lat="44.74245" lon="1.78678">
        <ele>344.29</ele>
        <time>2020-07-13T13:20:20Z</time>
      </trkpt>
      <trkpt lat="44.74242" lon="1.7868">
        <ele>344.29</ele>
        <time>2020-07-13T13:20:24Z</time>
      </trkpt>
      <trkpt lat="44.74235" lon="1.78682">
        <ele>344.29</ele>
        <time>2020-07-13T13:20:34Z</time>
      </trkpt>
      <trkpt lat="44.74231" lon="1.78657">
        <ele>344.29</ele>
        <time>2020-07-13T13:21:15Z</time>
      </trkpt>
      <trkpt lat="44.7423" lon="1.7866">
        <ele>344.29</ele>
        <time>2020-07-13T13:21:20Z</time>
      </trkpt>
      <trkpt lat="44.74251" lon="1.78673">
        <ele>344.77</ele>
        <time>2020-07-13T13:23:00Z</time>
      </trkpt>
      <trkpt lat="44.74254" lon="1.78662">
        <ele>344.77</ele>
        <time>2020-07-13T13:23:12Z</time>
      </trkpt>
      <trkpt lat="44.74259" lon="1.78659">
        <ele>343.33</ele>
        <time>2020-07-13T13:23:16Z</time>
      </trkpt>
      <trkpt lat="44.74248" lon="1.78657">
        <ele>344.77</ele>
        <time>2020-07-13T13:23:29Z</time>
      </trkpt>
      <trkpt lat="44.74241" lon="1.78659">
        <ele>345.25</ele>
        <time>2020-07-13T13:23:43Z</time>
      </trkpt>
      <trkpt lat="44.74242" lon="1.78657">
        <ele>345.25</ele>
        <time>2020-07-13T13:24:02Z</time>
      </trkpt>
      <trkpt lat="44.74238" lon="1.78661">
        <ele>345.73</ele>
        <time>2020-07-13T13:24:15Z</time>
      </trkpt>
      <trkpt lat="44.74233" lon="1.78657">
        <ele>346.21</ele>
        <time>2020-07-13T13:24:38Z</time>
      </trkpt>
      <trkpt lat="44.74233" lon="1.78654">
        <ele>346.21</ele>
        <time>2020-07-13T13:24:59Z</time>
      </trkpt>
      <trkpt lat="44.74235" lon="1.78655">
        <ele>346.21</ele>
        <time>2020-07-13T13:25:19Z</time>
      </trkpt>
      <trkpt lat="44.74237" lon="1.78658">
        <ele>346.69</ele>
        <time>2020-07-13T13:25:47Z</time>
      </trkpt>
      <trkpt lat="44.7423" lon="1.78662">
        <ele>346.69</ele>
        <time>2020-07-13T13:26:05Z</time>
      </trkpt>
      <trkpt lat="44.74229" lon="1.78665">
        <ele>346.69</ele>
        <time>2020-07-13T13:26:28Z</time>
      </trkpt>
      <trkpt lat="44.74228" lon="1.78666">
        <ele>346.69</ele>
        <time>2020-07-13T13:26:48Z</time>
      </trkpt>
      <trkpt lat="44.74229" lon="1.78667">
        <ele>346.69</ele>
        <time>2020-07-13T13:27:09Z</time>
      </trkpt>
      <trkpt lat="44.74231" lon="1.78664">
        <ele>346.69</ele>
        <time>2020-07-13T13:27:29Z</time>
      </trkpt>
      <trkpt lat="44.74231" lon="1.78662">
        <ele>347.17</ele>
        <time>2020-07-13T13:27:46Z</time>
      </trkpt>
      <trkpt lat="44.7423" lon="1.78664">
        <ele>347.17</ele>
        <time>2020-07-13T13:28:04Z</time>
      </trkpt>
      <trkpt lat="44.74227" lon="1.78661">
        <ele>347.17</ele>
        <time>2020-07-13T13:28:34Z</time>
      </trkpt>
      <trkpt lat="44.7423" lon="1.78659">
        <ele>346.69</ele>
        <time>2020-07-13T13:29:00Z</time>
      </trkpt>
      <trkpt lat="44.74228" lon="1.78665">
        <ele>346.69</ele>
        <time>2020-07-13T13:29:15Z</time>
      </trkpt>
      <trkpt lat="44.74224" lon="1.78687">
        <ele>346.69</ele>
        <time>2020-07-13T13:29:34Z</time>
      </trkpt>
      <trkpt lat="44.7422" lon="1.7871">
        <ele>346.69</ele>
        <time>2020-07-13T13:29:50Z</time>
      </trkpt>
      <trkpt lat="44.74214" lon="1.78715">
        <ele>346.69</ele>
        <time>2020-07-13T13:29:57Z</time>
      </trkpt>
      <trkpt lat="44.74199" lon="1.78706">
        <ele>347.17</ele>
        <time>2020-07-13T13:30:14Z</time>
      </trkpt>
      <trkpt lat="44.74178" lon="1.78693">
        <ele>349.58</ele>
        <time>2020-07-13T13:30:35Z</time>
      </trkpt>
      <trkpt lat="44.74167" lon="1.7867">
        <ele>351.98</ele>
        <time>2020-07-13T13:30:53Z</time>
      </trkpt>
      <trkpt lat="44.74165" lon="1.78654">
        <ele>350.54</ele>
        <time>2020-07-13T13:31:04Z</time>
      </trkpt>
      <trkpt lat="44.74165" lon="1.78651">
        <ele>351.98</ele>
        <time>2020-07-13T13:31:06Z</time>
      </trkpt>
      <trkpt lat="44.74164" lon="1.78647">
        <ele>350.54</ele>
        <time>2020-07-13T13:31:09Z</time>
      </trkpt>
      <trkpt lat="44.74163" lon="1.78643">
        <ele>351.98</ele>
        <time>2020-07-13T13:31:11Z</time>
      </trkpt>
      <trkpt lat="44.74163" lon="1.78638">
        <ele>350.54</ele>
        <time>2020-07-13T13:31:14Z</time>
      </trkpt>
      <trkpt lat="44.74164" lon="1.78633">
        <ele>351.98</ele>
        <time>2020-07-13T13:31:17Z</time>
      </trkpt>
      <trkpt lat="44.74165" lon="1.78608">
        <ele>350.54</ele>
        <time>2020-07-13T13:31:31Z</time>
      </trkpt>
      <trkpt lat="44.74166" lon="1.78598">
        <ele>351.98</ele>
        <time>2020-07-13T13:31:37Z</time>
      </trkpt>
      <trkpt lat="44.74166" lon="1.78584">
        <ele>351.98</ele>
        <time>2020-07-13T13:31:44Z</time>
      </trkpt>
      <trkpt lat="44.74167" lon="1.78558">
        <ele>352.94</ele>
        <time>2020-07-13T13:32:00Z</time>
      </trkpt>
      <trkpt lat="44.74165" lon="1.78526">
        <ele>353.9</ele>
        <time>2020-07-13T13:32:18Z</time>
      </trkpt>
      <trkpt lat="44.74164" lon="1.78513">
        <ele>353.9</ele>
        <time>2020-07-13T13:32:26Z</time>
      </trkpt>
      <trkpt lat="44.74165" lon="1.78488">
        <ele>352.94</ele>
        <time>2020-07-13T13:32:39Z</time>
      </trkpt>
      <trkpt lat="44.74168" lon="1.78464">
        <ele>351.98</ele>
        <time>2020-07-13T13:32:53Z</time>
      </trkpt>
      <trkpt lat="44.7417" lon="1.78444">
        <ele>350.54</ele>
        <time>2020-07-13T13:33:05Z</time>
      </trkpt>
      <trkpt lat="44.74179" lon="1.78401">
        <ele>351.02</ele>
        <time>2020-07-13T13:33:27Z</time>
      </trkpt>
      <trkpt lat="44.7418" lon="1.7838">
        <ele>349.58</ele>
        <time>2020-07-13T13:33:37Z</time>
      </trkpt>
      <trkpt lat="44.74182" lon="1.78338">
        <ele>351.02</ele>
        <time>2020-07-13T13:33:59Z</time>
      </trkpt>
      <trkpt lat="44.74187" lon="1.7831">
        <ele>351.02</ele>
        <time>2020-07-13T13:34:15Z</time>
      </trkpt>
      <trkpt lat="44.74191" lon="1.78276">
        <ele>352.46</ele>
        <time>2020-07-13T13:34:35Z</time>
      </trkpt>
      <trkpt lat="44.74199" lon="1.78256">
        <ele>353.9</ele>
        <time>2020-07-13T13:34:51Z</time>
      </trkpt>
      <trkpt lat="44.74206" lon="1.78236">
        <ele>352.46</ele>
        <time>2020-07-13T13:35:02Z</time>
      </trkpt>
      <trkpt lat="44.74214" lon="1.78205">
        <ele>352.94</ele>
        <time>2020-07-13T13:35:21Z</time>
      </trkpt>
      <trkpt lat="44.74224" lon="1.78173">
        <ele>351.5</ele>
        <time>2020-07-13T13:35:40Z</time>
      </trkpt>
      <trkpt lat="44.74225" lon="1.78163">
        <ele>352.94</ele>
        <time>2020-07-13T13:35:43Z</time>
      </trkpt>
      <trkpt lat="44.74227" lon="1.78153">
        <ele>352.94</ele>
        <time>2020-07-13T13:35:49Z</time>
      </trkpt>
      <trkpt lat="44.74228" lon="1.7815">
        <ele>351.5</ele>
        <time>2020-07-13T13:35:51Z</time>
      </trkpt>
      <trkpt lat="44.7424" lon="1.78127">
        <ele>350.54</ele>
        <time>2020-07-13T13:36:10Z</time>
      </trkpt>
      <trkpt lat="44.74239" lon="1.78125">
        <ele>350.54</ele>
        <time>2020-07-13T13:36:26Z</time>
      </trkpt>
      <trkpt lat="44.74248" lon="1.78106">
        <ele>350.54</ele>
        <time>2020-07-13T13:36:44Z</time>
      </trkpt>
      <trkpt lat="44.74263" lon="1.78081">
        <ele>350.06</ele>
        <time>2020-07-13T13:37:03Z</time>
      </trkpt>
      <trkpt lat="44.74276" lon="1.78066">
        <ele>350.54</ele>
        <time>2020-07-13T13:37:19Z</time>
      </trkpt>
      <trkpt lat="44.7429" lon="1.7806">
        <ele>349.1</ele>
        <time>2020-07-13T13:37:31Z</time>
      </trkpt>
      <trkpt lat="44.74295" lon="1.78056">
        <ele>349.58</ele>
        <time>2020-07-13T13:37:37Z</time>
      </trkpt>
      <trkpt lat="44.74297" lon="1.78055">
        <ele>351.02</ele>
        <time>2020-07-13T13:37:39Z</time>
      </trkpt>
      <trkpt lat="44.74313" lon="1.78049">
        <ele>349.58</ele>
        <time>2020-07-13T13:37:55Z</time>
      </trkpt>
      <trkpt lat="44.7434" lon="1.78044">
        <ele>348.13</ele>
        <time>2020-07-13T13:38:14Z</time>
      </trkpt>
      <trkpt lat="44.74353" lon="1.78044">
        <ele>347.65</ele>
        <time>2020-07-13T13:38:27Z</time>
      </trkpt>
      <trkpt lat="44.74369" lon="1.78041">
        <ele>347.17</ele>
        <time>2020-07-13T13:38:41Z</time>
      </trkpt>
      <trkpt lat="44.74389" lon="1.78048">
        <ele>347.65</ele>
        <time>2020-07-13T13:38:59Z</time>
      </trkpt>
      <trkpt lat="44.74405" lon="1.78055">
        <ele>347.65</ele>
        <time>2020-07-13T13:39:15Z</time>
      </trkpt>
      <trkpt lat="44.74425" lon="1.78056">
        <ele>348.62</ele>
        <time>2020-07-13T13:39:35Z</time>
      </trkpt>
      <trkpt lat="44.74427" lon="1.7805">
        <ele>348.13</ele>
        <time>2020-07-13T13:40:06Z</time>
      </trkpt>
      <trkpt lat="44.74424" lon="1.7803">
        <ele>346.69</ele>
        <time>2020-07-13T13:40:19Z</time>
      </trkpt>
      <trkpt lat="44.74422" lon="1.77999">
        <ele>345.25</ele>
        <time>2020-07-13T13:40:38Z</time>
      </trkpt>
      <trkpt lat="44.74435" lon="1.77977">
        <ele>346.69</ele>
        <time>2020-07-13T13:40:52Z</time>
      </trkpt>
      <trkpt lat="44.74443" lon="1.77965">
        <ele>347.17</ele>
        <time>2020-07-13T13:41:01Z</time>
      </trkpt>
      <trkpt lat="44.74464" lon="1.77952">
        <ele>348.13</ele>
        <time>2020-07-13T13:41:20Z</time>
      </trkpt>
      <trkpt lat="44.7449" lon="1.77938">
        <ele>350.06</ele>
        <time>2020-07-13T13:41:43Z</time>
      </trkpt>
      <trkpt lat="44.74505" lon="1.77927">
        <ele>350.54</ele>
        <time>2020-07-13T13:41:58Z</time>
      </trkpt>
      <trkpt lat="44.7452" lon="1.77923">
        <ele>351.02</ele>
        <time>2020-07-13T13:42:14Z</time>
      </trkpt>
      <trkpt lat="44.74522" lon="1.7791">
        <ele>350.54</ele>
        <time>2020-07-13T13:42:26Z</time>
      </trkpt>
      <trkpt lat="44.7452" lon="1.77908">
        <ele>349.58</ele>
        <time>2020-07-13T13:42:28Z</time>
      </trkpt>
      <trkpt lat="44.74512" lon="1.77912">
        <ele>349.58</ele>
        <time>2020-07-13T13:42:44Z</time>
      </trkpt>
      <trkpt lat="44.7451" lon="1.77919">
        <ele>349.1</ele>
        <time>2020-07-13T13:43:02Z</time>
      </trkpt>
      <trkpt lat="44.74512" lon="1.7792">
        <ele>350.54</ele>
        <time>2020-07-13T13:43:17Z</time>
      </trkpt>
      <trkpt lat="44.74513" lon="1.77921">
        <ele>350.54</ele>
        <time>2020-07-13T13:43:42Z</time>
      </trkpt>
      <trkpt lat="44.74515" lon="1.77912">
        <ele>350.54</ele>
        <time>2020-07-13T13:44:07Z</time>
      </trkpt>
      <trkpt lat="44.7452" lon="1.77906">
        <ele>350.54</ele>
        <time>2020-07-13T13:44:13Z</time>
      </trkpt>
      <trkpt lat="44.74527" lon="1.7789">
        <ele>350.54</ele>
        <time>2020-07-13T13:44:40Z</time>
      </trkpt>
      <trkpt lat="44.74511" lon="1.77883">
        <ele>350.06</ele>
        <time>2020-07-13T13:45:06Z</time>
      </trkpt>
      <trkpt lat="44.74512" lon="1.77888">
        <ele>350.06</ele>
        <time>2020-07-13T13:45:20Z</time>
      </trkpt>
      <trkpt lat="44.74525" lon="1.77913">
        <ele>350.06</ele>
        <time>2020-07-13T13:47:25Z</time>
      </trkpt>
      <trkpt lat="44.7451" lon="1.77915">
        <ele>350.06</ele>
        <time>2020-07-13T13:47:39Z</time>
      </trkpt>
      <trkpt lat="44.74508" lon="1.77917">
        <ele>350.06</ele>
        <time>2020-07-13T13:47:53Z</time>
      </trkpt>
      <trkpt lat="44.74508" lon="1.77917">
        <ele>349.1</ele>
        <time>2020-07-13T13:48:19Z</time>
      </trkpt>
      <trkpt lat="44.74511" lon="1.77915">
        <ele>350.54</ele>
        <time>2020-07-13T13:48:33Z</time>
      </trkpt>
      <trkpt lat="44.74522" lon="1.77911">
        <ele>350.54</ele>
        <time>2020-07-13T13:48:51Z</time>
      </trkpt>
      <trkpt lat="44.74525" lon="1.77912">
        <ele>351.02</ele>
        <time>2020-07-13T13:49:20Z</time>
      </trkpt>
      <trkpt lat="44.74533" lon="1.77919">
        <ele>352.46</ele>
        <time>2020-07-13T13:49:37Z</time>
      </trkpt>
      <trkpt lat="44.74549" lon="1.77914">
        <ele>353.42</ele>
        <time>2020-07-13T13:49:55Z</time>
      </trkpt>
      <trkpt lat="44.74565" lon="1.77915">
        <ele>352.94</ele>
        <time>2020-07-13T13:50:08Z</time>
      </trkpt>
      <trkpt lat="44.74584" lon="1.77918">
        <ele>352.46</ele>
        <time>2020-07-13T13:50:23Z</time>
      </trkpt>
      <trkpt lat="44.74587" lon="1.77919">
        <ele>353.42</ele>
        <time>2020-07-13T13:50:25Z</time>
      </trkpt>
      <trkpt lat="44.74594" lon="1.77921">
        <ele>352.46</ele>
        <time>2020-07-13T13:50:31Z</time>
      </trkpt>
      <trkpt lat="44.74608" lon="1.77925">
        <ele>353.42</ele>
        <time>2020-07-13T13:50:40Z</time>
      </trkpt>
      <trkpt lat="44.74632" lon="1.77933">
        <ele>351.98</ele>
        <time>2020-07-13T13:51:01Z</time>
      </trkpt>
      <trkpt lat="44.74643" lon="1.77936">
        <ele>350.54</ele>
        <time>2020-07-13T13:51:12Z</time>
      </trkpt>
      <trkpt lat="44.74655" lon="1.77939">
        <ele>351.5</ele>
        <time>2020-07-13T13:51:21Z</time>
      </trkpt>
      <trkpt lat="44.74675" lon="1.77936">
        <ele>349.1</ele>
        <time>2020-07-13T13:51:37Z</time>
      </trkpt>
      <trkpt lat="44.74677" lon="1.77935">
        <ele>350.54</ele>
        <time>2020-07-13T13:51:39Z</time>
      </trkpt>
      <trkpt lat="44.74699" lon="1.77935">
        <ele>349.58</ele>
        <time>2020-07-13T13:51:59Z</time>
      </trkpt>
      <trkpt lat="44.74703" lon="1.77934">
        <ele>350.06</ele>
        <time>2020-07-13T13:52:03Z</time>
      </trkpt>
      <trkpt lat="44.7471" lon="1.77931">
        <ele>348.13</ele>
        <time>2020-07-13T13:52:09Z</time>
      </trkpt>
      <trkpt lat="44.74712" lon="1.77931">
        <ele>350.06</ele>
        <time>2020-07-13T13:52:11Z</time>
      </trkpt>
      <trkpt lat="44.74734" lon="1.77934">
        <ele>351.02</ele>
        <time>2020-07-13T13:52:26Z</time>
      </trkpt>
      <trkpt lat="44.74744" lon="1.77933">
        <ele>350.06</ele>
        <time>2020-07-13T13:52:35Z</time>
      </trkpt>
      <trkpt lat="44.74758" lon="1.77922">
        <ele>350.06</ele>
        <time>2020-07-13T13:52:47Z</time>
      </trkpt>
      <trkpt lat="44.74759" lon="1.7792">
        <ele>351.5</ele>
        <time>2020-07-13T13:52:49Z</time>
      </trkpt>
      <trkpt lat="44.74773" lon="1.77897">
        <ele>351.02</ele>
        <time>2020-07-13T13:53:08Z</time>
      </trkpt>
      <trkpt lat="44.74779" lon="1.77883">
        <ele>349.1</ele>
        <time>2020-07-13T13:53:17Z</time>
      </trkpt>
      <trkpt lat="44.74782" lon="1.77879">
        <ele>349.1</ele>
        <time>2020-07-13T13:53:20Z</time>
      </trkpt>
      <trkpt lat="44.74796" lon="1.77854">
        <ele>347.17</ele>
        <time>2020-07-13T13:53:38Z</time>
      </trkpt>
      <trkpt lat="44.7481" lon="1.77835">
        <ele>348.13</ele>
        <time>2020-07-13T13:53:52Z</time>
      </trkpt>
      <trkpt lat="44.74829" lon="1.77816">
        <ele>347.65</ele>
        <time>2020-07-13T13:54:10Z</time>
      </trkpt>
      <trkpt lat="44.74831" lon="1.77812">
        <ele>346.69</ele>
        <time>2020-07-13T13:54:13Z</time>
      </trkpt>
      <trkpt lat="44.74853" lon="1.77791">
        <ele>348.13</ele>
        <time>2020-07-13T13:54:32Z</time>
      </trkpt>
      <trkpt lat="44.7486" lon="1.7779">
        <ele>346.69</ele>
        <time>2020-07-13T13:54:37Z</time>
      </trkpt>
      <trkpt lat="44.74882" lon="1.77781">
        <ele>347.17</ele>
        <time>2020-07-13T13:54:56Z</time>
      </trkpt>
      <trkpt lat="44.74895" lon="1.77767">
        <ele>346.21</ele>
        <time>2020-07-13T13:55:08Z</time>
      </trkpt>
      <trkpt lat="44.74898" lon="1.77757">
        <ele>345.25</ele>
        <time>2020-07-13T13:55:14Z</time>
      </trkpt>
      <trkpt lat="44.74899" lon="1.77753">
        <ele>347.17</ele>
        <time>2020-07-13T13:55:16Z</time>
      </trkpt>
      <trkpt lat="44.74912" lon="1.77724">
        <ele>347.65</ele>
        <time>2020-07-13T13:55:35Z</time>
      </trkpt>
      <trkpt lat="44.74913" lon="1.77722">
        <ele>346.21</ele>
        <time>2020-07-13T13:55:37Z</time>
      </trkpt>
      <trkpt lat="44.74929" lon="1.77695">
        <ele>347.17</ele>
        <time>2020-07-13T13:55:58Z</time>
      </trkpt>
      <trkpt lat="44.74945" lon="1.77691">
        <ele>345.73</ele>
        <time>2020-07-13T13:56:16Z</time>
      </trkpt>
      <trkpt lat="44.7496" lon="1.77667">
        <ele>344.29</ele>
        <time>2020-07-13T13:56:36Z</time>
      </trkpt>
      <trkpt lat="44.74973" lon="1.77639">
        <ele>342.85</ele>
        <time>2020-07-13T13:56:55Z</time>
      </trkpt>
      <trkpt lat="44.74977" lon="1.7763">
        <ele>344.29</ele>
        <time>2020-07-13T13:57:00Z</time>
      </trkpt>
      <trkpt lat="44.74983" lon="1.77617">
        <ele>342.85</ele>
        <time>2020-07-13T13:57:08Z</time>
      </trkpt>
      <trkpt lat="44.74985" lon="1.77609">
        <ele>344.29</ele>
        <time>2020-07-13T13:57:15Z</time>
      </trkpt>
      <trkpt lat="44.74987" lon="1.77606">
        <ele>342.85</ele>
        <time>2020-07-13T13:57:17Z</time>
      </trkpt>
      <trkpt lat="44.74998" lon="1.77575">
        <ele>341.89</ele>
        <time>2020-07-13T13:57:37Z</time>
      </trkpt>
      <trkpt lat="44.75006" lon="1.77545">
        <ele>343.33</ele>
        <time>2020-07-13T13:57:56Z</time>
      </trkpt>
      <trkpt lat="44.75017" lon="1.77511">
        <ele>343.33</ele>
        <time>2020-07-13T13:58:17Z</time>
      </trkpt>
      <trkpt lat="44.75023" lon="1.77496">
        <ele>344.29</ele>
        <time>2020-07-13T13:58:26Z</time>
      </trkpt>
      <trkpt lat="44.75026" lon="1.77477">
        <ele>344.29</ele>
        <time>2020-07-13T13:58:46Z</time>
      </trkpt>
      <trkpt lat="44.75031" lon="1.77459">
        <ele>344.77</ele>
        <time>2020-07-13T13:59:02Z</time>
      </trkpt>
      <trkpt lat="44.75037" lon="1.77441">
        <ele>343.81</ele>
        <time>2020-07-13T13:59:13Z</time>
      </trkpt>
      <trkpt lat="44.75039" lon="1.77435">
        <ele>344.77</ele>
        <time>2020-07-13T13:59:16Z</time>
      </trkpt>
      <trkpt lat="44.7504" lon="1.77429">
        <ele>343.81</ele>
        <time>2020-07-13T13:59:21Z</time>
      </trkpt>
      <trkpt lat="44.75043" lon="1.77403">
        <ele>343.81</ele>
        <time>2020-07-13T13:59:35Z</time>
      </trkpt>
      <trkpt lat="44.75041" lon="1.77384">
        <ele>342.85</ele>
        <time>2020-07-13T13:59:50Z</time>
      </trkpt>
      <trkpt lat="44.75041" lon="1.77367">
        <ele>342.85</ele>
        <time>2020-07-13T14:00:02Z</time>
      </trkpt>
      <trkpt lat="44.75042" lon="1.77361">
        <ele>341.89</ele>
        <time>2020-07-13T14:00:06Z</time>
      </trkpt>
      <trkpt lat="44.7504" lon="1.77346">
        <ele>342.37</ele>
        <time>2020-07-13T14:00:22Z</time>
      </trkpt>
      <trkpt lat="44.75034" lon="1.77337">
        <ele>340.92</ele>
        <time>2020-07-13T14:00:29Z</time>
      </trkpt>
      <trkpt lat="44.75036" lon="1.77308">
        <ele>341.41</ele>
        <time>2020-07-13T14:00:47Z</time>
      </trkpt>
      <trkpt lat="44.75035" lon="1.77297">
        <ele>339.96</ele>
        <time>2020-07-13T14:00:54Z</time>
      </trkpt>
      <trkpt lat="44.75035" lon="1.77293">
        <ele>341.41</ele>
        <time>2020-07-13T14:00:56Z</time>
      </trkpt>
      <trkpt lat="44.75035" lon="1.77287">
        <ele>339.96</ele>
        <time>2020-07-13T14:01:01Z</time>
      </trkpt>
      <trkpt lat="44.75035" lon="1.77278">
        <ele>339.96</ele>
        <time>2020-07-13T14:01:19Z</time>
      </trkpt>
      <trkpt lat="44.75034" lon="1.77272">
        <ele>339.96</ele>
        <time>2020-07-13T14:01:23Z</time>
      </trkpt>
      <trkpt lat="44.75034" lon="1.77266">
        <ele>339.96</ele>
        <time>2020-07-13T14:01:27Z</time>
      </trkpt>
      <trkpt lat="44.75035" lon="1.77241">
        <ele>339.96</ele>
        <time>2020-07-13T14:01:45Z</time>
      </trkpt>
      <trkpt lat="44.75034" lon="1.77238">
        <ele>339.96</ele>
        <time>2020-07-13T14:02:10Z</time>
      </trkpt>
      <trkpt lat="44.75032" lon="1.77236">
        <ele>339.96</ele>
        <time>2020-07-13T14:02:45Z</time>
      </trkpt>
      <trkpt lat="44.75034" lon="1.77236">
        <ele>340.92</ele>
        <time>2020-07-13T14:03:17Z</time>
      </trkpt>
      <trkpt lat="44.75036" lon="1.77237">
        <ele>340.92</ele>
        <time>2020-07-13T14:03:34Z</time>
      </trkpt>
      <trkpt lat="44.75037" lon="1.77239">
        <ele>340.92</ele>
        <time>2020-07-13T14:04:00Z</time>
      </trkpt>
      <trkpt lat="44.75031" lon="1.77241">
        <ele>338.52</ele>
        <time>2020-07-13T14:04:17Z</time>
      </trkpt>
      <trkpt lat="44.75033" lon="1.7724">
        <ele>338.52</ele>
        <time>2020-07-13T14:04:50Z</time>
      </trkpt>
      <trkpt lat="44.75029" lon="1.77241">
        <ele>338.52</ele>
        <time>2020-07-13T14:05:17Z</time>
      </trkpt>
      <trkpt lat="44.75032" lon="1.77239">
        <ele>338.52</ele>
        <time>2020-07-13T14:05:47Z</time>
      </trkpt>
      <trkpt lat="44.75028" lon="1.77239">
        <ele>338.52</ele>
        <time>2020-07-13T14:06:17Z</time>
      </trkpt>
      <trkpt lat="44.75034" lon="1.77238">
        <ele>338.52</ele>
        <time>2020-07-13T14:06:49Z</time>
      </trkpt>
      <trkpt lat="44.75038" lon="1.77238">
        <ele>339.96</ele>
        <time>2020-07-13T14:07:02Z</time>
      </trkpt>
      <trkpt lat="44.7503" lon="1.77241">
        <ele>339.96</ele>
        <time>2020-07-13T14:07:35Z</time>
      </trkpt>
      <trkpt lat="44.75035" lon="1.77239">
        <ele>339.96</ele>
        <time>2020-07-13T14:07:49Z</time>
      </trkpt>
      <trkpt lat="44.75037" lon="1.77237">
        <ele>340.44</ele>
        <time>2020-07-13T14:08:05Z</time>
      </trkpt>
      <trkpt lat="44.75037" lon="1.77237">
        <ele>340.44</ele>
        <time>2020-07-13T14:08:22Z</time>
      </trkpt>
      <trkpt lat="44.7504" lon="1.77237">
        <ele>340.44</ele>
        <time>2020-07-13T14:08:44Z</time>
      </trkpt>
      <trkpt lat="44.75038" lon="1.77235">
        <ele>340.44</ele>
        <time>2020-07-13T14:09:02Z</time>
      </trkpt>
      <trkpt lat="44.75037" lon="1.77234">
        <ele>340.44</ele>
        <time>2020-07-13T14:09:18Z</time>
      </trkpt>
      <trkpt lat="44.75036" lon="1.77235">
        <ele>340.44</ele>
        <time>2020-07-13T14:09:41Z</time>
      </trkpt>
      <trkpt lat="44.7504" lon="1.77228">
        <ele>340.44</ele>
        <time>2020-07-13T14:10:08Z</time>
      </trkpt>
      <trkpt lat="44.75043" lon="1.77212">
        <ele>338.04</ele>
        <time>2020-07-13T14:10:17Z</time>
      </trkpt>
      <trkpt lat="44.75044" lon="1.77207">
        <ele>338.04</ele>
        <time>2020-07-13T14:10:19Z</time>
      </trkpt>
      <trkpt lat="44.75043" lon="1.77203">
        <ele>339.48</ele>
        <time>2020-07-13T14:10:21Z</time>
      </trkpt>
      <trkpt lat="44.75046" lon="1.77179">
        <ele>339.96</ele>
        <time>2020-07-13T14:10:35Z</time>
      </trkpt>
      <trkpt lat="44.75041" lon="1.77162">
        <ele>339.96</ele>
        <time>2020-07-13T14:10:46Z</time>
      </trkpt>
      <trkpt lat="44.75041" lon="1.77161">
        <ele>339.96</ele>
        <time>2020-07-13T14:10:47Z</time>
      </trkpt>
      <trkpt lat="44.7504" lon="1.77131">
        <ele>337.08</ele>
        <time>2020-07-13T14:11:05Z</time>
      </trkpt>
      <trkpt lat="44.75038" lon="1.77099">
        <ele>335.64</ele>
        <time>2020-07-13T14:11:24Z</time>
      </trkpt>
      <trkpt lat="44.75039" lon="1.77066">
        <ele>334.68</ele>
        <time>2020-07-13T14:11:43Z</time>
      </trkpt>
      <trkpt lat="44.75039" lon="1.77064">
        <ele>334.68</ele>
        <time>2020-07-13T14:11:44Z</time>
      </trkpt>
      <trkpt lat="44.7504" lon="1.77041">
        <ele>334.68</ele>
        <time>2020-07-13T14:11:58Z</time>
      </trkpt>
      <trkpt lat="44.7504" lon="1.7704">
        <ele>334.68</ele>
        <time>2020-07-13T14:11:59Z</time>
      </trkpt>
      <trkpt lat="44.75044" lon="1.77006">
        <ele>334.68</ele>
        <time>2020-07-13T14:12:19Z</time>
      </trkpt>
      <trkpt lat="44.75045" lon="1.77">
        <ele>332.75</ele>
        <time>2020-07-13T14:12:23Z</time>
      </trkpt>
      <trkpt lat="44.75052" lon="1.76969">
        <ele>332.75</ele>
        <time>2020-07-13T14:12:40Z</time>
      </trkpt>
      <trkpt lat="44.75057" lon="1.76956">
        <ele>330.83</ele>
        <time>2020-07-13T14:12:48Z</time>
      </trkpt>
      <trkpt lat="44.75066" lon="1.76934">
        <ele>330.35</ele>
        <time>2020-07-13T14:13:05Z</time>
      </trkpt>
      <trkpt lat="44.75068" lon="1.76923">
        <ele>331.31</ele>
        <time>2020-07-13T14:13:11Z</time>
      </trkpt>
      <trkpt lat="44.7507" lon="1.76919">
        <ele>329.87</ele>
        <time>2020-07-13T14:13:15Z</time>
      </trkpt>
      <trkpt lat="44.75074" lon="1.76894">
        <ele>328.91</ele>
        <time>2020-07-13T14:13:29Z</time>
      </trkpt>
      <trkpt lat="44.75074" lon="1.76874">
        <ele>329.39</ele>
        <time>2020-07-13T14:13:40Z</time>
      </trkpt>
      <trkpt lat="44.75076" lon="1.76845">
        <ele>327.95</ele>
        <time>2020-07-13T14:13:56Z</time>
      </trkpt>
      <trkpt lat="44.75076" lon="1.76829">
        <ele>326.02</ele>
        <time>2020-07-13T14:14:06Z</time>
      </trkpt>
      <trkpt lat="44.75076" lon="1.76821">
        <ele>326.02</ele>
        <time>2020-07-13T14:14:11Z</time>
      </trkpt>
      <trkpt lat="44.75076" lon="1.76813">
        <ele>327.47</ele>
        <time>2020-07-13T14:14:14Z</time>
      </trkpt>
      <trkpt lat="44.75079" lon="1.76793">
        <ele>324.1</ele>
        <time>2020-07-13T14:14:27Z</time>
      </trkpt>
      <trkpt lat="44.75079" lon="1.76784">
        <ele>323.62</ele>
        <time>2020-07-13T14:14:32Z</time>
      </trkpt>
      <trkpt lat="44.75078" lon="1.76749">
        <ele>321.7</ele>
        <time>2020-07-13T14:14:53Z</time>
      </trkpt>
      <trkpt lat="44.75078" lon="1.76734">
        <ele>319.78</ele>
        <time>2020-07-13T14:15:04Z</time>
      </trkpt>
      <trkpt lat="44.75077" lon="1.76732">
        <ele>321.22</ele>
        <time>2020-07-13T14:15:05Z</time>
      </trkpt>
      <trkpt lat="44.75077" lon="1.76714">
        <ele>318.81</ele>
        <time>2020-07-13T14:15:16Z</time>
      </trkpt>
      <trkpt lat="44.75079" lon="1.76695">
        <ele>318.33</ele>
        <time>2020-07-13T14:15:29Z</time>
      </trkpt>
      <trkpt lat="44.75078" lon="1.76666">
        <ele>317.37</ele>
        <time>2020-07-13T14:15:46Z</time>
      </trkpt>
      <trkpt lat="44.75076" lon="1.76647">
        <ele>314.97</ele>
        <time>2020-07-13T14:15:57Z</time>
      </trkpt>
      <trkpt lat="44.75075" lon="1.76627">
        <ele>313.53</ele>
        <time>2020-07-13T14:16:08Z</time>
      </trkpt>
      <trkpt lat="44.75074" lon="1.76623">
        <ele>314.97</ele>
        <time>2020-07-13T14:16:11Z</time>
      </trkpt>
      <trkpt lat="44.75073" lon="1.76613">
        <ele>313.53</ele>
        <time>2020-07-13T14:16:16Z</time>
      </trkpt>
      <trkpt lat="44.75072" lon="1.76581">
        <ele>312.57</ele>
        <time>2020-07-13T14:16:35Z</time>
      </trkpt>
      <trkpt lat="44.75074" lon="1.76562">
        <ele>310.64</ele>
        <time>2020-07-13T14:16:46Z</time>
      </trkpt>
      <trkpt lat="44.75074" lon="1.7655">
        <ele>311.12</ele>
        <time>2020-07-13T14:16:53Z</time>
      </trkpt>
      <trkpt lat="44.75075" lon="1.76537">
        <ele>312.57</ele>
        <time>2020-07-13T14:17:01Z</time>
      </trkpt>
      <trkpt lat="44.75075" lon="1.76534">
        <ele>311.12</ele>
        <time>2020-07-13T14:17:03Z</time>
      </trkpt>
      <trkpt lat="44.75075" lon="1.7653">
        <ele>312.09</ele>
        <time>2020-07-13T14:17:05Z</time>
      </trkpt>
      <trkpt lat="44.75073" lon="1.76492">
        <ele>312.09</ele>
        <time>2020-07-13T14:17:26Z</time>
      </trkpt>
      <trkpt lat="44.75073" lon="1.76479">
        <ele>310.64</ele>
        <time>2020-07-13T14:17:33Z</time>
      </trkpt>
      <trkpt lat="44.75068" lon="1.76442">
        <ele>312.57</ele>
        <time>2020-07-13T14:17:53Z</time>
      </trkpt>
      <trkpt lat="44.75068" lon="1.76433">
        <ele>312.57</ele>
        <time>2020-07-13T14:18:07Z</time>
      </trkpt>
      <trkpt lat="44.75068" lon="1.76418">
        <ele>313.53</ele>
        <time>2020-07-13T14:18:25Z</time>
      </trkpt>
      <trkpt lat="44.75069" lon="1.76395">
        <ele>314.01</ele>
        <time>2020-07-13T14:18:40Z</time>
      </trkpt>
      <trkpt lat="44.75068" lon="1.76364">
        <ele>315.45</ele>
        <time>2020-07-13T14:18:59Z</time>
      </trkpt>
      <trkpt lat="44.75069" lon="1.76331">
        <ele>315.93</ele>
        <time>2020-07-13T14:19:20Z</time>
      </trkpt>
      <trkpt lat="44.75061" lon="1.76307">
        <ele>314.49</ele>
        <time>2020-07-13T14:19:36Z</time>
      </trkpt>
      <trkpt lat="44.75058" lon="1.76292">
        <ele>313.53</ele>
        <time>2020-07-13T14:19:46Z</time>
      </trkpt>
      <trkpt lat="44.75057" lon="1.7629">
        <ele>314.97</ele>
        <time>2020-07-13T14:19:48Z</time>
      </trkpt>
      <trkpt lat="44.75056" lon="1.76283">
        <ele>314.97</ele>
        <time>2020-07-13T14:19:53Z</time>
      </trkpt>
      <trkpt lat="44.75052" lon="1.76254">
        <ele>313.53</ele>
        <time>2020-07-13T14:20:10Z</time>
      </trkpt>
      <trkpt lat="44.7505" lon="1.76244">
        <ele>312.57</ele>
        <time>2020-07-13T14:20:16Z</time>
      </trkpt>
      <trkpt lat="44.75041" lon="1.76221">
        <ele>313.05</ele>
        <time>2020-07-13T14:20:29Z</time>
      </trkpt>
      <trkpt lat="44.75028" lon="1.76197">
        <ele>313.53</ele>
        <time>2020-07-13T14:20:46Z</time>
      </trkpt>
      <trkpt lat="44.75013" lon="1.76172">
        <ele>314.97</ele>
        <time>2020-07-13T14:21:07Z</time>
      </trkpt>
      <trkpt lat="44.74993" lon="1.7615">
        <ele>315.45</ele>
        <time>2020-07-13T14:21:28Z</time>
      </trkpt>
      <trkpt lat="44.7499" lon="1.76147">
        <ele>314.01</ele>
        <time>2020-07-13T14:21:31Z</time>
      </trkpt>
      <trkpt lat="44.74973" lon="1.76129">
        <ele>313.53</ele>
        <time>2020-07-13T14:21:49Z</time>
      </trkpt>
      <trkpt lat="44.74952" lon="1.7611">
        <ele>311.6</ele>
        <time>2020-07-13T14:22:09Z</time>
      </trkpt>
      <trkpt lat="44.74937" lon="1.76089">
        <ele>311.12</ele>
        <time>2020-07-13T14:22:27Z</time>
      </trkpt>
      <trkpt lat="44.74924" lon="1.76076">
        <ele>307.76</ele>
        <time>2020-07-13T14:22:42Z</time>
      </trkpt>
      <trkpt lat="44.74911" lon="1.76055">
        <ele>305.84</ele>
        <time>2020-07-13T14:23:03Z</time>
      </trkpt>
      <trkpt lat="44.74909" lon="1.76054">
        <ele>305.36</ele>
        <time>2020-07-13T14:23:11Z</time>
      </trkpt>
      <trkpt lat="44.74896" lon="1.76031">
        <ele>305.36</ele>
        <time>2020-07-13T14:23:29Z</time>
      </trkpt>
      <trkpt lat="44.74895" lon="1.76029">
        <ele>305.36</ele>
        <time>2020-07-13T14:23:30Z</time>
      </trkpt>
      <trkpt lat="44.74886" lon="1.76012">
        <ele>305.84</ele>
        <time>2020-07-13T14:23:43Z</time>
      </trkpt>
      <trkpt lat="44.74883" lon="1.76007">
        <ele>304.39</ele>
        <time>2020-07-13T14:23:46Z</time>
      </trkpt>
      <trkpt lat="44.74868" lon="1.75977">
        <ele>306.32</ele>
        <time>2020-07-13T14:24:07Z</time>
      </trkpt>
      <trkpt lat="44.74857" lon="1.75952">
        <ele>307.28</ele>
        <time>2020-07-13T14:24:26Z</time>
      </trkpt>
      <trkpt lat="44.74845" lon="1.75933">
        <ele>307.76</ele>
        <time>2020-07-13T14:24:48Z</time>
      </trkpt>
      <trkpt lat="44.74826" lon="1.75912">
        <ele>308.72</ele>
        <time>2020-07-13T14:25:11Z</time>
      </trkpt>
      <trkpt lat="44.74817" lon="1.75901">
        <ele>308.24</ele>
        <time>2020-07-13T14:25:21Z</time>
      </trkpt>
      <trkpt lat="44.74803" lon="1.75875">
        <ele>311.12</ele>
        <time>2020-07-13T14:25:40Z</time>
      </trkpt>
      <trkpt lat="44.74783" lon="1.75868">
        <ele>313.53</ele>
        <time>2020-07-13T14:26:00Z</time>
      </trkpt>
      <trkpt lat="44.7476" lon="1.75858">
        <ele>314.49</ele>
        <time>2020-07-13T14:26:23Z</time>
      </trkpt>
      <trkpt lat="44.74749" lon="1.75854">
        <ele>314.97</ele>
        <time>2020-07-13T14:26:33Z</time>
      </trkpt>
      <trkpt lat="44.74746" lon="1.75837">
        <ele>314.97</ele>
        <time>2020-07-13T14:26:47Z</time>
      </trkpt>
      <trkpt lat="44.74748" lon="1.75816">
        <ele>313.05</ele>
        <time>2020-07-13T14:27:04Z</time>
      </trkpt>
      <trkpt lat="44.74747" lon="1.75801">
        <ele>313.05</ele>
        <time>2020-07-13T14:27:27Z</time>
      </trkpt>
      <trkpt lat="44.74748" lon="1.758">
        <ele>313.05</ele>
        <time>2020-07-13T14:27:52Z</time>
      </trkpt>
      <trkpt lat="44.74749" lon="1.75788">
        <ele>313.05</ele>
        <time>2020-07-13T14:28:13Z</time>
      </trkpt>
      <trkpt lat="44.74749" lon="1.75784">
        <ele>311.12</ele>
        <time>2020-07-13T14:28:16Z</time>
      </trkpt>
      <trkpt lat="44.74749" lon="1.75782">
        <ele>310.64</ele>
        <time>2020-07-13T14:28:17Z</time>
      </trkpt>
      <trkpt lat="44.74748" lon="1.75778">
        <ele>312.09</ele>
        <time>2020-07-13T14:28:20Z</time>
      </trkpt>
      <trkpt lat="44.74746" lon="1.75759">
        <ele>310.16</ele>
        <time>2020-07-13T14:28:32Z</time>
      </trkpt>
      <trkpt lat="44.74745" lon="1.7574">
        <ele>309.2</ele>
        <time>2020-07-13T14:28:50Z</time>
      </trkpt>
      <trkpt lat="44.74748" lon="1.75734">
        <ele>307.76</ele>
        <time>2020-07-13T14:29:06Z</time>
      </trkpt>
      <trkpt lat="44.74746" lon="1.7573">
        <ele>307.28</ele>
        <time>2020-07-13T14:29:30Z</time>
      </trkpt>
      <trkpt lat="44.74749" lon="1.75728">
        <ele>307.28</ele>
        <time>2020-07-13T14:29:58Z</time>
      </trkpt>
      <trkpt lat="44.7475" lon="1.75741">
        <ele>308.72</ele>
        <time>2020-07-13T14:30:26Z</time>
      </trkpt>
      <trkpt lat="44.74732" lon="1.75734">
        <ele>309.68</ele>
        <time>2020-07-13T14:30:45Z</time>
      </trkpt>
      <trkpt lat="44.74724" lon="1.75711">
        <ele>310.16</ele>
        <time>2020-07-13T14:31:03Z</time>
      </trkpt>
      <trkpt lat="44.74724" lon="1.75708">
        <ele>308.72</ele>
        <time>2020-07-13T14:31:05Z</time>
      </trkpt>
      <trkpt lat="44.74725" lon="1.757">
        <ele>310.16</ele>
        <time>2020-07-13T14:31:10Z</time>
      </trkpt>
      <trkpt lat="44.74737" lon="1.75663">
        <ele>311.6</ele>
        <time>2020-07-13T14:31:30Z</time>
      </trkpt>
      <trkpt lat="44.74741" lon="1.75629">
        <ele>312.09</ele>
        <time>2020-07-13T14:31:50Z</time>
      </trkpt>
      <trkpt lat="44.74745" lon="1.75595">
        <ele>313.05</ele>
        <time>2020-07-13T14:32:09Z</time>
      </trkpt>
      <trkpt lat="44.74747" lon="1.75584">
        <ele>311.6</ele>
        <time>2020-07-13T14:32:15Z</time>
      </trkpt>
      <trkpt lat="44.74756" lon="1.7557">
        <ele>312.57</ele>
        <time>2020-07-13T14:32:32Z</time>
      </trkpt>
      <trkpt lat="44.74758" lon="1.75564">
        <ele>311.12</ele>
        <time>2020-07-13T14:32:36Z</time>
      </trkpt>
      <trkpt lat="44.74764" lon="1.7555">
        <ele>311.12</ele>
        <time>2020-07-13T14:32:46Z</time>
      </trkpt>
      <trkpt lat="44.74769" lon="1.7554">
        <ele>310.16</ele>
        <time>2020-07-13T14:32:53Z</time>
      </trkpt>
      <trkpt lat="44.74771" lon="1.75532">
        <ele>310.16</ele>
        <time>2020-07-13T14:32:57Z</time>
      </trkpt>
      <trkpt lat="44.74783" lon="1.75502">
        <ele>309.68</ele>
        <time>2020-07-13T14:33:17Z</time>
      </trkpt>
      <trkpt lat="44.74792" lon="1.75481">
        <ele>308.72</ele>
        <time>2020-07-13T14:33:31Z</time>
      </trkpt>
      <trkpt lat="44.74801" lon="1.75459">
        <ele>306.32</ele>
        <time>2020-07-13T14:33:48Z</time>
      </trkpt>
      <trkpt lat="44.74802" lon="1.75457">
        <ele>306.32</ele>
        <time>2020-07-13T14:33:49Z</time>
      </trkpt>
      <trkpt lat="44.74807" lon="1.75443">
        <ele>306.8</ele>
        <time>2020-07-13T14:33:58Z</time>
      </trkpt>
      <trkpt lat="44.7481" lon="1.75432">
        <ele>304.88</ele>
        <time>2020-07-13T14:34:06Z</time>
      </trkpt>
      <trkpt lat="44.74811" lon="1.75402">
        <ele>304.88</ele>
        <time>2020-07-13T14:34:24Z</time>
      </trkpt>
      <trkpt lat="44.74807" lon="1.75368">
        <ele>304.88</ele>
        <time>2020-07-13T14:34:43Z</time>
      </trkpt>
      <trkpt lat="44.74806" lon="1.75353">
        <ele>303.91</ele>
        <time>2020-07-13T14:34:58Z</time>
      </trkpt>
      <trkpt lat="44.74807" lon="1.75352">
        <ele>303.91</ele>
        <time>2020-07-13T14:34:59Z</time>
      </trkpt>
      <trkpt lat="44.74814" lon="1.75322">
        <ele>302.95</ele>
        <time>2020-07-13T14:35:18Z</time>
      </trkpt>
      <trkpt lat="44.74827" lon="1.75315">
        <ele>302.47</ele>
        <time>2020-07-13T14:35:35Z</time>
      </trkpt>
      <trkpt lat="44.74831" lon="1.75315">
        <ele>301.51</ele>
        <time>2020-07-13T14:35:39Z</time>
      </trkpt>
      <trkpt lat="44.74844" lon="1.75314">
        <ele>302.47</ele>
        <time>2020-07-13T14:35:47Z</time>
      </trkpt>
      <trkpt lat="44.74853" lon="1.75311">
        <ele>300.55</ele>
        <time>2020-07-13T14:35:53Z</time>
      </trkpt>
      <trkpt lat="44.74855" lon="1.7531">
        <ele>301.99</ele>
        <time>2020-07-13T14:35:55Z</time>
      </trkpt>
      <trkpt lat="44.74865" lon="1.75308">
        <ele>301.03</ele>
        <time>2020-07-13T14:36:03Z</time>
      </trkpt>
      <trkpt lat="44.7487" lon="1.75307">
        <ele>302.47</ele>
        <time>2020-07-13T14:36:08Z</time>
      </trkpt>
      <trkpt lat="44.74872" lon="1.75306">
        <ele>301.03</ele>
        <time>2020-07-13T14:36:10Z</time>
      </trkpt>
      <trkpt lat="44.74892" lon="1.75295">
        <ele>303.91</ele>
        <time>2020-07-13T14:36:26Z</time>
      </trkpt>
      <trkpt lat="44.74899" lon="1.7527">
        <ele>303.91</ele>
        <time>2020-07-13T14:36:44Z</time>
      </trkpt>
      <trkpt lat="44.74908" lon="1.75246">
        <ele>304.88</ele>
        <time>2020-07-13T14:37:01Z</time>
      </trkpt>
      <trkpt lat="44.74913" lon="1.75228">
        <ele>303.91</ele>
        <time>2020-07-13T14:37:13Z</time>
      </trkpt>
      <trkpt lat="44.74922" lon="1.75197">
        <ele>304.39</ele>
        <time>2020-07-13T14:37:32Z</time>
      </trkpt>
      <trkpt lat="44.74927" lon="1.75168">
        <ele>305.84</ele>
        <time>2020-07-13T14:37:50Z</time>
      </trkpt>
      <trkpt lat="44.74934" lon="1.75142">
        <ele>306.8</ele>
        <time>2020-07-13T14:38:09Z</time>
      </trkpt>
      <trkpt lat="44.74942" lon="1.75112">
        <ele>307.28</ele>
        <time>2020-07-13T14:38:24Z</time>
      </trkpt>
      <trkpt lat="44.74958" lon="1.75085">
        <ele>305.36</ele>
        <time>2020-07-13T14:38:45Z</time>
      </trkpt>
      <trkpt lat="44.74971" lon="1.75068">
        <ele>305.36</ele>
        <time>2020-07-13T14:39:02Z</time>
      </trkpt>
      <trkpt lat="44.7497" lon="1.75065">
        <ele>305.36</ele>
        <time>2020-07-13T14:39:30Z</time>
      </trkpt>
      <trkpt lat="44.74967" lon="1.75073">
        <ele>304.88</ele>
        <time>2020-07-13T14:39:57Z</time>
      </trkpt>
      <trkpt lat="44.74956" lon="1.7507">
        <ele>305.84</ele>
        <time>2020-07-13T14:40:12Z</time>
      </trkpt>
      <trkpt lat="44.74981" lon="1.7506">
        <ele>305.36</ele>
        <time>2020-07-13T14:40:32Z</time>
      </trkpt>
      <trkpt lat="44.75005" lon="1.75049">
        <ele>304.39</ele>
        <time>2020-07-13T14:40:51Z</time>
      </trkpt>
      <trkpt lat="44.75008" lon="1.75048">
        <ele>304.39</ele>
        <time>2020-07-13T14:40:53Z</time>
      </trkpt>
      <trkpt lat="44.75012" lon="1.75043">
        <ele>303.91</ele>
        <time>2020-07-13T14:41:04Z</time>
      </trkpt>
      <trkpt lat="44.75012" lon="1.75052">
        <ele>303.91</ele>
        <time>2020-07-13T14:41:10Z</time>
      </trkpt>
      <trkpt lat="44.75027" lon="1.7506">
        <ele>304.88</ele>
        <time>2020-07-13T14:41:27Z</time>
      </trkpt>
      <trkpt lat="44.75049" lon="1.75071">
        <ele>306.32</ele>
        <time>2020-07-13T14:41:46Z</time>
      </trkpt>
      <trkpt lat="44.7507" lon="1.75086">
        <ele>307.28</ele>
        <time>2020-07-13T14:42:06Z</time>
      </trkpt>
      <trkpt lat="44.75093" lon="1.75093">
        <ele>309.2</ele>
        <time>2020-07-13T14:42:28Z</time>
      </trkpt>
      <trkpt lat="44.7511" lon="1.75097">
        <ele>310.64</ele>
        <time>2020-07-13T14:42:43Z</time>
      </trkpt>
      <trkpt lat="44.75127" lon="1.751">
        <ele>311.12</ele>
        <time>2020-07-13T14:43:00Z</time>
      </trkpt>
      <trkpt lat="44.75145" lon="1.75097">
        <ele>312.57</ele>
        <time>2020-07-13T14:43:15Z</time>
      </trkpt>
      <trkpt lat="44.75152" lon="1.75093">
        <ele>313.53</ele>
        <time>2020-07-13T14:43:37Z</time>
      </trkpt>
      <trkpt lat="44.75152" lon="1.75097">
        <ele>311.6</ele>
        <time>2020-07-13T14:43:48Z</time>
      </trkpt>
      <trkpt lat="44.75161" lon="1.75092">
        <ele>313.53</ele>
        <time>2020-07-13T14:44:10Z</time>
      </trkpt>
      <trkpt lat="44.7517" lon="1.75086">
        <ele>312.09</ele>
        <time>2020-07-13T14:44:21Z</time>
      </trkpt>
      <trkpt lat="44.75179" lon="1.75077">
        <ele>313.05</ele>
        <time>2020-07-13T14:44:36Z</time>
      </trkpt>
      <trkpt lat="44.75188" lon="1.75068">
        <ele>312.09</ele>
        <time>2020-07-13T14:44:44Z</time>
      </trkpt>
      <trkpt lat="44.75204" lon="1.75051">
        <ele>311.12</ele>
        <time>2020-07-13T14:44:59Z</time>
      </trkpt>
      <trkpt lat="44.75231" lon="1.7503">
        <ele>309.68</ele>
        <time>2020-07-13T14:45:22Z</time>
      </trkpt>
      <trkpt lat="44.75243" lon="1.75024">
        <ele>309.2</ele>
        <time>2020-07-13T14:45:33Z</time>
      </trkpt>
      <trkpt lat="44.75265" lon="1.75011">
        <ele>309.2</ele>
        <time>2020-07-13T14:45:52Z</time>
      </trkpt>
      <trkpt lat="44.75291" lon="1.75005">
        <ele>307.76</ele>
        <time>2020-07-13T14:46:10Z</time>
      </trkpt>
      <trkpt lat="44.75295" lon="1.75008">
        <ele>308.72</ele>
        <time>2020-07-13T14:46:13Z</time>
      </trkpt>
      <trkpt lat="44.75298" lon="1.75011">
        <ele>308.72</ele>
        <time>2020-07-13T14:46:17Z</time>
      </trkpt>
      <trkpt lat="44.753" lon="1.75015">
        <ele>310.16</ele>
        <time>2020-07-13T14:46:21Z</time>
      </trkpt>
      <trkpt lat="44.75319" lon="1.75036">
        <ele>311.6</ele>
        <time>2020-07-13T14:46:42Z</time>
      </trkpt>
      <trkpt lat="44.75334" lon="1.75049">
        <ele>312.09</ele>
        <time>2020-07-13T14:47:00Z</time>
      </trkpt>
      <trkpt lat="44.75352" lon="1.75066">
        <ele>313.53</ele>
        <time>2020-07-13T14:47:18Z</time>
      </trkpt>
      <trkpt lat="44.75367" lon="1.75085">
        <ele>314.49</ele>
        <time>2020-07-13T14:47:37Z</time>
      </trkpt>
      <trkpt lat="44.75391" lon="1.75087">
        <ele>314.49</ele>
        <time>2020-07-13T14:47:59Z</time>
      </trkpt>
      <trkpt lat="44.75415" lon="1.75069">
        <ele>314.01</ele>
        <time>2020-07-13T14:48:20Z</time>
      </trkpt>
      <trkpt lat="44.75421" lon="1.75067">
        <ele>312.57</ele>
        <time>2020-07-13T14:48:24Z</time>
      </trkpt>
      <trkpt lat="44.75447" lon="1.75065">
        <ele>311.12</ele>
        <time>2020-07-13T14:48:44Z</time>
      </trkpt>
      <trkpt lat="44.75448" lon="1.75064">
        <ele>311.12</ele>
        <time>2020-07-13T14:48:45Z</time>
      </trkpt>
      <trkpt lat="44.75454" lon="1.7506">
        <ele>311.6</ele>
        <time>2020-07-13T14:48:50Z</time>
      </trkpt>
      <trkpt lat="44.7547" lon="1.7504">
        <ele>309.68</ele>
        <time>2020-07-13T14:49:08Z</time>
      </trkpt>
      <trkpt lat="44.7548" lon="1.75028">
        <ele>309.2</ele>
        <time>2020-07-13T14:49:19Z</time>
      </trkpt>
      <trkpt lat="44.75486" lon="1.75018">
        <ele>306.8</ele>
        <time>2020-07-13T14:49:26Z</time>
      </trkpt>
      <trkpt lat="44.75504" lon="1.75002">
        <ele>303.91</ele>
        <time>2020-07-13T14:49:44Z</time>
      </trkpt>
      <trkpt lat="44.75505" lon="1.75001">
        <ele>303.91</ele>
        <time>2020-07-13T14:49:45Z</time>
      </trkpt>
      <trkpt lat="44.75515" lon="1.74993">
        <ele>302.47</ele>
        <time>2020-07-13T14:49:54Z</time>
      </trkpt>
      <trkpt lat="44.75537" lon="1.74978">
        <ele>301.99</ele>
        <time>2020-07-13T14:50:13Z</time>
      </trkpt>
      <trkpt lat="44.75561" lon="1.74963">
        <ele>303.91</ele>
        <time>2020-07-13T14:50:32Z</time>
      </trkpt>
      <trkpt lat="44.75576" lon="1.74947">
        <ele>305.84</ele>
        <time>2020-07-13T14:50:51Z</time>
      </trkpt>
      <trkpt lat="44.75582" lon="1.7493">
        <ele>308.24</ele>
        <time>2020-07-13T14:51:03Z</time>
      </trkpt>
      <trkpt lat="44.75586" lon="1.74917">
        <ele>308.72</ele>
        <time>2020-07-13T14:51:12Z</time>
      </trkpt>
      <trkpt lat="44.75592" lon="1.74896">
        <ele>311.12</ele>
        <time>2020-07-13T14:51:31Z</time>
      </trkpt>
      <trkpt lat="44.75596" lon="1.74885">
        <ele>312.57</ele>
        <time>2020-07-13T14:51:39Z</time>
      </trkpt>
      <trkpt lat="44.75598" lon="1.74862">
        <ele>314.01</ele>
        <time>2020-07-13T14:51:58Z</time>
      </trkpt>
      <trkpt lat="44.75599" lon="1.74835">
        <ele>314.49</ele>
        <time>2020-07-13T14:52:16Z</time>
      </trkpt>
      <trkpt lat="44.75604" lon="1.74815">
        <ele>314.97</ele>
        <time>2020-07-13T14:52:35Z</time>
      </trkpt>
      <trkpt lat="44.75609" lon="1.74792">
        <ele>314.97</ele>
        <time>2020-07-13T14:52:54Z</time>
      </trkpt>
      <trkpt lat="44.75612" lon="1.74775">
        <ele>313.53</ele>
        <time>2020-07-13T14:53:05Z</time>
      </trkpt>
      <trkpt lat="44.75612" lon="1.74772">
        <ele>314.49</ele>
        <time>2020-07-13T14:53:07Z</time>
      </trkpt>
      <trkpt lat="44.7562" lon="1.74752">
        <ele>314.49</ele>
        <time>2020-07-13T14:53:20Z</time>
      </trkpt>
      <trkpt lat="44.75627" lon="1.74728">
        <ele>313.53</ele>
        <time>2020-07-13T14:53:35Z</time>
      </trkpt>
      <trkpt lat="44.75636" lon="1.74701">
        <ele>313.05</ele>
        <time>2020-07-13T14:53:53Z</time>
      </trkpt>
      <trkpt lat="44.75641" lon="1.74691">
        <ele>314.01</ele>
        <time>2020-07-13T14:54:00Z</time>
      </trkpt>
      <trkpt lat="44.7565" lon="1.74676">
        <ele>312.57</ele>
        <time>2020-07-13T14:54:10Z</time>
      </trkpt>
      <trkpt lat="44.75662" lon="1.74651">
        <ele>312.09</ele>
        <time>2020-07-13T14:54:28Z</time>
      </trkpt>
      <trkpt lat="44.75679" lon="1.74642">
        <ele>312.57</ele>
        <time>2020-07-13T14:54:44Z</time>
      </trkpt>
      <trkpt lat="44.75684" lon="1.74639">
        <ele>311.12</ele>
        <time>2020-07-13T14:54:49Z</time>
      </trkpt>
      <trkpt lat="44.75699" lon="1.74636">
        <ele>311.12</ele>
        <time>2020-07-13T14:55:01Z</time>
      </trkpt>
      <trkpt lat="44.75724" lon="1.74627">
        <ele>311.12</ele>
        <time>2020-07-13T14:55:22Z</time>
      </trkpt>
      <trkpt lat="44.75727" lon="1.74625">
        <ele>309.68</ele>
        <time>2020-07-13T14:55:24Z</time>
      </trkpt>
      <trkpt lat="44.75739" lon="1.74623">
        <ele>310.64</ele>
        <time>2020-07-13T14:55:35Z</time>
      </trkpt>
      <trkpt lat="44.75743" lon="1.74622">
        <ele>309.2</ele>
        <time>2020-07-13T14:55:39Z</time>
      </trkpt>
      <trkpt lat="44.75762" lon="1.74615">
        <ele>309.2</ele>
        <time>2020-07-13T14:55:56Z</time>
      </trkpt>
      <trkpt lat="44.75778" lon="1.74601">
        <ele>308.72</ele>
        <time>2020-07-13T14:56:12Z</time>
      </trkpt>
      <trkpt lat="44.75781" lon="1.74599">
        <ele>307.28</ele>
        <time>2020-07-13T14:56:15Z</time>
      </trkpt>
      <trkpt lat="44.75783" lon="1.74598">
        <ele>308.24</ele>
        <time>2020-07-13T14:56:17Z</time>
      </trkpt>
      <trkpt lat="44.75792" lon="1.74593">
        <ele>306.8</ele>
        <time>2020-07-13T14:56:26Z</time>
      </trkpt>
      <trkpt lat="44.75817" lon="1.74575">
        <ele>306.32</ele>
        <time>2020-07-13T14:56:48Z</time>
      </trkpt>
      <trkpt lat="44.75825" lon="1.74568">
        <ele>307.28</ele>
        <time>2020-07-13T14:56:54Z</time>
      </trkpt>
      <trkpt lat="44.75831" lon="1.74561">
        <ele>306.32</ele>
        <time>2020-07-13T14:57:00Z</time>
      </trkpt>
      <trkpt lat="44.75842" lon="1.74545">
        <ele>305.36</ele>
        <time>2020-07-13T14:57:14Z</time>
      </trkpt>
      <trkpt lat="44.75847" lon="1.7454">
        <ele>305.36</ele>
        <time>2020-07-13T14:57:19Z</time>
      </trkpt>
      <trkpt lat="44.75862" lon="1.74524">
        <ele>304.39</ele>
        <time>2020-07-13T14:57:34Z</time>
      </trkpt>
      <trkpt lat="44.75874" lon="1.74507">
        <ele>304.39</ele>
        <time>2020-07-13T14:57:49Z</time>
      </trkpt>
      <trkpt lat="44.75891" lon="1.74486">
        <ele>302.47</ele>
        <time>2020-07-13T14:58:13Z</time>
      </trkpt>
      <trkpt lat="44.75896" lon="1.74484">
        <ele>301.03</ele>
        <time>2020-07-13T14:58:21Z</time>
      </trkpt>
      <trkpt lat="44.7591" lon="1.74459">
        <ele>299.59</ele>
        <time>2020-07-13T14:58:42Z</time>
      </trkpt>
      <trkpt lat="44.75924" lon="1.74426">
        <ele>300.07</ele>
        <time>2020-07-13T14:59:01Z</time>
      </trkpt>
      <trkpt lat="44.75926" lon="1.7442">
        <ele>298.63</ele>
        <time>2020-07-13T14:59:06Z</time>
      </trkpt>
      <trkpt lat="44.75946" lon="1.74397">
        <ele>299.59</ele>
        <time>2020-07-13T14:59:25Z</time>
      </trkpt>
      <trkpt lat="44.75962" lon="1.74376">
        <ele>299.59</ele>
        <time>2020-07-13T14:59:44Z</time>
      </trkpt>
      <trkpt lat="44.75983" lon="1.74353">
        <ele>300.55</ele>
        <time>2020-07-13T15:00:04Z</time>
      </trkpt>
      <trkpt lat="44.75998" lon="1.74327">
        <ele>301.51</ele>
        <time>2020-07-13T15:00:25Z</time>
      </trkpt>
      <trkpt lat="44.76005" lon="1.74317">
        <ele>301.51</ele>
        <time>2020-07-13T15:00:51Z</time>
      </trkpt>
      <trkpt lat="44.76006" lon="1.7432">
        <ele>301.51</ele>
        <time>2020-07-13T15:01:18Z</time>
      </trkpt>
      <trkpt lat="44.76003" lon="1.74312">
        <ele>301.51</ele>
        <time>2020-07-13T15:01:45Z</time>
      </trkpt>
      <trkpt lat="44.76002" lon="1.74291">
        <ele>301.51</ele>
        <time>2020-07-13T15:02:00Z</time>
      </trkpt>
      <trkpt lat="44.76005" lon="1.74276">
        <ele>300.55</ele>
        <time>2020-07-13T15:02:09Z</time>
      </trkpt>
      <trkpt lat="44.76005" lon="1.74272">
        <ele>301.51</ele>
        <time>2020-07-13T15:02:12Z</time>
      </trkpt>
      <trkpt lat="44.76007" lon="1.74267">
        <ele>300.07</ele>
        <time>2020-07-13T15:02:15Z</time>
      </trkpt>
      <trkpt lat="44.76012" lon="1.74252">
        <ele>300.07</ele>
        <time>2020-07-13T15:02:26Z</time>
      </trkpt>
      <trkpt lat="44.76014" lon="1.74244">
        <ele>301.51</ele>
        <time>2020-07-13T15:02:32Z</time>
      </trkpt>
      <trkpt lat="44.76017" lon="1.74222">
        <ele>300.07</ele>
        <time>2020-07-13T15:02:43Z</time>
      </trkpt>
      <trkpt lat="44.76019" lon="1.74218">
        <ele>301.51</ele>
        <time>2020-07-13T15:02:46Z</time>
      </trkpt>
      <trkpt lat="44.76021" lon="1.74214">
        <ele>300.07</ele>
        <time>2020-07-13T15:02:49Z</time>
      </trkpt>
      <trkpt lat="44.76024" lon="1.7421">
        <ele>301.51</ele>
        <time>2020-07-13T15:02:52Z</time>
      </trkpt>
      <trkpt lat="44.7604" lon="1.74186">
        <ele>302.47</ele>
        <time>2020-07-13T15:03:11Z</time>
      </trkpt>
      <trkpt lat="44.76048" lon="1.74173">
        <ele>301.03</ele>
        <time>2020-07-13T15:03:22Z</time>
      </trkpt>
      <trkpt lat="44.76073" lon="1.74152">
        <ele>302.47</ele>
        <time>2020-07-13T15:03:46Z</time>
      </trkpt>
      <trkpt lat="44.76091" lon="1.74148">
        <ele>303.91</ele>
        <time>2020-07-13T15:04:04Z</time>
      </trkpt>
      <trkpt lat="44.76113" lon="1.74139">
        <ele>303.43</ele>
        <time>2020-07-13T15:04:22Z</time>
      </trkpt>
      <trkpt lat="44.76115" lon="1.74138">
        <ele>304.39</ele>
        <time>2020-07-13T15:04:24Z</time>
      </trkpt>
      <trkpt lat="44.76122" lon="1.7413">
        <ele>302.95</ele>
        <time>2020-07-13T15:04:32Z</time>
      </trkpt>
      <trkpt lat="44.76124" lon="1.74128">
        <ele>304.39</ele>
        <time>2020-07-13T15:04:34Z</time>
      </trkpt>
      <trkpt lat="44.7614" lon="1.74113">
        <ele>304.88</ele>
        <time>2020-07-13T15:04:49Z</time>
      </trkpt>
      <trkpt lat="44.76162" lon="1.74097">
        <ele>304.88</ele>
        <time>2020-07-13T15:05:08Z</time>
      </trkpt>
      <trkpt lat="44.76164" lon="1.74095">
        <ele>304.88</ele>
        <time>2020-07-13T15:05:10Z</time>
      </trkpt>
      <trkpt lat="44.76187" lon="1.74074">
        <ele>302.95</ele>
        <time>2020-07-13T15:05:32Z</time>
      </trkpt>
      <trkpt lat="44.76207" lon="1.74063">
        <ele>301.99</ele>
        <time>2020-07-13T15:05:52Z</time>
      </trkpt>
      <trkpt lat="44.76216" lon="1.74062">
        <ele>301.99</ele>
        <time>2020-07-13T15:06:16Z</time>
      </trkpt>
      <trkpt lat="44.76218" lon="1.74059">
        <ele>301.99</ele>
        <time>2020-07-13T15:06:43Z</time>
      </trkpt>
      <trkpt lat="44.76228" lon="1.74054">
        <ele>300.55</ele>
        <time>2020-07-13T15:06:52Z</time>
      </trkpt>
      <trkpt lat="44.7623" lon="1.74053">
        <ele>301.99</ele>
        <time>2020-07-13T15:06:54Z</time>
      </trkpt>
      <trkpt lat="44.76249" lon="1.74039">
        <ele>300.07</ele>
        <time>2020-07-13T15:07:13Z</time>
      </trkpt>
      <trkpt lat="44.76274" lon="1.74028">
        <ele>300.55</ele>
        <time>2020-07-13T15:07:32Z</time>
      </trkpt>
      <trkpt lat="44.76281" lon="1.74025">
        <ele>300.55</ele>
        <time>2020-07-13T15:07:38Z</time>
      </trkpt>
      <trkpt lat="44.76291" lon="1.74022">
        <ele>298.63</ele>
        <time>2020-07-13T15:07:44Z</time>
      </trkpt>
      <trkpt lat="44.76295" lon="1.7402">
        <ele>300.07</ele>
        <time>2020-07-13T15:07:47Z</time>
      </trkpt>
      <trkpt lat="44.76299" lon="1.74018">
        <ele>298.63</ele>
        <time>2020-07-13T15:07:51Z</time>
      </trkpt>
      <trkpt lat="44.76326" lon="1.74007">
        <ele>297.67</ele>
        <time>2020-07-13T15:08:11Z</time>
      </trkpt>
      <trkpt lat="44.76336" lon="1.74">
        <ele>299.11</ele>
        <time>2020-07-13T15:08:20Z</time>
      </trkpt>
      <trkpt lat="44.76363" lon="1.73981">
        <ele>299.11</ele>
        <time>2020-07-13T15:08:43Z</time>
      </trkpt>
      <trkpt lat="44.7638" lon="1.73971">
        <ele>298.63</ele>
        <time>2020-07-13T15:08:58Z</time>
      </trkpt>
      <trkpt lat="44.76385" lon="1.73967">
        <ele>300.07</ele>
        <time>2020-07-13T15:09:02Z</time>
      </trkpt>
      <trkpt lat="44.76406" lon="1.73941">
        <ele>301.51</ele>
        <time>2020-07-13T15:09:23Z</time>
      </trkpt>
      <trkpt lat="44.76418" lon="1.73924">
        <ele>301.51</ele>
        <time>2020-07-13T15:09:37Z</time>
      </trkpt>
      <trkpt lat="44.76434" lon="1.73886">
        <ele>302.95</ele>
        <time>2020-07-13T15:10:01Z</time>
      </trkpt>
      <trkpt lat="44.76444" lon="1.73852">
        <ele>304.39</ele>
        <time>2020-07-13T15:10:23Z</time>
      </trkpt>
      <trkpt lat="44.76445" lon="1.7385">
        <ele>304.39</ele>
        <time>2020-07-13T15:10:24Z</time>
      </trkpt>
      <trkpt lat="44.76453" lon="1.73822">
        <ele>302.95</ele>
        <time>2020-07-13T15:10:42Z</time>
      </trkpt>
      <trkpt lat="44.76455" lon="1.73809">
        <ele>302.95</ele>
        <time>2020-07-13T15:10:49Z</time>
      </trkpt>
      <trkpt lat="44.76461" lon="1.73795">
        <ele>302.47</ele>
        <time>2020-07-13T15:10:57Z</time>
      </trkpt>
      <trkpt lat="44.76464" lon="1.73787">
        <ele>301.99</ele>
        <time>2020-07-13T15:11:03Z</time>
      </trkpt>
      <trkpt lat="44.76465" lon="1.73784">
        <ele>303.43</ele>
        <time>2020-07-13T15:11:05Z</time>
      </trkpt>
      <trkpt lat="44.76483" lon="1.73757">
        <ele>301.99</ele>
        <time>2020-07-13T15:11:25Z</time>
      </trkpt>
      <trkpt lat="44.76489" lon="1.73743">
        <ele>301.51</ele>
        <time>2020-07-13T15:11:33Z</time>
      </trkpt>
      <trkpt lat="44.76491" lon="1.73741">
        <ele>302.47</ele>
        <time>2020-07-13T15:11:35Z</time>
      </trkpt>
      <trkpt lat="44.76501" lon="1.73727">
        <ele>301.03</ele>
        <time>2020-07-13T15:11:45Z</time>
      </trkpt>
      <trkpt lat="44.76511" lon="1.73704">
        <ele>300.55</ele>
        <time>2020-07-13T15:11:59Z</time>
      </trkpt>
      <trkpt lat="44.76513" lon="1.73697">
        <ele>301.99</ele>
        <time>2020-07-13T15:12:03Z</time>
      </trkpt>
      <trkpt lat="44.76514" lon="1.73689">
        <ele>300.55</ele>
        <time>2020-07-13T15:12:08Z</time>
      </trkpt>
      <trkpt lat="44.76518" lon="1.73684">
        <ele>301.03</ele>
        <time>2020-07-13T15:12:12Z</time>
      </trkpt>
      <trkpt lat="44.76524" lon="1.73676">
        <ele>299.11</ele>
        <time>2020-07-13T15:12:31Z</time>
      </trkpt>
      <trkpt lat="44.76522" lon="1.7368">
        <ele>299.59</ele>
        <time>2020-07-13T15:12:52Z</time>
      </trkpt>
      <trkpt lat="44.76524" lon="1.73675">
        <ele>299.59</ele>
        <time>2020-07-13T15:13:17Z</time>
      </trkpt>
      <trkpt lat="44.76521" lon="1.73677">
        <ele>299.59</ele>
        <time>2020-07-13T15:13:47Z</time>
      </trkpt>
      <trkpt lat="44.76525" lon="1.73674">
        <ele>299.59</ele>
        <time>2020-07-13T15:14:08Z</time>
      </trkpt>
      <trkpt lat="44.76529" lon="1.73678">
        <ele>300.07</ele>
        <time>2020-07-13T15:14:30Z</time>
      </trkpt>
      <trkpt lat="44.76525" lon="1.73676">
        <ele>300.07</ele>
        <time>2020-07-13T15:14:53Z</time>
      </trkpt>
      <trkpt lat="44.76522" lon="1.73663">
        <ele>299.11</ele>
        <time>2020-07-13T15:14:59Z</time>
      </trkpt>
      <trkpt lat="44.76522" lon="1.73665">
        <ele>299.11</ele>
        <time>2020-07-13T15:15:26Z</time>
      </trkpt>
      <trkpt lat="44.76525" lon="1.7367">
        <ele>299.11</ele>
        <time>2020-07-13T15:15:48Z</time>
      </trkpt>
      <trkpt lat="44.76536" lon="1.73689">
        <ele>299.59</ele>
        <time>2020-07-13T15:16:14Z</time>
      </trkpt>
      <trkpt lat="44.76537" lon="1.73691">
        <ele>299.59</ele>
        <time>2020-07-13T15:16:37Z</time>
      </trkpt>
      <trkpt lat="44.76534" lon="1.73684">
        <ele>298.15</ele>
        <time>2020-07-13T15:16:58Z</time>
      </trkpt>
      <trkpt lat="44.76534" lon="1.73687">
        <ele>299.59</ele>
        <time>2020-07-13T15:17:00Z</time>
      </trkpt>
      <trkpt lat="44.76518" lon="1.73683">
        <ele>299.59</ele>
        <time>2020-07-13T15:22:08Z</time>
      </trkpt>
      <trkpt lat="44.76511" lon="1.73665">
        <ele>299.59</ele>
        <time>2020-07-13T15:22:31Z</time>
      </trkpt>
      <trkpt lat="44.76514" lon="1.73672">
        <ele>300.07</ele>
        <time>2020-07-13T15:23:02Z</time>
      </trkpt>
      <trkpt lat="44.76518" lon="1.73673">
        <ele>300.07</ele>
        <time>2020-07-13T15:23:28Z</time>
      </trkpt>
      <trkpt lat="44.76516" lon="1.73676">
        <ele>300.07</ele>
        <time>2020-07-13T15:23:53Z</time>
      </trkpt>
      <trkpt lat="44.76524" lon="1.73676">
        <ele>300.55</ele>
        <time>2020-07-13T15:24:12Z</time>
      </trkpt>
      <trkpt lat="44.76526" lon="1.73673">
        <ele>300.55</ele>
        <time>2020-07-13T15:24:37Z</time>
      </trkpt>
      <trkpt lat="44.76526" lon="1.73672">
        <ele>301.03</ele>
        <time>2020-07-13T15:25:03Z</time>
      </trkpt>
      <trkpt lat="44.76541" lon="1.73662">
        <ele>299.11</ele>
        <time>2020-07-13T15:25:24Z</time>
      </trkpt>
      <trkpt lat="44.76561" lon="1.73648">
        <ele>297.18</ele>
        <time>2020-07-13T15:25:43Z</time>
      </trkpt>
      <trkpt lat="44.76588" lon="1.73634">
        <ele>295.74</ele>
        <time>2020-07-13T15:26:06Z</time>
      </trkpt>
      <trkpt lat="44.76612" lon="1.73619">
        <ele>294.3</ele>
        <time>2020-07-13T15:26:28Z</time>
      </trkpt>
      <trkpt lat="44.76631" lon="1.73609">
        <ele>293.34</ele>
        <time>2020-07-13T15:26:46Z</time>
      </trkpt>
      <trkpt lat="44.76644" lon="1.73603">
        <ele>294.3</ele>
        <time>2020-07-13T15:26:56Z</time>
      </trkpt>
      <trkpt lat="44.76645" lon="1.73602">
        <ele>292.86</ele>
        <time>2020-07-13T15:26:58Z</time>
      </trkpt>
      <trkpt lat="44.76646" lon="1.73602">
        <ele>292.86</ele>
        <time>2020-07-13T15:26:59Z</time>
      </trkpt>
      <trkpt lat="44.7665" lon="1.73599">
        <ele>293.82</ele>
        <time>2020-07-13T15:27:03Z</time>
      </trkpt>
      <trkpt lat="44.7668" lon="1.73589">
        <ele>293.34</ele>
        <time>2020-07-13T15:27:23Z</time>
      </trkpt>
      <trkpt lat="44.767" lon="1.7358">
        <ele>293.82</ele>
        <time>2020-07-13T15:27:42Z</time>
      </trkpt>
      <trkpt lat="44.76704" lon="1.73579">
        <ele>293.82</ele>
        <time>2020-07-13T15:28:01Z</time>
      </trkpt>
      <trkpt lat="44.7671" lon="1.73576">
        <ele>292.38</ele>
        <time>2020-07-13T15:28:06Z</time>
      </trkpt>
      <trkpt lat="44.76735" lon="1.73566">
        <ele>293.82</ele>
        <time>2020-07-13T15:28:27Z</time>
      </trkpt>
      <trkpt lat="44.76738" lon="1.73563">
        <ele>292.38</ele>
        <time>2020-07-13T15:28:30Z</time>
      </trkpt>
      <trkpt lat="44.76742" lon="1.73562">
        <ele>293.34</ele>
        <time>2020-07-13T15:28:34Z</time>
      </trkpt>
      <trkpt lat="44.76761" lon="1.73554">
        <ele>293.82</ele>
        <time>2020-07-13T15:28:53Z</time>
      </trkpt>
      <trkpt lat="44.76765" lon="1.73545">
        <ele>292.38</ele>
        <time>2020-07-13T15:29:03Z</time>
      </trkpt>
      <trkpt lat="44.76775" lon="1.73527">
        <ele>292.86</ele>
        <time>2020-07-13T15:29:19Z</time>
      </trkpt>
      <trkpt lat="44.76779" lon="1.73522">
        <ele>291.42</ele>
        <time>2020-07-13T15:29:23Z</time>
      </trkpt>
      <trkpt lat="44.768" lon="1.7349">
        <ele>291.42</ele>
        <time>2020-07-13T15:29:47Z</time>
      </trkpt>
      <trkpt lat="44.76814" lon="1.73465">
        <ele>292.38</ele>
        <time>2020-07-13T15:30:08Z</time>
      </trkpt>
      <trkpt lat="44.7683" lon="1.73451">
        <ele>295.74</ele>
        <time>2020-07-13T15:30:26Z</time>
      </trkpt>
      <trkpt lat="44.76853" lon="1.73441">
        <ele>294.3</ele>
        <time>2020-07-13T15:30:44Z</time>
      </trkpt>
      <trkpt lat="44.76873" lon="1.73428">
        <ele>295.26</ele>
        <time>2020-07-13T15:31:03Z</time>
      </trkpt>
      <trkpt lat="44.76894" lon="1.73404">
        <ele>294.78</ele>
        <time>2020-07-13T15:31:25Z</time>
      </trkpt>
      <trkpt lat="44.76898" lon="1.73398">
        <ele>292.86</ele>
        <time>2020-07-13T15:31:30Z</time>
      </trkpt>
      <trkpt lat="44.76902" lon="1.73394">
        <ele>293.82</ele>
        <time>2020-07-13T15:31:34Z</time>
      </trkpt>
      <trkpt lat="44.76919" lon="1.73376">
        <ele>293.82</ele>
        <time>2020-07-13T15:31:51Z</time>
      </trkpt>
      <trkpt lat="44.76928" lon="1.73369">
        <ele>291.9</ele>
        <time>2020-07-13T15:31:59Z</time>
      </trkpt>
      <trkpt lat="44.76942" lon="1.73355">
        <ele>292.38</ele>
        <time>2020-07-13T15:32:13Z</time>
      </trkpt>
      <trkpt lat="44.7695" lon="1.73342">
        <ele>290.94</ele>
        <time>2020-07-13T15:32:22Z</time>
      </trkpt>
      <trkpt lat="44.76951" lon="1.7334">
        <ele>292.38</ele>
        <time>2020-07-13T15:32:24Z</time>
      </trkpt>
      <trkpt lat="44.76966" lon="1.73318">
        <ele>293.34</ele>
        <time>2020-07-13T15:32:43Z</time>
      </trkpt>
      <trkpt lat="44.76982" lon="1.73294">
        <ele>295.26</ele>
        <time>2020-07-13T15:33:05Z</time>
      </trkpt>
      <trkpt lat="44.76995" lon="1.73281">
        <ele>298.63</ele>
        <time>2020-07-13T15:33:23Z</time>
      </trkpt>
      <trkpt lat="44.77011" lon="1.73259">
        <ele>300.07</ele>
        <time>2020-07-13T15:33:44Z</time>
      </trkpt>
      <trkpt lat="44.7703" lon="1.73235">
        <ele>301.51</ele>
        <time>2020-07-13T15:34:06Z</time>
      </trkpt>
      <trkpt lat="44.7704" lon="1.73224">
        <ele>301.99</ele>
        <time>2020-07-13T15:34:18Z</time>
      </trkpt>
      <trkpt lat="44.77043" lon="1.73221">
        <ele>302.47</ele>
        <time>2020-07-13T15:34:21Z</time>
      </trkpt>
      <trkpt lat="44.7705" lon="1.73215">
        <ele>302.47</ele>
        <time>2020-07-13T15:34:27Z</time>
      </trkpt>
      <trkpt lat="44.77055" lon="1.73208">
        <ele>302.47</ele>
        <time>2020-07-13T15:34:35Z</time>
      </trkpt>
      <trkpt lat="44.77062" lon="1.732">
        <ele>301.03</ele>
        <time>2020-07-13T15:34:53Z</time>
      </trkpt>
      <trkpt lat="44.77071" lon="1.73186">
        <ele>300.55</ele>
        <time>2020-07-13T15:35:08Z</time>
      </trkpt>
      <trkpt lat="44.77088" lon="1.73172">
        <ele>299.59</ele>
        <time>2020-07-13T15:35:28Z</time>
      </trkpt>
      <trkpt lat="44.77093" lon="1.73169">
        <ele>299.59</ele>
        <time>2020-07-13T15:35:46Z</time>
      </trkpt>
      <trkpt lat="44.77093" lon="1.73169">
        <ele>299.59</ele>
        <time>2020-07-13T15:35:48Z</time>
      </trkpt>
      <trkpt lat="44.77111" lon="1.73169">
        <ele>297.67</ele>
        <time>2020-07-13T15:36:04Z</time>
      </trkpt>
      <trkpt lat="44.77126" lon="1.73169">
        <ele>296.22</ele>
        <time>2020-07-13T15:36:19Z</time>
      </trkpt>
      <trkpt lat="44.77131" lon="1.73168">
        <ele>295.74</ele>
        <time>2020-07-13T15:36:24Z</time>
      </trkpt>
      <trkpt lat="44.7714" lon="1.73165">
        <ele>296.22</ele>
        <time>2020-07-13T15:36:32Z</time>
      </trkpt>
      <trkpt lat="44.77162" lon="1.73147">
        <ele>296.22</ele>
        <time>2020-07-13T15:36:52Z</time>
      </trkpt>
      <trkpt lat="44.7718" lon="1.73137">
        <ele>296.22</ele>
        <time>2020-07-13T15:37:13Z</time>
      </trkpt>
      <trkpt lat="44.77198" lon="1.73129">
        <ele>294.3</ele>
        <time>2020-07-13T15:37:35Z</time>
      </trkpt>
      <trkpt lat="44.77223" lon="1.73132">
        <ele>292.38</ele>
        <time>2020-07-13T15:37:58Z</time>
      </trkpt>
      <trkpt lat="44.77242" lon="1.73139">
        <ele>291.42</ele>
        <time>2020-07-13T15:38:19Z</time>
      </trkpt>
      <trkpt lat="44.77265" lon="1.73135">
        <ele>289.97</ele>
        <time>2020-07-13T15:38:41Z</time>
      </trkpt>
      <trkpt lat="44.77284" lon="1.73132">
        <ele>289.01</ele>
        <time>2020-07-13T15:38:59Z</time>
      </trkpt>
      <trkpt lat="44.77322" lon="1.73122">
        <ele>289.49</ele>
        <time>2020-07-13T15:39:21Z</time>
      </trkpt>
      <trkpt lat="44.77342" lon="1.73101">
        <ele>290.94</ele>
        <time>2020-07-13T15:39:43Z</time>
      </trkpt>
      <trkpt lat="44.77361" lon="1.73085">
        <ele>292.38</ele>
        <time>2020-07-13T15:40:04Z</time>
      </trkpt>
      <trkpt lat="44.77368" lon="1.73077">
        <ele>290.46</ele>
        <time>2020-07-13T15:40:24Z</time>
      </trkpt>
      <trkpt lat="44.77384" lon="1.73052">
        <ele>292.38</ele>
        <time>2020-07-13T15:40:45Z</time>
      </trkpt>
      <trkpt lat="44.77408" lon="1.73031">
        <ele>294.3</ele>
        <time>2020-07-13T15:41:08Z</time>
      </trkpt>
      <trkpt lat="44.77414" lon="1.73026">
        <ele>295.74</ele>
        <time>2020-07-13T15:41:15Z</time>
      </trkpt>
      <trkpt lat="44.77422" lon="1.73011">
        <ele>298.63</ele>
        <time>2020-07-13T15:41:33Z</time>
      </trkpt>
      <trkpt lat="44.7743" lon="1.73002">
        <ele>301.99</ele>
        <time>2020-07-13T15:41:49Z</time>
      </trkpt>
      <trkpt lat="44.7743" lon="1.73">
        <ele>301.99</ele>
        <time>2020-07-13T15:41:50Z</time>
      </trkpt>
      <trkpt lat="44.77441" lon="1.72988">
        <ele>304.88</ele>
        <time>2020-07-13T15:42:09Z</time>
      </trkpt>
      <trkpt lat="44.77449" lon="1.72983">
        <ele>304.88</ele>
        <time>2020-07-13T15:42:26Z</time>
      </trkpt>
      <trkpt lat="44.77449" lon="1.72982">
        <ele>304.88</ele>
        <time>2020-07-13T15:42:27Z</time>
      </trkpt>
      <trkpt lat="44.77457" lon="1.7297">
        <ele>305.36</ele>
        <time>2020-07-13T15:42:45Z</time>
      </trkpt>
      <trkpt lat="44.77457" lon="1.7297">
        <ele>305.36</ele>
        <time>2020-07-13T15:42:46Z</time>
      </trkpt>
      <trkpt lat="44.77452" lon="1.72974">
        <ele>305.84</ele>
        <time>2020-07-13T15:42:58Z</time>
      </trkpt>
      <trkpt lat="44.77453" lon="1.72964">
        <ele>306.32</ele>
        <time>2020-07-13T15:43:06Z</time>
      </trkpt>
      <trkpt lat="44.77455" lon="1.7293">
        <ele>303.43</ele>
        <time>2020-07-13T15:43:28Z</time>
      </trkpt>
      <trkpt lat="44.77455" lon="1.7291">
        <ele>302.95</ele>
        <time>2020-07-13T15:43:42Z</time>
      </trkpt>
      <trkpt lat="44.77454" lon="1.72909">
        <ele>302.95</ele>
        <time>2020-07-13T15:43:43Z</time>
      </trkpt>
      <trkpt lat="44.7745" lon="1.72879">
        <ele>301.03</ele>
        <time>2020-07-13T15:44:01Z</time>
      </trkpt>
      <trkpt lat="44.77449" lon="1.72852">
        <ele>299.11</ele>
        <time>2020-07-13T15:44:18Z</time>
      </trkpt>
      <trkpt lat="44.77449" lon="1.72829">
        <ele>295.26</ele>
        <time>2020-07-13T15:44:33Z</time>
      </trkpt>
      <trkpt lat="44.77449" lon="1.72828">
        <ele>295.26</ele>
        <time>2020-07-13T15:44:34Z</time>
      </trkpt>
      <trkpt lat="44.77441" lon="1.72791">
        <ele>292.38</ele>
        <time>2020-07-13T15:44:56Z</time>
      </trkpt>
      <trkpt lat="44.77434" lon="1.72773">
        <ele>289.01</ele>
        <time>2020-07-13T15:45:10Z</time>
      </trkpt>
      <trkpt lat="44.77442" lon="1.72748">
        <ele>287.09</ele>
        <time>2020-07-13T15:45:29Z</time>
      </trkpt>
      <trkpt lat="44.77443" lon="1.72746">
        <ele>287.09</ele>
        <time>2020-07-13T15:45:30Z</time>
      </trkpt>
      <trkpt lat="44.77453" lon="1.72727">
        <ele>288.05</ele>
        <time>2020-07-13T15:45:46Z</time>
      </trkpt>
      <trkpt lat="44.77455" lon="1.72722">
        <ele>286.61</ele>
        <time>2020-07-13T15:45:50Z</time>
      </trkpt>
      <trkpt lat="44.77458" lon="1.72714">
        <ele>288.05</ele>
        <time>2020-07-13T15:45:54Z</time>
      </trkpt>
      <trkpt lat="44.77458" lon="1.72711">
        <ele>286.61</ele>
        <time>2020-07-13T15:45:56Z</time>
      </trkpt>
      <trkpt lat="44.77459" lon="1.72708">
        <ele>288.05</ele>
        <time>2020-07-13T15:45:58Z</time>
      </trkpt>
      <trkpt lat="44.7746" lon="1.72704">
        <ele>286.61</ele>
        <time>2020-07-13T15:46:01Z</time>
      </trkpt>
      <trkpt lat="44.77461" lon="1.72702">
        <ele>288.53</ele>
        <time>2020-07-13T15:46:03Z</time>
      </trkpt>
      <trkpt lat="44.77479" lon="1.72676">
        <ele>286.13</ele>
        <time>2020-07-13T15:46:23Z</time>
      </trkpt>
      <trkpt lat="44.7748" lon="1.72673">
        <ele>287.57</ele>
        <time>2020-07-13T15:46:25Z</time>
      </trkpt>
      <trkpt lat="44.77489" lon="1.72665">
        <ele>286.13</ele>
        <time>2020-07-13T15:46:34Z</time>
      </trkpt>
      <trkpt lat="44.77499" lon="1.72652">
        <ele>286.13</ele>
        <time>2020-07-13T15:46:44Z</time>
      </trkpt>
      <trkpt lat="44.77502" lon="1.7265">
        <ele>287.57</ele>
        <time>2020-07-13T15:46:47Z</time>
      </trkpt>
      <trkpt lat="44.77519" lon="1.72641">
        <ele>287.57</ele>
        <time>2020-07-13T15:47:05Z</time>
      </trkpt>
      <trkpt lat="44.77525" lon="1.72657">
        <ele>287.09</ele>
        <time>2020-07-13T15:47:30Z</time>
      </trkpt>
      <trkpt lat="44.77525" lon="1.72646">
        <ele>287.09</ele>
        <time>2020-07-13T15:47:58Z</time>
      </trkpt>
      <trkpt lat="44.77529" lon="1.72641">
        <ele>287.09</ele>
        <time>2020-07-13T15:48:19Z</time>
      </trkpt>
      <trkpt lat="44.77535" lon="1.72637">
        <ele>287.09</ele>
        <time>2020-07-13T15:48:34Z</time>
      </trkpt>
      <trkpt lat="44.77536" lon="1.72638">
        <ele>287.09</ele>
        <time>2020-07-13T15:48:40Z</time>
      </trkpt>
      <trkpt lat="44.77541" lon="1.72635">
        <ele>287.09</ele>
        <time>2020-07-13T15:48:46Z</time>
      </trkpt>
      <trkpt lat="44.77546" lon="1.7263">
        <ele>285.65</ele>
        <time>2020-07-13T15:48:51Z</time>
      </trkpt>
      <trkpt lat="44.77553" lon="1.72625">
        <ele>286.61</ele>
        <time>2020-07-13T15:48:57Z</time>
      </trkpt>
      <trkpt lat="44.77574" lon="1.72607">
        <ele>287.57</ele>
        <time>2020-07-13T15:49:17Z</time>
      </trkpt>
      <trkpt lat="44.77582" lon="1.72601">
        <ele>286.61</ele>
        <time>2020-07-13T15:49:26Z</time>
      </trkpt>
      <trkpt lat="44.77583" lon="1.72598">
        <ele>288.05</ele>
        <time>2020-07-13T15:49:28Z</time>
      </trkpt>
      <trkpt lat="44.77587" lon="1.72593">
        <ele>288.53</ele>
        <time>2020-07-13T15:49:32Z</time>
      </trkpt>
      <trkpt lat="44.7759" lon="1.7259">
        <ele>287.09</ele>
        <time>2020-07-13T15:49:35Z</time>
      </trkpt>
      <trkpt lat="44.77602" lon="1.72577">
        <ele>287.09</ele>
        <time>2020-07-13T15:49:46Z</time>
      </trkpt>
      <trkpt lat="44.77608" lon="1.72574">
        <ele>288.05</ele>
        <time>2020-07-13T15:49:51Z</time>
      </trkpt>
      <trkpt lat="44.77618" lon="1.72569">
        <ele>287.09</ele>
        <time>2020-07-13T15:50:05Z</time>
      </trkpt>
      <trkpt lat="44.77635" lon="1.72551">
        <ele>287.09</ele>
        <time>2020-07-13T15:50:20Z</time>
      </trkpt>
      <trkpt lat="44.77642" lon="1.72542">
        <ele>285.65</ele>
        <time>2020-07-13T15:50:27Z</time>
      </trkpt>
      <trkpt lat="44.77654" lon="1.72525">
        <ele>285.17</ele>
        <time>2020-07-13T15:50:38Z</time>
      </trkpt>
      <trkpt lat="44.77677" lon="1.72542">
        <ele>286.61</ele>
        <time>2020-07-13T15:50:57Z</time>
      </trkpt>
      <trkpt lat="44.7768" lon="1.72529">
        <ele>286.61</ele>
        <time>2020-07-13T15:51:29Z</time>
      </trkpt>
      <trkpt lat="44.77685" lon="1.72528">
        <ele>285.17</ele>
        <time>2020-07-13T15:51:37Z</time>
      </trkpt>
      <trkpt lat="44.77685" lon="1.72529">
        <ele>285.17</ele>
        <time>2020-07-13T15:51:38Z</time>
      </trkpt>
      <trkpt lat="44.77699" lon="1.7254">
        <ele>288.05</ele>
        <time>2020-07-13T15:51:55Z</time>
      </trkpt>
      <trkpt lat="44.77698" lon="1.72551">
        <ele>289.49</ele>
        <time>2020-07-13T15:52:00Z</time>
      </trkpt>
      <trkpt lat="44.77697" lon="1.72579">
        <ele>292.38</ele>
        <time>2020-07-13T15:52:19Z</time>
      </trkpt>
      <trkpt lat="44.77692" lon="1.72599">
        <ele>294.3</ele>
        <time>2020-07-13T15:52:36Z</time>
      </trkpt>
      <trkpt lat="44.77687" lon="1.72609">
        <ele>297.67</ele>
        <time>2020-07-13T15:52:48Z</time>
      </trkpt>
      <trkpt lat="44.7769" lon="1.72603">
        <ele>299.59</ele>
        <time>2020-07-13T15:53:04Z</time>
      </trkpt>
      <trkpt lat="44.77698" lon="1.72593">
        <ele>302.47</ele>
        <time>2020-07-13T15:53:19Z</time>
      </trkpt>
      <trkpt lat="44.77687" lon="1.72602">
        <ele>305.84</ele>
        <time>2020-07-13T15:54:32Z</time>
      </trkpt>
      <trkpt lat="44.77714" lon="1.72603">
        <ele>306.32</ele>
        <time>2020-07-13T15:54:48Z</time>
      </trkpt>
    </trkseg>
  </trk>
</gpx>